[[{"header":{"parameterUnit":"m.s-1","parameterCategory":1,"la1":30.6,"la2":28.766,"lo1":-90.7593,"lo2":-88.6598,"dy":0.0162,"dx":0.0183,"nx":116,"ny":114,"refTime":"2023-07-18T12:00:00:Z","depth":0,"parameterNumber":2,"parameterNumberName":"U-component_of_WINDS"},"data":[0.0,0.0,0.0,0.0,0.0,0.0,0.0,0.0,0.0,0.0,0.0,0.0,0.0,0.0,0.0,0.0,0.0,0.0,0.0,0.0,0.0,0.0,0.0,0.0,0.0,0.0,0.0,0.0,0.0,0.0,0.0,0.0,0.0,0.0,0.0,0.0,0.0,0.0,0.0,0.0,0.0,0.0,0.0,0.0,0.0,0.0,0.0,0.0,0.0,0.0,0.0,0.0,0.0,0.0,0.0,0.0,0.0,0.0,0.0,0.0,0.0,0.0,0.0,0.0,0.0,0.0,0.0,0.0,0.0,0.0,0.0,0.0,0.0,0.0,0.0,0.0,0.0,0.0,0.0,0.0,0.0,0.0,0.0,0.0,0.0,0.0,0.0,0.0,0.0,0.0,0.0,0.0,0.0,0.0,0.0,0.0,0.0,0.0,0.0,0.0,0.0,0.0,0.0,0.0,0.0,0.0,0.0,0.0,0.0,0.0,0.0,0.0,0.0,0.0,0.0,0.0,0.0,0.0,0.0,0.0,0.0,0.0,0.0,0.0,0.0,0.0,0.0,0.0,0.0,0.0,0.0,0.0,0.0,0.0,0.0,0.0,0.0,0.0,0.0,0.0,0.0,0.0,0.0,0.0,0.0,0.0,0.0,0.0,0.0,0.0,0.0,0.0,0.0,0.0,0.0,0.0,0.0,0.0,0.0,0.0,0.0,0.0,0.0,0.0,0.0,0.0,0.0,0.0,0.0,0.0,0.0,0.0,0.0,0.0,0.0,0.0,0.0,0.0,0.0,0.0,0.0,0.0,0.0,0.0,0.0,0.0,0.0,0.0,0.0,0.0,0.0,0.0,0.0,0.0,0.0,0.0,0.0,0.0,0.0,0.0,0.0,0.0,0.0,0.0,0.0,0.0,0.0,0.0,0.0,0.0,0.0,0.0,0.0,0.0,0.0,0.0,0.0,0.0,0.0,0.0,0.0,0.0,0.0,0.0,0.0,0.0,0.0,0.0,0.0,0.0,0.0,0.0,0.0,0.0,0.0,0.0,0.0,0.0,0.0,0.0,0.0,0.0,0.0,0.0,0.0,0.0,0.0,0.0,0.0,0.0,0.0,0.0,0.0,0.0,0.0,0.0,0.0,0.0,0.0,0.0,0.0,0.0,0.0,0.0,0.0,0.0,0.0,0.0,0.0,0.0,0.0,0.0,0.0,0.0,0.0,0.0,0.0,0.0,0.0,0.0,0.0,0.0,0.0,0.0,0.0,0.0,0.0,0.0,0.0,0.0,0.0,0.0,0.0,0.0,0.0,0.0,0.0,0.0,0.0,0.0,0.0,0.0,0.0,0.0,0.0,0.0,0.0,0.0,0.0,0.0,0.0,0.0,0.0,0.0,0.0,0.0,0.0,0.0,0.0,0.0,0.0,0.0,0.0,0.0,0.0,0.0,0.0,0.0,0.0,0.0,0.0,0.0,0.0,0.0,0.0,0.0,0.0,0.0,0.0,0.0,0.0,0.0,0.0,0.0,0.0,0.0,0.0,0.0,0.0,0.0,0.0,0.0,0.0,0.0,0.0,0.0,0.0,0.0,0.0,0.0,0.0,0.0,0.0,0.0,0.0,0.0,0.0,0.0,0.0,0.0,0.0,0.0,0.0,0.0,0.0,0.0,0.0,0.0,0.0,0.0,0.0,0.0,0.0,0.0,0.0,0.0,0.0,0.0,0.0,0.0,0.0,0.0,0.0,0.0,0.0,0.0,0.0,0.0,0.0,0.0,0.0,0.0,0.0,0.0,0.0,0.0,0.0,0.0,0.0,0.0,0.0,0.0,0.0,0.0,0.0,0.0,0.0,0.0,0.0,0.0,0.0,0.0,0.0,0.0,0.0,0.0,0.0,0.0,0.0,0.0,0.0,0.0,0.0,0.0,0.0,0.0,0.0,0.0,0.0,0.0,0.0,0.0,0.0,0.0,0.0,0.0,0.0,0.0,0.0,0.0,0.0,0.0,0.0,0.0,0.0,0.0,0.0,0.0,0.0,0.0,0.0,0.0,0.0,0.0,0.0,0.0,0.0,0.0,0.0,0.0,0.0,0.0,0.0,0.0,0.0,0.0,0.0,0.0,0.0,0.0,0.0,0.0,0.0,0.0,0.0,0.0,0.0,0.0,0.0,0.0,0.0,0.0,0.0,0.0,0.0,0.0,0.0,0.0,0.0,0.0,0.0,0.0,0.0,0.0,0.0,0.0,0.0,0.0,0.0,0.0,0.0,0.0,0.0,0.0,0.0,0.0,0.0,0.0,0.0,0.0,0.0,0.0,0.0,0.0,0.0,0.0,0.0,0.0,0.0,0.0,0.0,0.0,0.0,0.0,0.0,0.0,0.0,0.0,0.0,0.0,0.0,0.0,0.0,0.0,0.0,0.0,0.0,0.0,0.0,0.0,0.0,0.0,0.0,0.0,0.0,0.0,0.0,0.0,0.0,0.0,0.0,0.0,0.0,0.0,0.0,0.0,0.0,0.0,0.0,0.0,0.0,0.0,0.0,0.0,0.0,0.0,0.0,0.0,0.0,0.0,0.0,0.0,0.0,0.0,0.0,0.0,0.0,0.0,0.0,0.0,0.0,0.0,0.0,0.0,0.0,0.0,0.0,0.0,0.0,0.0,0.0,0.0,0.0,0.0,0.0,0.0,0.0,0.0,0.0,0.0,0.0,0.0,0.0,0.0,0.0,0.0,0.0,0.0,0.0,0.0,0.0,0.0,0.0,0.0,0.0,0.0,0.0,0.0,0.0,0.0,0.0,0.0,0.0,0.0,0.0,0.0,0.0,0.0,0.0,0.0,0.0,0.0,0.0,0.0,0.0,0.0,0.0,0.0,0.0,0.0,0.0,0.0,0.0,0.0,0.0,0.0,0.0,0.0,0.0,0.0,0.0,0.0,0.0,0.0,0.0,0.0,0.0,0.0,0.0,0.0,0.0,0.0,0.0,0.0,0.0,0.0,0.0,0.0,0.0,0.0,0.0,0.0,0.0,0.0,0.0,0.0,0.0,0.0,0.0,0.0,0.0,0.0,0.0,0.0,0.0,0.0,0.0,0.0,0.0,0.0,0.0,0.0,0.0,0.0,0.0,0.0,0.0,0.0,0.0,0.0,0.0,0.0,0.0,0.0,0.0,0.0,0.0,0.0,0.0,0.0,0.0,0.0,0.0,0.0,0.0,0.0,0.0,0.0,0.0,0.0,0.0,0.0,0.0,0.0,0.0,0.0,0.0,0.0,0.0,0.0,0.0,0.0,0.0,0.0,0.0,0.0,0.0,0.0,0.0,0.0,0.0,0.0,0.0,0.0,0.0,0.0,0.0,0.0,0.0,0.0,0.0,0.0,0.0,0.0,0.0,0.0,0.0,0.0,0.0,0.0,0.0,0.0,0.0,0.0,0.0,0.0,0.0,0.0,0.0,0.0,0.0,0.0,0.0,0.0,0.0,0.0,0.0,0.0,0.0,0.0,0.0,0.0,0.0,0.0,0.0,0.0,0.0,0.0,0.0,0.0,0.0,0.0,0.0,0.0,0.0,0.0,0.0,0.0,0.0,0.0,0.0,0.0,0.0,0.0,0.0,0.0,0.0,0.0,0.0,0.0,0.0,0.0,0.0,0.0,0.0,0.0,0.0,0.0,0.0,0.0,0.0,0.0,0.0,0.0,0.0,0.0,0.0,0.0,0.0,0.0,0.0,0.0,0.0,0.0,0.0,0.0,0.0,0.0,0.0,0.0,0.0,0.0,0.0,0.0,0.0,0.0,0.0,0.0,0.0,0.0,0.0,0.0,0.0,0.0,0.0,0.0,0.0,0.0,0.0,0.0,0.0,0.0,0.0,0.0,0.0,0.0,0.0,0.0,0.0,0.0,0.0,0.0,0.0,0.0,0.0,0.0,0.0,0.0,0.0,0.0,0.0,0.0,0.0,0.0,0.0,0.0,0.0,0.0,0.0,0.0,0.0,0.0,0.0,0.0,0.0,0.0,0.0,0.0,0.0,0.0,0.0,0.0,0.0,0.0,0.0,0.0,0.0,0.0,0.0,0.0,0.0,0.0,0.0,0.0,0.0,0.0,0.0,0.0,0.0,0.0,0.0,0.0,0.0,0.0,0.0,0.0,0.0,0.0,0.0,0.0,0.0,0.0,0.0,0.0,0.0,0.0,0.0,0.0,0.0,0.0,0.0,0.0,0.0,0.0,0.0,0.0,0.0,0.0,0.0,0.0,0.0,0.0,0.0,0.0,0.0,0.0,0.0,0.0,0.0,0.0,0.0,0.0,0.0,0.0,0.0,0.0,0.0,0.0,0.0,0.0,0.0,0.0,0.0,0.0,0.0,0.0,0.0,0.0,0.0,0.0,0.0,0.0,0.0,0.0,0.0,0.0,0.0,0.0,0.0,0.0,0.0,0.0,0.0,0.0,0.0,0.0,0.0,0.0,0.0,0.0,0.0,0.0,0.0,0.0,0.0,0.0,0.0,0.0,0.0,0.0,0.0,0.0,0.0,0.0,0.0,0.0,0.0,0.0,0.0,0.0,0.0,0.0,0.0,0.0,0.0,0.0,0.0,0.0,0.0,0.0,0.0,0.0,0.0,0.0,0.0,0.0,0.0,0.0,0.0,0.0,0.0,0.0,0.0,0.0,0.0,0.0,0.0,0.0,0.0,0.0,0.0,0.0,0.0,0.0,0.0,0.0,0.0,0.0,0.0,0.0,0.0,0.0,0.0,0.0,0.0,0.0,0.0,0.0,0.0,0.0,0.0,0.0,0.0,0.0,0.0,0.0,0.0,0.0,0.0,0.0,0.0,0.0,0.0,0.0,0.0,0.0,0.0,0.0,0.0,0.0,0.0,0.0,0.0,0.0,0.0,0.0,0.0,0.0,0.0,0.0,0.0,0.0,0.0,0.0,0.0,0.0,0.0,0.0,0.0,0.0,0.0,0.0,0.0,0.0,0.0,0.0,0.0,0.0,0.0,0.0,0.0,0.0,0.0,0.0,0.0,0.0,0.0,0.0,0.0,0.0,0.0,0.0,0.0,0.0,0.0,0.0,0.0,0.0,0.0,0.0,0.0,0.0,0.0,0.0,0.0,0.0,0.0,0.0,0.0,0.0,0.0,0.0,0.0,0.0,0.0,0.0,0.0,0.0,0.0,0.0,0.0,0.0,0.0,0.0,0.0,0.0,0.0,0.0,0.0,0.0,0.0,0.0,0.0,0.0,0.0,0.0,0.0,0.0,0.0,0.0,0.0,0.0,0.0,0.0,0.0,0.0,0.0,0.0,0.0,0.0,0.0,0.0,0.0,0.0,0.0,0.0,0.0,0.0,0.0,0.0,0.0,0.0,0.0,0.0,0.0,0.0,0.0,0.0,0.0,0.0,0.0,0.0,0.0,0.0,0.0,0.0,0.0,0.0,0.0,0.0,0.0,0.0,0.0,0.0,0.0,0.0,0.0,0.0,0.0,0.0,0.0,0.0,0.0,0.0,0.0,0.0,0.0,0.0,0.0,0.0,0.0,0.0,0.0,0.0,0.0,0.0,0.0,0.0,0.0,0.0,0.0,0.0,0.0,0.0,0.0,0.0,0.0,0.0,0.0,0.0,0.0,0.0,0.0,0.0,0.0,0.0,0.0,0.0,0.0,0.0,0.0,0.0,0.0,0.0,0.0,0.0,0.0,0.0,0.0,0.0,0.0,0.0,0.0,0.0,0.0,0.0,0.0,0.0,0.0,0.0,0.0,0.0,0.0,0.0,0.0,0.0,0.0,0.0,0.0,0.0,0.0,0.0,0.0,0.0,0.0,0.0,0.0,0.0,0.0,0.0,0.0,0.0,0.0,0.0,0.0,0.0,0.0,0.0,0.0,0.0,0.0,0.0,0.0,0.0,0.0,0.0,0.0,0.0,0.0,0.0,0.0,0.0,0.0,0.0,0.0,0.0,0.0,0.0,0.0,0.0,0.0,0.0,0.0,0.0,0.0,0.0,0.0,0.0,0.0,0.0,0.0,0.0,0.0,0.0,0.0,0.0,0.0,0.0,0.0,0.0,0.0,0.0,0.0,0.0,0.0,0.0,0.0,0.0,0.0,0.0,-0.4947,0.0,0.0,0.0,0.0,0.0,0.0,0.0,0.0,0.0,0.0,0.0,0.0,0.0,0.0,0.0,0.0,0.0,0.0,0.0,0.0,0.0,0.0,0.0,0.0,0.0,0.0,0.0,0.0,0.0,0.0,0.0,0.0,0.0,0.0,0.0,0.0,0.0,0.0,0.0,0.0,0.0,0.0,0.0,0.0,0.0,0.0,0.0,0.0,0.0,0.0,0.0,0.0,0.0,0.0,0.0,0.0,0.0,0.0,0.0,0.0,0.0,0.0,0.0,0.0,0.0,0.0,0.0,0.0,0.0,0.0,0.0,0.0,0.0,0.0,0.0,0.0,0.0,0.0,0.0,0.0,0.0,0.0,0.0,0.0,0.0,0.0,0.0,0.0,0.0,0.0,0.0,0.0,0.0,0.0,0.0,0.0,0.0,0.0,0.0,0.0,0.0,0.0,0.0,0.0,0.0,0.0,0.0,0.0,0.0,0.0,0.0,0.0,0.0,0.0,0.0,0.0,-0.5104,0.0,0.0,0.0,0.0,0.0,0.0,0.0,0.0,0.0,0.0,0.0,0.0,0.0,0.0,0.0,0.0,0.0,0.0,0.0,0.0,0.0,0.0,0.0,0.0,0.0,0.0,0.0,0.0,0.0,0.0,0.0,0.0,0.0,0.0,0.0,0.0,0.0,0.0,0.0,0.0,0.0,0.0,0.0,0.0,0.0,0.0,0.0,0.0,0.0,0.0,0.0,0.0,0.0,0.0,0.0,0.0,0.0,0.0,0.0,0.0,0.0,0.0,0.0,0.0,0.0,0.0,0.0,0.0,0.0,0.0,0.0,0.0,0.0,0.0,0.0,0.0,0.0,0.0,0.0,0.0,0.0,0.0,0.0,0.0,0.0,0.0,0.0,0.0,0.0,0.0,0.0,0.0,0.0,0.0,0.0,0.0,0.0,0.0,0.0,0.0,0.0,0.0,0.0,0.0,0.0,0.0,0.0,0.0,-0.5014,-0.5143,-0.5796,-0.5796,-0.5892,-0.622,-0.6221,-0.5865,-0.5298,-0.5234,0.0,0.0,0.0,0.0,0.0,0.0,0.0,0.0,0.0,0.0,0.0,0.0,0.0,0.0,0.0,0.0,0.0,0.0,0.0,0.0,0.0,0.0,0.0,0.0,0.0,0.0,0.0,0.0,0.0,0.0,0.0,0.0,0.0,0.0,0.0,0.0,0.0,0.0,0.0,0.0,0.0,0.0,0.0,0.0,0.0,0.0,0.0,0.0,0.0,0.0,0.0,0.0,0.0,0.0,0.0,0.0,0.0,0.0,0.0,0.0,0.0,0.0,0.0,0.0,0.0,0.0,0.0,0.0,0.0,0.0,0.0,0.0,0.0,0.0,0.0,0.0,0.0,0.0,0.0,0.0,0.0,0.0,0.0,0.0,0.0,0.0,-0.1085,-0.1112,0.0,0.0,0.0,0.0,0.0,0.0,0.0,0.0,0.0,0.0,0.0,0.0,0.0,-0.6123,-0.62,-0.6123,-0.6133,-0.6153,-0.5838,-0.5767,-0.5864,-0.5712,-0.5698,-0.5882,-0.5851,0.0,-0.5585,-0.5585,0.0,0.0,0.0,0.0,0.0,0.0,0.0,0.0,0.0,0.0,0.0,0.0,0.0,0.0,0.0,0.0,0.0,0.0,0.0,0.0,0.0,0.0,0.0,0.0,0.0,0.0,0.0,0.0,0.0,0.0,0.0,0.0,0.0,0.0,0.0,0.0,0.0,0.0,0.0,0.0,0.0,0.0,0.0,0.0,0.0,0.0,0.0,0.0,0.0,0.0,0.0,0.0,0.0,0.0,0.0,0.0,0.0,0.0,0.0,0.0,0.0,0.0,0.0,0.0,0.0,0.0,0.0,0.0,0.0,0.0,0.0,0.0,0.0,0.0,0.0,0.0,0.0,0.0,0.0,0.0,0.0,0.0,0.0,0.0,0.0,-0.1533,-0.1696,-0.1216,-0.2502,-0.323,0.0,0.0,0.0,0.0,0.0,0.0,0.0,0.0,0.0,-0.6159,-0.6143,-0.618,-0.6261,-0.6264,-0.6225,-0.6225,-0.6381,-0.6498,-0.6498,-0.6823,-0.702,-0.7082,-0.6675,-0.6397,-0.6183,-0.6183,-0.6263,-0.6421,0.0,0.0,0.0,0.0,-0.5537,-0.5216,0.0,0.0,0.0,0.0,0.0,0.0,0.0,0.0,0.0,0.0,0.0,0.0,0.0,0.0,0.0,0.0,0.0,0.0,0.0,0.0,0.0,0.0,0.0,0.0,0.0,0.0,0.0,0.0,0.0,0.0,0.0,0.0,0.0,0.0,0.0,0.0,0.0,0.0,0.0,0.0,0.0,0.0,0.0,0.0,0.0,0.0,0.0,0.0,0.0,0.0,0.0,0.0,0.0,0.0,0.0,0.0,0.0,0.0,0.0,0.0,0.0,0.0,0.0,0.0,0.0,0.0,0.0,0.0,0.0,0.0,0.0,0.0,0.0,0.0,0.0,0.0,0.0,-0.1942,-0.2337,-0.1913,-0.3377,-0.4189,0.0,0.0,0.0,0.0,0.0,0.0,-0.5935,-0.5821,-0.5921,-0.6237,-0.6031,-0.6051,-0.6215,-0.616,-0.6131,-0.637,-0.6562,-0.6778,-0.6943,-0.7274,-0.7544,-0.767,-0.7166,-0.7024,-0.7224,-0.6649,-0.6615,-0.694,-0.694,-0.6609,-0.6111,-0.6111,-0.5865,-0.5368,0.0,0.0,0.0,0.0,0.0,0.0,0.0,0.0,0.0,0.0,0.0,0.0,0.0,0.0,0.0,0.0,0.0,0.0,0.0,0.0,0.0,0.0,0.0,0.0,0.0,0.0,0.0,0.0,0.0,0.0,0.0,0.0,0.0,0.0,0.0,0.0,0.0,0.0,0.0,0.0,0.0,0.0,0.0,0.0,0.0,0.0,0.0,0.0,0.0,0.0,0.0,0.0,0.0,0.0,0.0,0.0,0.0,0.0,0.0,0.0,0.0,0.0,0.0,0.0,0.0,0.0,0.0,0.0,0.0,0.0,0.0,0.0,0.0,0.0,0.0,0.0,0.0,0.0,0.0,-0.3553,-0.4378,0.0,0.0,0.0,0.0,-0.5928,-0.5702,-0.5705,-0.586,-0.5677,-0.5666,-0.6067,-0.6031,-0.6013,-0.6013,-0.6019,-0.6354,-0.6929,-0.6117,-0.6124,-0.6702,-0.5868,-0.5936,-0.6652,-0.6652,-0.7415,-0.8661,-0.6561,-0.5624,-0.5535,-0.5535,-0.5452,-0.5452,-0.5452,-0.5452,-0.5368,0.0,0.0,0.0,0.0,0.0,0.0,0.0,0.0,0.0,0.0,0.0,0.0,0.0,0.0,0.0,0.0,0.0,0.0,0.0,0.0,0.0,0.0,0.0,0.0,0.0,0.0,0.0,0.0,0.0,0.0,0.0,0.0,0.0,0.0,0.0,0.0,0.0,0.0,0.0,0.0,0.0,0.0,0.0,0.0,0.0,0.0,0.0,0.0,0.0,0.0,0.0,0.0,0.0,0.0,0.0,0.0,0.0,0.0,0.0,0.0,0.0,0.0,0.0,0.0,0.0,0.0,0.0,0.0,0.0,0.0,0.0,0.0,0.0,0.0,0.0,0.0,0.0,0.0,0.0,-0.3789,-0.4865,0.0,-0.4608,-0.547,-0.6058,-0.6073,-0.6004,-0.5962,-0.6131,-0.5937,-0.5964,-0.6214,-0.6093,-0.6034,-0.6204,-0.6036,-0.6075,-0.6329,-0.6331,-0.6717,-0.7411,-0.769,-0.83,-0.8992,-0.8653,-0.8733,-0.9237,-0.8027,-0.7856,-0.8353,-0.8353,-0.8096,-0.7662,-0.7662,-0.7318,-0.6973,0.0,0.0,0.0,0.0,0.0,0.0,0.0,0.0,0.0,0.0,0.0,0.0,0.0,0.0,0.0,0.0,0.0,0.0,0.0,0.0,0.0,0.0,0.0,0.0,0.0,0.0,0.0,0.0,0.0,0.0,0.0,0.0,0.0,0.0,0.0,0.0,0.0,0.0,0.0,0.0,0.0,0.0,-0.2215,0.0,0.0,0.0,0.0,0.0,0.0,0.0,0.0,0.0,0.0,0.0,0.0,0.0,0.0,0.0,0.0,0.0,0.0,0.0,0.0,0.0,0.0,0.0,0.0,0.0,0.0,0.0,0.0,0.0,0.0,0.0,0.0,0.0,0.0,0.0,-0.5243,-0.4698,-0.5514,-0.5852,-0.5224,-0.5659,-0.6045,-0.614,-0.6066,-0.6106,-0.6201,-0.6077,-0.6017,-0.6189,-0.5981,-0.6005,-0.6093,-0.5956,-0.6016,-0.628,-0.6767,-0.7285,-0.8005,-0.8667,-0.9362,-1.0013,-0.9675,-0.9634,-0.9824,-0.9355,-0.9579,-1.0159,-0.9709,-0.917,-0.8808,-0.8808,-0.845,-0.7998,0.0,0.0,0.0,0.0,0.0,0.0,0.0,0.0,0.0,0.0,0.0,0.0,0.0,0.0,0.0,0.0,0.0,0.0,0.0,0.0,0.0,0.0,0.0,0.0,0.0,0.0,0.0,0.0,0.0,0.0,0.0,0.0,0.0,0.0,0.0,0.0,0.0,0.0,0.0,0.0,0.0,0.0,-0.2335,0.0,0.0,0.0,0.0,0.0,0.0,0.0,0.0,0.0,0.0,0.0,0.0,0.0,0.0,0.0,0.0,0.0,0.0,0.0,0.0,0.0,0.0,0.0,0.0,0.0,0.0,0.0,0.0,0.0,0.0,0.0,0.0,0.0,-0.4781,-0.5572,-0.6291,-0.6305,-0.641,-0.6404,-0.6096,-0.6217,-0.629,-0.604,-0.604,-0.6043,-0.6047,-0.5999,-0.5895,-0.5901,-0.5852,-0.5741,-0.5744,-0.5943,-0.6365,-0.7093,-0.724,-0.7684,-0.8337,-0.852,-0.8893,-0.955,-0.9554,-0.9935,-1.0594,-1.0594,-1.0594,-1.0496,-0.908,-0.8606,-0.8606,-0.8606,-0.8606,-0.8606,0.0,0.0,0.0,0.0,0.0,0.0,0.0,0.0,0.0,0.0,0.0,0.0,0.0,0.0,0.0,0.0,0.0,0.0,0.0,0.0,0.0,0.0,0.0,0.0,0.0,0.0,0.0,0.0,0.0,0.0,0.0,0.0,0.0,0.0,0.0,0.0,0.0,0.0,0.0,0.0,0.0,0.0,-0.2335,0.0,0.0,0.0,0.0,0.0,0.0,0.0,0.0,0.0,0.0,0.0,0.0,0.0,0.0,0.0,0.0,0.0,0.0,0.0,0.0,0.0,0.0,0.0,0.0,0.0,0.0,0.0,0.0,0.0,0.0,0.0,0.0,-0.5975,-0.6051,-0.6268,-0.6461,-0.6576,-0.6617,-0.6558,-0.6236,-0.6757,-0.7072,-0.6939,-0.6773,-0.6731,-0.6753,-0.6618,-0.6419,-0.6166,-0.7015,-0.7356,-0.7092,-0.7591,-0.7887,-0.8077,-0.812,-0.8516,-0.9173,-0.9403,-0.9845,-1.0527,-1.0669,-1.083,-1.1023,-1.1023,-1.1023,-1.0995,-1.0314,-1.001,-1.001,-1.001,-1.001,-1.001,0.0,0.0,0.0,0.0,0.0,0.0,0.0,0.0,0.0,0.0,0.0,0.0,0.0,0.0,0.0,0.0,0.0,0.0,0.0,0.0,0.0,0.0,0.0,0.0,0.0,0.0,0.0,0.0,0.0,0.0,0.0,0.0,0.0,0.0,0.0,0.0,0.0,0.0,0.0,0.0,0.0,-0.2561,-0.2409,-0.2409,-0.2633,-0.3008,-0.3233,-0.3529,-0.3828,-0.4054,0.0,0.0,0.0,0.0,0.0,0.0,0.0,0.0,0.0,0.0,0.0,0.0,0.0,0.0,0.0,0.0,0.0,0.0,0.0,0.0,0.0,0.0,0.0,0.0,-0.6124,-0.6197,-0.6436,-0.6453,-0.644,-0.6526,-0.6505,-0.6541,-0.6541,-0.7013,-0.7257,-0.709,-0.7068,-0.6962,-0.6601,-0.6927,-0.7002,-0.6722,-0.7731,-0.8232,-0.7955,-0.8396,-0.8524,-0.8524,-0.8981,-0.9303,-0.9689,-1.0189,-1.0628,-1.1028,-1.1146,-1.1194,-1.1194,-1.1194,-1.1194,0.0,0.0,0.0,0.0,0.0,-1.0834,-1.0834,0.0,0.0,0.0,0.0,0.0,0.0,0.0,0.0,0.0,0.0,0.0,0.0,0.0,0.0,0.0,0.0,0.0,0.0,0.0,0.0,0.0,0.0,0.0,0.0,0.0,0.0,0.0,0.0,0.0,0.0,0.0,0.0,0.0,0.0,0.0,0.0,0.0,0.0,0.0,0.0,0.0,-0.2904,-0.2589,-0.2588,-0.2902,-0.3217,-0.3684,-0.3995,-0.4307,-0.4226,0.0,0.0,0.0,0.0,0.0,0.0,0.0,0.0,0.0,0.0,0.0,0.0,0.0,0.0,0.0,0.0,0.0,0.0,0.0,0.0,0.0,0.0,0.0,0.0,-0.6086,-0.6295,-0.6245,-0.6329,-0.6421,-0.6418,-0.6357,-0.6522,-0.7046,-0.7173,-0.717,-0.7091,-0.7312,-0.7116,-0.6379,0.0,0.0,0.0,0.0,-0.8742,-0.8663,-0.8818,-0.8891,-0.8891,-0.9739,-1.0117,-1.0117,-1.09,-1.1194,-1.1194,-1.1194,-1.1194,-1.1194,-1.1194,-1.1194,-1.1194,-1.1194,-1.1194,-1.1194,-1.1194,-1.1194,-1.1194,0.0,0.0,0.0,0.0,0.0,0.0,0.0,0.0,0.0,0.0,0.0,0.0,0.0,0.0,0.0,0.0,0.0,0.0,0.0,0.0,0.0,0.0,0.0,0.0,0.0,0.0,0.0,0.0,0.0,0.0,0.0,0.0,0.0,0.0,0.0,0.0,0.0,0.0,0.0,0.0,0.0,-0.3374,-0.3061,-0.3372,-0.3606,-0.3686,-0.3763,-0.3841,-0.3997,-0.4229,-0.4462,-0.4543,-0.4862,0.0,0.0,0.0,0.0,0.0,0.0,0.0,0.0,0.0,0.0,0.0,0.0,0.0,0.0,0.0,0.0,0.0,0.0,0.0,0.0,-0.5993,-0.6098,-0.6195,-0.6301,-0.6724,-0.7054,-0.7225,-0.725,-0.7492,-0.8154,-0.8204,-0.8371,-0.8958,-0.8451,-0.8288,-0.8741,-0.9056,-0.8859,-0.8332,-0.9681,-1.0241,-0.9714,-1.0329,-1.0742,-1.0742,0.0,0.0,-1.0998,-1.1096,-1.1194,-1.1194,-1.1194,-1.1194,-1.1194,-1.1194,-1.1194,-1.1194,-1.1194,-1.1194,-1.1194,-1.1194,-1.1194,-1.1194,0.0,0.0,0.0,0.0,0.0,0.0,0.0,0.0,0.0,0.0,0.0,0.0,0.0,0.0,0.0,0.0,0.0,0.0,0.0,0.0,0.0,0.0,0.0,0.0,0.0,0.0,0.0,0.0,0.0,0.0,0.0,0.0,0.0,0.0,0.0,0.0,0.0,0.0,0.0,0.0,0.0,-0.4691,-0.4148,-0.3917,-0.3919,-0.4073,-0.4073,-0.4231,-0.4467,-0.4623,-0.4701,-0.4701,-0.4937,-0.5018,-0.5018,0.0,0.0,0.0,0.0,0.0,0.0,0.0,0.0,0.0,0.0,0.0,0.0,0.0,0.0,-0.557,0.0,0.0,-0.5835,-0.5899,-0.626,-0.6634,-0.67,-0.7248,-0.761,-0.7517,-0.7337,-0.7757,-0.8926,-0.8582,-0.871,-0.944,-0.9161,-0.9025,-0.9017,-0.949,-0.9581,-0.9283,-1.0457,-1.09,-1.0605,-1.0998,-1.1194,-1.1194,-1.1194,-1.1194,-1.1194,-1.1194,-1.1194,-1.1194,-1.1194,-1.1194,-1.1194,-1.1194,-1.1194,-1.1194,-1.1194,-1.1194,-1.1194,-1.1194,-1.1194,-1.1194,0.0,0.0,0.0,0.0,0.0,0.0,0.0,0.0,0.0,0.0,0.0,0.0,0.0,0.0,0.0,0.0,0.0,0.0,0.0,0.0,0.0,0.0,0.0,0.0,0.0,0.0,0.0,0.0,0.0,0.0,0.0,0.0,0.0,0.0,0.0,0.0,0.0,0.0,0.0,0.0,0.0,-0.6083,-0.5538,-0.4693,-0.4462,-0.454,-0.454,-0.4701,-0.5018,-0.5018,-0.5018,-0.5018,-0.5018,-0.5018,-0.5021,-0.5045,-0.505,0.0,0.0,0.0,0.0,0.0,0.0,0.0,0.0,0.0,-0.5499,-0.5499,-0.5665,-0.5733,-0.5733,-0.5994,-0.6177,-0.6031,-0.6742,-0.7324,-0.7383,-0.7953,-0.8329,-0.7993,-0.7696,-0.8011,-0.9389,-0.8945,-0.8961,-0.9742,-0.9793,-0.9589,-0.9103,-0.9832,-1.0216,-1.0216,-1.09,-1.1194,-1.1194,-1.1194,-1.1194,-1.1194,-1.1194,-1.1194,-1.1194,-1.1194,-1.1194,-1.1194,-1.1194,-1.1194,-1.1194,-1.1194,-1.1194,-1.1194,-1.1194,-1.1194,-1.1194,-1.1194,-1.1194,-1.1194,0.0,0.0,0.0,0.0,0.0,0.0,0.0,0.0,0.0,0.0,0.0,0.0,0.0,0.0,0.0,0.0,0.0,0.0,0.0,0.0,0.0,0.0,0.0,0.0,0.0,0.0,0.0,0.0,0.0,0.0,0.0,0.0,0.0,0.0,0.0,0.0,0.0,0.0,0.0,0.0,0.0,-0.6784,-0.6707,-0.663,-0.586,-0.4937,-0.4937,-0.4937,-0.5018,-0.5018,-0.5018,-0.5018,-0.5018,-0.5018,-0.5037,-0.5137,0.0,-0.5195,-0.5317,-0.5339,-0.5333,-0.5344,-0.5439,-0.5529,0.0,0.0,-0.5711,-0.5711,-0.5725,-0.5733,-0.5733,-0.6257,-0.6735,-0.6953,-0.7608,-0.8117,-0.8277,-0.895,-0.9389,-0.9556,-0.9332,-0.9303,-0.9681,-0.9602,-0.9962,-1.0914,-1.0364,-1.028,-1.0863,-1.0984,-1.1096,-1.1096,-1.1194,-1.1194,-1.1194,-1.1194,-1.1194,-1.1194,-1.1194,-1.1194,-1.1194,-1.1194,-1.1194,-1.1194,-1.1194,-1.1194,-1.1194,-1.1194,-1.1194,-1.1194,-1.1194,-1.1194,-1.1194,-1.1194,-1.1194,-1.1194,0.0,0.0,0.0,0.0,0.0,0.0,0.0,0.0,0.0,0.0,0.0,0.0,0.0,0.0,0.0,0.0,0.0,0.0,0.0,0.0,0.0,0.0,0.0,0.0,0.0,0.0,0.0,0.0,0.0,0.0,0.0,0.0,0.0,0.0,0.0,0.0,0.0,0.0,0.0,0.0,0.0,-0.7706,-0.7399,-0.7399,-0.6861,-0.6096,-0.6096,-0.6096,0.0,0.0,-0.5864,-0.5556,-0.5556,-0.5373,-0.5203,-0.5651,-0.556,0.0,-0.5355,-0.5472,0.0,0.0,-0.5567,-0.5657,-0.5657,-0.5697,-0.5822,-0.6257,-0.6343,-0.6545,-0.7078,-0.7448,-0.7674,0.0,-0.8506,-0.9031,-0.921,-0.9901,-1.026,-0.9976,-1.0215,-1.0482,-1.0568,-1.0188,-1.0223,-1.1091,-1.0904,-1.0806,-1.1194,-1.1194,-1.1194,-1.1194,-1.1194,-1.1194,-1.1194,-1.1194,-1.1194,-1.1194,-1.1194,-1.1194,-1.1194,-1.1194,-1.1194,-1.1194,-1.1194,-1.1194,-1.1194,-1.1194,-1.1194,-1.1194,-1.1194,-1.1194,-1.1194,-1.1194,-1.1194,-1.1194,0.0,0.0,0.0,0.0,0.0,0.0,0.0,0.0,0.0,0.0,0.0,0.0,0.0,0.0,0.0,0.0,0.0,0.0,0.0,0.0,0.0,0.0,0.0,0.0,0.0,0.0,0.0,0.0,0.0,0.0,0.0,0.0,0.0,0.0,0.0,0.0,0.0,0.0,0.0,0.0,0.0,-0.847,-0.8012,-0.8012,-0.7783,-0.7322,-0.7015,-0.6865,0.0,0.0,-0.6695,-0.6237,-0.6356,-0.6125,-0.5972,-0.6495,-0.6363,-0.6057,-0.6057,0.0,0.0,-0.6138,-0.6189,-0.6257,-0.6257,-0.6257,-0.6435,-0.6956,-0.7166,-0.741,-0.8068,-0.8398,-0.867,-0.8839,-0.943,-0.9973,-1.0171,-1.0683,-1.084,-1.0395,-1.0806,-1.1194,-1.1194,-1.0703,-1.0609,-1.1194,-1.1194,-1.1194,-1.1194,-1.1194,-1.1194,-1.1194,-1.1194,-1.1194,-1.1194,-1.1194,-1.1194,-1.1194,-1.1194,-1.1194,-1.1194,-1.1194,-1.1194,-1.1194,-1.1194,-1.1194,-1.1194,-1.1194,-1.1194,-1.1194,-1.1194,-1.1194,-1.1194,-1.1194,-1.1194,-1.1194,0.0,0.0,0.0,0.0,0.0,0.0,0.0,0.0,0.0,0.0,0.0,0.0,0.0,0.0,0.0,0.0,0.0,0.0,0.0,0.0,0.0,0.0,0.0,0.0,0.0,0.0,0.0,0.0,0.0,0.0,0.0,0.0,0.0,0.0,0.0,0.0,0.0,0.0,0.0,0.0,-0.8699,-0.8699,-0.8703,-0.8703,-0.8627,-0.8475,-0.7322,0.0,0.0,0.0,-0.7172,-0.7202,-0.7368,-0.7424,0.0,-0.7624,-0.7696,0.0,0.0,0.0,-0.7746,-0.7738,-0.7742,-0.7746,-0.7746,-0.7746,-0.7746,-0.7746,-0.7968,-0.8174,-0.8182,-0.8862,-0.9499,-0.9697,-1.04,-1.0957,-1.1156,-1.1189,-1.1189,-1.1194,-1.1194,-1.1194,0.0,-1.1198,-1.1194,-1.1194,-1.1194,-1.1194,-1.1194,-1.1194,-1.1194,-1.1194,-1.1194,-1.1194,-1.1194,-1.1194,-1.1194,-1.1194,-1.1194,-1.1194,-1.1194,-1.1194,-1.1194,-1.1194,-1.1194,-1.1194,-1.1194,-1.1194,-1.1194,-1.1194,-1.1194,-1.1194,-1.1194,-1.1194,-1.1194,-1.1194,0.0,0.0,0.0,0.0,0.0,0.0,0.0,0.0,0.0,0.0,0.0,0.0,0.0,0.0,0.0,0.0,0.0,0.0,0.0,0.0,0.0,0.0,0.0,0.0,0.0,0.0,0.0,0.0,0.0,0.0,0.0,0.0,0.0,0.0,0.0,0.0,0.0,0.0,0.0,0.0,-0.9392,-0.9311,-0.9165,-0.9387,-0.9463,-0.9463,0.0,0.0,0.0,0.0,0.0,0.0,-0.8037,0.0,0.0,-0.7707,-0.8142,-0.8448,0.0,0.0,-0.7834,-0.7834,-0.7834,-0.7834,-0.7834,-0.7834,-0.7952,-0.8605,-0.8771,-0.9071,-0.9881,-1.0265,-1.0469,-1.0669,-1.09,-1.1118,-1.1184,-1.1194,-1.1194,-1.1194,-1.1194,0.0,0.0,0.0,0.0,-1.1194,-1.1194,-1.1194,-1.1194,-1.1194,-1.1194,-1.1194,-1.1194,-1.1194,-1.1194,-1.1194,-1.1194,-1.1194,-1.1194,-1.1194,-1.1194,-1.1194,-1.1194,-1.1194,-1.1194,-1.1194,-1.1292,-1.1965,-1.2155,-1.2252,-1.3017,-1.3216,-1.3216,-1.3216,-1.3216,-1.3022,0.0,0.0,0.0,0.0,0.0,0.0,0.0,0.0,0.0,0.0,0.0,0.0,0.0,0.0,0.0,0.0,0.0,0.0,0.0,0.0,0.0,0.0,0.0,0.0,0.0,0.0,0.0,0.0,0.0,0.0,0.0,0.0,0.0,0.0,0.0,0.0,0.0,0.0,0.0,0.0,0.0,-0.9771,-0.9549,-0.9771,-0.9922,0.0,0.0,0.0,0.0,0.0,0.0,0.0,0.0,-0.8874,-0.8574,-0.8595,-0.889,-0.9157,0.0,-0.8627,-0.8627,-0.8627,-0.8627,-0.8627,-0.8627,-0.8677,-0.8852,-0.9427,-0.9744,-1.0014,-1.0749,-1.0953,-1.1047,-1.1175,-1.1194,-1.1194,-1.1194,-1.1194,-1.1194,-1.1194,-1.1194,-1.1194,0.0,0.0,0.0,-1.1194,-1.1194,-1.1194,-1.1194,-1.1194,-1.1194,-1.1194,-1.1194,-1.1194,-1.1194,-1.1194,-1.1194,-1.1194,-1.1194,-1.1389,-1.177,-1.177,-1.1965,-1.2349,-1.2349,-1.2349,-1.2349,-1.3017,-1.3307,-1.3307,-1.4076,-1.4268,-1.4268,-1.4268,-1.4076,-1.3596,0.0,0.0,0.0,0.0,0.0,0.0,0.0,0.0,0.0,0.0,0.0,0.0,0.0,0.0,0.0,0.0,0.0,0.0,0.0,0.0,0.0,0.0,0.0,0.0,-0.9725,-1.0107,-1.0361,-1.0479,0.0,0.0,0.0,0.0,0.0,0.0,0.0,0.0,0.0,0.0,0.0,0.0,0.0,0.0,-0.9922,-0.9916,0.0,0.0,0.0,0.0,0.0,0.0,0.0,0.0,0.0,0.0,-1.0038,-1.0038,-1.0038,-1.0038,-1.0038,-1.0038,-1.0038,-1.0038,-1.0038,-1.0043,-1.0052,-1.0126,-1.0277,-1.0301,-1.0622,-1.0896,0.0,0.0,-1.1194,-1.1194,-1.1194,-1.1194,-1.1194,-1.1194,-1.1194,0.0,0.0,0.0,0.0,0.0,0.0,-1.1194,0.0,-1.1194,-1.1194,-1.1194,-1.1194,-1.1194,-1.1292,-1.1292,-1.1194,-1.1194,-1.1194,-1.1194,-1.1292,-1.177,-1.2727,-1.2727,-1.3307,-1.4268,-1.4268,-1.4268,-1.4268,-1.4364,-1.4364,-1.4364,-1.4459,-1.4459,-1.4459,-1.4459,-1.3788,-1.3113,0.0,0.0,0.0,0.0,0.0,0.0,0.0,0.0,0.0,0.0,0.0,0.0,0.0,0.0,0.0,0.0,0.0,0.0,0.0,0.0,0.0,0.0,0.0,0.0,0.0,-1.0786,-1.0741,0.0,0.0,0.0,0.0,0.0,0.0,0.0,0.0,0.0,0.0,0.0,0.0,0.0,0.0,-1.0588,-1.0368,0.0,0.0,0.0,0.0,0.0,0.0,0.0,0.0,0.0,0.0,0.0,-1.0038,-1.0038,-1.0038,-1.0038,-1.0038,-1.0038,-1.0038,-1.0038,-1.0038,-1.0081,-1.0154,-1.0234,-1.0362,-1.0674,-1.082,-1.0943,0.0,0.0,0.0,-1.1194,-1.1194,0.0,-1.1194,-1.1194,0.0,0.0,0.0,-1.1194,-1.1194,-1.1194,0.0,0.0,-1.1194,-1.1194,-1.1194,-1.1194,-1.1194,-1.1194,-1.1965,-1.1965,-1.1194,-1.1194,-1.1194,-1.1194,-1.1965,-1.2441,-1.2727,-1.3499,-1.4076,-1.4268,-1.4268,-1.4268,-1.4364,-1.5127,-1.5412,-1.5507,-1.6271,-1.656,-1.656,-1.656,-1.6372,-1.6177,0.0,0.0,0.0,0.0,0.0,0.0,0.0,0.0,0.0,0.0,0.0,0.0,0.0,0.0,0.0,0.0,0.0,0.0,0.0,0.0,0.0,0.0,0.0,0.0,0.0,0.0,0.0,0.0,0.0,0.0,0.0,0.0,0.0,0.0,0.0,0.0,0.0,0.0,0.0,0.0,0.0,0.0,0.0,0.0,0.0,0.0,0.0,0.0,0.0,0.0,0.0,-1.0228,-0.9976,-0.9952,-1.0038,-1.0038,0.0,-1.0038,-1.0038,-1.0038,-1.0038,-1.0038,-1.0038,-1.0008,-1.0225,-1.0343,-1.0499,-1.083,-1.0967,0.0,0.0,0.0,0.0,0.0,0.0,0.0,-1.1194,-1.1194,-1.1194,0.0,-1.1194,0.0,-1.1868,-1.1482,-1.1389,0.0,-1.1482,-1.1194,-1.1194,-1.158,-1.1868,-1.1868,-1.2829,-1.292,-1.1868,-1.1868,-1.1868,-1.1868,-1.292,-1.359,-1.407,-1.4651,-1.5222,-1.5609,0.0,-1.5609,-1.5704,-1.6278,-1.6466,-1.6466,-1.7037,-1.7326,-1.7326,-1.7326,-1.7037,-1.6655,0.0,0.0,0.0,0.0,0.0,0.0,0.0,0.0,0.0,0.0,0.0,0.0,0.0,0.0,0.0,0.0,0.0,0.0,0.0,0.0,0.0,0.0,0.0,0.0,0.0,0.0,0.0,0.0,0.0,0.0,0.0,0.0,0.0,0.0,0.0,0.0,0.0,0.0,0.0,0.0,0.0,0.0,0.0,0.0,0.0,0.0,0.0,0.0,0.0,0.0,-1.0137,-1.0272,-1.01,-1.0013,-1.0038,-1.0038,-1.0038,-1.0038,-1.0038,-1.0038,-1.0038,-1.0038,-1.0038,-1.0105,-1.0258,-1.0447,-1.0641,-1.0886,0.0,-1.1194,-1.1194,0.0,-1.1194,-1.1194,0.0,-1.1194,-1.1194,-1.1194,-1.1194,-1.1194,-1.1292,-1.1678,-1.2441,-1.1868,-1.177,-1.263,-1.1868,-1.1385,-1.1385,-1.2252,-1.2823,-1.3113,-1.3884,-1.3884,-1.3113,-1.3017,-1.292,-1.292,-1.3974,-1.4937,-1.5798,-1.5988,-1.6466,-1.7326,-1.7326,-1.7326,-1.7326,-1.7326,-1.7326,-1.7326,-1.7326,-1.7326,-1.7326,-1.7326,-1.6756,-1.5988,0.0,0.0,0.0,0.0,0.0,0.0,0.0,0.0,0.0,0.0,0.0,0.0,0.0,0.0,0.0,0.0,0.0,0.0,0.0,0.0,0.0,0.0,0.0,0.0,0.0,0.0,0.0,0.0,0.0,0.0,0.0,0.0,0.0,0.0,0.0,0.0,0.0,0.0,0.0,0.0,0.0,0.0,0.0,0.0,0.0,0.0,0.0,0.0,0.0,0.0,-1.0183,-0.9881,-0.9543,-0.9723,-1.0038,-1.0038,-1.0038,-1.0038,-1.0038,-1.0038,-1.0038,-1.0038,-1.0038,-1.0138,-1.0433,-1.0546,0.0,0.0,0.0,-1.1194,-1.1194,-1.1194,0.0,-1.1194,0.0,0.0,0.0,0.0,-1.1194,0.0,0.0,0.0,0.0,0.0,0.0,0.0,0.0,-1.2441,-1.2441,-1.2635,-1.3499,-1.5222,-1.4651,-1.4651,-1.5222,-1.4459,-1.398,-1.4076,-1.5032,-1.5609,-1.5798,-1.6655,-1.7138,-1.7326,-1.7326,0.0,-1.7326,-1.7326,-1.7326,-1.7326,-1.7326,-1.7326,-1.7326,-1.7326,-1.7232,-1.7044,0.0,0.0,0.0,0.0,0.0,0.0,0.0,0.0,0.0,0.0,-1.4249,0.0,0.0,0.0,0.0,0.0,0.0,0.0,0.0,0.0,0.0,0.0,0.0,0.0,0.0,0.0,0.0,0.0,0.0,0.0,0.0,0.0,0.0,0.0,0.0,0.0,0.0,0.0,0.0,0.0,0.0,0.0,0.0,0.0,0.0,0.0,0.0,0.0,0.0,0.0,-1.0234,-0.9826,-0.9658,-0.9784,-1.0038,-1.0038,-1.0038,-1.0038,-1.0038,-1.0038,-1.0038,-1.0038,-1.0038,-1.0148,-1.048,0.0,0.0,0.0,0.0,-1.1194,-1.1194,0.0,0.0,0.0,0.0,0.0,0.0,0.0,0.0,0.0,0.0,0.0,0.0,0.0,0.0,0.0,0.0,-1.3499,-1.3499,-1.407,-1.5026,-1.656,-1.5602,-1.5317,-1.5798,-1.5317,-1.5127,-1.5127,-1.6082,-1.656,-1.656,-1.7037,-1.7326,-1.7326,-1.7326,-1.7326,-1.7326,-1.7326,-1.7326,-1.7326,-1.7326,-1.7326,-1.7326,-1.7326,-1.7326,-1.7326,0.0,0.0,0.0,0.0,0.0,0.0,0.0,0.0,-1.4715,-1.4666,-1.4616,-1.4318,-1.3761,-1.313,0.0,0.0,0.0,0.0,0.0,0.0,0.0,0.0,0.0,0.0,0.0,0.0,0.0,0.0,0.0,0.0,0.0,0.0,0.0,0.0,0.0,0.0,0.0,0.0,0.0,0.0,0.0,0.0,0.0,0.0,0.0,0.0,0.0,0.0,0.0,0.0,-1.0467,-1.0384,-1.0222,-1.0119,-1.0038,-1.0207,-1.012,-1.0038,-1.0038,-1.0038,-1.0038,-1.0038,-1.0038,-1.0148,-1.048,-1.0575,0.0,0.0,-1.1194,-1.1194,-1.1194,0.0,0.0,0.0,0.0,0.0,0.0,0.0,0.0,0.0,0.0,0.0,0.0,0.0,0.0,0.0,0.0,0.0,-1.4651,-1.5609,-1.6466,-1.7232,-1.656,-1.6082,-1.6082,-1.6082,-1.6082,-1.6082,-1.6943,-1.7326,-1.7326,-1.7326,-1.7326,-1.7326,-1.7326,-1.7326,-1.7326,-1.7326,-1.7326,-1.7326,-1.7326,-1.7326,-1.7326,-1.7326,-1.7326,-1.7326,0.0,0.0,0.0,0.0,0.0,0.0,0.0,0.0,-1.4852,-1.4565,-1.4606,-1.4597,-1.4446,-1.3821,0.0,0.0,0.0,0.0,0.0,0.0,0.0,0.0,0.0,0.0,0.0,0.0,0.0,0.0,0.0,0.0,0.0,0.0,0.0,0.0,0.0,0.0,0.0,0.0,0.0,0.0,0.0,0.0,0.0,0.0,0.0,0.0,0.0,0.0,0.0,0.0,0.0,-1.1896,-1.1335,-1.0611,-1.0125,-1.0982,0.0,0.0,-1.0038,-1.0038,-1.0038,-1.0038,-1.0038,-1.0148,-1.048,0.0,0.0,0.0,-1.1194,-1.1194,-1.1194,-1.1194,0.0,0.0,0.0,0.0,0.0,0.0,0.0,0.0,0.0,0.0,0.0,0.0,0.0,0.0,0.0,0.0,-1.5704,-1.6662,-1.7232,-1.7326,-1.7232,-1.7138,-1.7138,-1.7138,-1.7138,-1.7138,-1.7232,-1.7326,-1.7326,-1.7326,-1.7326,-1.7326,-1.7326,-1.7326,0.0,-1.7326,-1.7326,-1.7326,-1.7326,-1.7326,-1.7326,-1.7326,-1.7326,-1.7326,0.0,0.0,0.0,0.0,0.0,0.0,0.0,-1.5245,-1.5186,-1.4951,-1.4775,-1.4597,-1.4258,-1.395,0.0,0.0,0.0,0.0,0.0,0.0,0.0,0.0,0.0,0.0,0.0,0.0,0.0,0.0,0.0,0.0,0.0,0.0,0.0,0.0,0.0,0.0,0.0,0.0,0.0,0.0,0.0,0.0,0.0,0.0,0.0,0.0,0.0,0.0,0.0,0.0,0.0,0.0,-1.2625,-1.1852,0.0,0.0,-1.1068,-1.0636,-1.0125,-1.0038,-1.0038,-1.0038,-1.0038,-1.0148,-1.048,0.0,0.0,-1.1109,-1.1194,-1.1194,-1.1194,-1.1194,-1.1194,0.0,0.0,0.0,0.0,0.0,0.0,0.0,0.0,0.0,0.0,0.0,0.0,0.0,0.0,0.0,-1.6749,-1.7037,-1.7326,-1.7326,-1.7326,-1.7326,-1.7326,-1.7326,-1.7326,-1.7326,-1.7326,-1.7326,-1.7326,-1.7326,-1.7326,-1.7326,-1.7326,-1.7326,0.0,-1.7326,-1.7326,-1.7326,-1.7326,-1.7326,-1.7326,-1.7326,-1.7326,-1.7326,0.0,0.0,0.0,0.0,0.0,0.0,-1.5505,-1.5468,-1.5352,-1.5235,-1.4765,-1.4359,-1.407,-1.389,-1.364,-1.3017,0.0,0.0,0.0,0.0,0.0,0.0,0.0,0.0,0.0,0.0,0.0,0.0,0.0,0.0,0.0,0.0,0.0,0.0,0.0,0.0,0.0,0.0,0.0,0.0,0.0,0.0,0.0,0.0,0.0,0.0,0.0,0.0,0.0,0.0,0.0,0.0,0.0,0.0,0.0,0.0,-1.1322,-1.0809,-1.0212,-1.0038,-1.0038,-1.0038,-1.0038,-1.0148,0.0,0.0,0.0,-1.1109,-1.1194,-1.1194,-1.1194,-1.1194,-1.1194,0.0,0.0,0.0,0.0,0.0,0.0,0.0,0.0,0.0,0.0,0.0,0.0,0.0,0.0,0.0,-1.7326,-1.7326,-1.7326,-1.7326,-1.7326,-1.7326,-1.7326,-1.7326,-1.7326,-1.7326,-1.7326,-1.7326,-1.7326,-1.7326,-1.7326,-1.7326,-1.7326,-1.7326,0.0,-1.7326,-1.7326,-1.7326,-1.7326,-1.7326,-1.7326,-1.7326,-1.7326,-1.7326,0.0,0.0,0.0,0.0,0.0,0.0,0.0,-1.57,-1.5352,-1.5235,-1.4478,-1.401,-1.401,-1.37,-1.339,-1.3042,0.0,0.0,0.0,0.0,0.0,0.0,0.0,0.0,0.0,0.0,0.0,0.0,0.0,0.0,0.0,0.0,0.0,0.0,0.0,0.0,0.0,0.0,0.0,0.0,0.0,0.0,0.0,0.0,0.0,0.0,0.0,0.0,0.0,0.0,0.0,0.0,0.0,0.0,0.0,0.0,-1.1402,-1.0038,-1.0038,-1.0038,-1.0038,-1.0038,-1.0038,-1.0148,0.0,0.0,0.0,-1.1109,-1.1194,-1.1194,-1.1194,-1.1194,-1.1194,-1.1194,-1.1194,0.0,-1.1194,0.0,0.0,0.0,0.0,0.0,0.0,0.0,0.0,0.0,0.0,0.0,-1.7326,-1.7326,-1.7326,-1.7326,-1.7326,-1.7326,-1.7326,-1.7326,-1.7326,-1.7326,-1.7326,-1.7326,-1.7326,-1.7326,-1.7326,-1.7326,-1.7326,-1.7326,0.0,-1.7326,-1.7326,-1.7326,-1.7326,-1.7326,-1.7326,-1.7326,-1.7326,-1.7326,0.0,0.0,0.0,0.0,0.0,0.0,0.0,0.0,-1.5352,-1.5352,-1.4638,-1.3932,-1.3407,-1.3459,-1.339,-1.3042,0.0,0.0,0.0,0.0,0.0,0.0,0.0,0.0,0.0,0.0,0.0,0.0,0.0,0.0,0.0,0.0,0.0,0.0,0.0,0.0,0.0,0.0,0.0,0.0,0.0,0.0,0.0,0.0,0.0,0.0,0.0,0.0,0.0,0.0,0.0,0.0,0.0,0.0,0.0,0.0,0.0,0.0,-1.0125,-1.0038,-1.0038,-1.0038,-1.0064,-1.0244,-1.0513,0.0,0.0,-1.1142,-1.1194,-1.1194,-1.1194,-1.1194,-1.1194,-1.1194,-1.1194,-1.1194,0.0,0.0,0.0,0.0,0.0,0.0,0.0,0.0,0.0,0.0,0.0,0.0,-1.7326,-1.7326,-1.7326,-1.7326,-1.7326,-1.7326,-1.7326,-1.7326,-1.7326,-1.7326,-1.7326,-1.7326,-1.7326,-1.7326,-1.7326,-1.7326,-1.7326,-1.7326,-1.7326,-1.7326,-1.7326,-1.7326,-1.7326,-1.7326,-1.7326,-1.7326,-1.7326,-1.7326,0.0,0.0,0.0,0.0,0.0,0.0,0.0,0.0,-1.5352,-1.5177,-1.4341,-1.3571,-1.3042,-1.3094,-1.3103,-1.2867,0.0,0.0,0.0,0.0,0.0,0.0,0.0,0.0,0.0,0.0,0.0,0.0,0.0,0.0,0.0,0.0,0.0,0.0,0.0,0.0,0.0,0.0,0.0,0.0,0.0,0.0,-1.3164,0.0,0.0,0.0,0.0,0.0,0.0,0.0,0.0,0.0,0.0,0.0,0.0,0.0,-1.1488,0.0,0.0,-1.0038,-1.0038,-1.0038,-1.0116,0.0,0.0,0.0,0.0,0.0,-1.1194,-1.1194,-1.1194,-1.1194,-1.1194,-1.1194,-1.1194,-1.1292,0.0,0.0,0.0,0.0,0.0,0.0,0.0,0.0,0.0,0.0,0.0,0.0,-1.7326,-1.7326,-1.7326,-1.7326,-1.7326,-1.7326,-1.7326,-1.7326,-1.7326,-1.7326,-1.7326,-1.7326,-1.7326,-1.7326,-1.7326,-1.7326,-1.7326,-1.7326,0.0,-1.7326,-1.7326,-1.7326,-1.7326,-1.7326,-1.7326,-1.7326,-1.7326,-1.7326,0.0,0.0,0.0,0.0,0.0,0.0,0.0,0.0,0.0,0.0,0.0,-1.2981,-1.2981,-1.2744,0.0,0.0,0.0,0.0,0.0,0.0,0.0,0.0,0.0,0.0,0.0,0.0,0.0,-1.2621,-1.2621,-1.2621,-1.2621,0.0,0.0,0.0,0.0,0.0,0.0,0.0,0.0,0.0,0.0,0.0,0.0,0.0,0.0,0.0,0.0,0.0,0.0,0.0,0.0,0.0,0.0,0.0,0.0,0.0,0.0,0.0,0.0,0.0,0.0,0.0,0.0,0.0,0.0,0.0,0.0,0.0,0.0,0.0,0.0,-1.1194,-1.1194,-1.1194,-1.1194,-1.158,0.0,0.0,0.0,0.0,0.0,0.0,0.0,0.0,0.0,0.0,0.0,0.0,-1.7326,-1.7326,-1.7326,-1.7326,-1.7326,-1.7326,-1.7326,-1.7326,-1.7326,-1.7326,-1.7326,-1.7326,-1.7326,-1.7326,-1.7326,0.0,-1.7326,-1.7326,-1.7326,-1.7326,-1.7326,-1.7326,-1.7326,-1.7333,-1.7333,-1.7333,-1.7333,-1.7333,0.0,0.0,0.0,0.0,0.0,0.0,0.0,0.0,0.0,0.0,0.0,-1.2928,-1.2744,-1.2805,0.0,0.0,0.0,0.0,0.0,0.0,0.0,0.0,0.0,0.0,0.0,0.0,0.0,-1.2621,-1.2621,-1.2621,-1.2621,-1.2621,0.0,0.0,0.0,0.0,0.0,0.0,0.0,0.0,0.0,0.0,0.0,0.0,0.0,0.0,-0.9008,-0.8856,0.0,0.0,0.0,0.0,0.0,0.0,0.0,0.0,-1.0636,-1.0038,-1.0038,0.0,-1.0081,-1.0159,0.0,0.0,0.0,0.0,0.0,0.0,0.0,0.0,0.0,0.0,-1.1194,-1.1194,-1.1194,-1.158,0.0,0.0,0.0,0.0,0.0,0.0,0.0,0.0,0.0,0.0,0.0,-1.7326,-1.7326,-1.7326,-1.7326,-1.7326,-1.7326,-1.7326,-1.7326,-1.7326,-1.7326,-1.7326,-1.7326,-1.7326,-1.7326,-1.7326,-1.7326,-1.7326,-1.7326,-1.7326,-1.7333,-1.7527,-1.7628,-1.7621,-1.7807,-1.7893,-1.7893,-1.7893,-1.7893,-1.7893,0.0,0.0,0.0,0.0,0.0,0.0,0.0,0.0,0.0,0.0,0.0,0.0,0.0,0.0,0.0,0.0,0.0,0.0,0.0,0.0,0.0,0.0,0.0,0.0,0.0,0.0,0.0,0.0,0.0,-1.2621,0.0,0.0,0.0,0.0,0.0,0.0,0.0,0.0,0.0,0.0,-1.2739,0.0,0.0,0.0,0.0,0.0,-0.878,-0.8765,0.0,-0.9091,-0.9624,-1.0248,0.0,0.0,0.0,0.0,-1.0381,-1.0038,-1.0038,-1.0038,-1.009,-1.022,-1.0423,-1.0631,0.0,0.0,0.0,0.0,0.0,0.0,0.0,0.0,0.0,0.0,-1.2349,0.0,0.0,0.0,0.0,0.0,0.0,0.0,0.0,0.0,0.0,0.0,0.0,-1.7326,-1.7326,-1.7326,-1.7326,-1.7326,-1.7326,-1.7326,-1.7326,-1.7326,-1.7326,-1.7326,-1.7426,-1.752,-1.752,-1.752,-1.752,-1.752,-1.752,-1.752,-1.7527,-1.7807,-1.7908,-1.7908,-1.7994,-1.8087,-1.8087,-1.8087,-1.8087,-1.8087,0.0,0.0,0.0,0.0,0.0,0.0,0.0,0.0,0.0,0.0,0.0,0.0,0.0,0.0,0.0,0.0,0.0,0.0,0.0,0.0,0.0,0.0,0.0,0.0,0.0,0.0,0.0,0.0,0.0,0.0,0.0,0.0,-1.256,0.0,0.0,0.0,0.0,0.0,0.0,0.0,-1.1781,0.0,0.0,0.0,0.0,0.0,0.0,0.0,0.0,-0.9256,-0.9469,-0.9682,-0.9889,0.0,0.0,0.0,0.0,0.0,-1.0038,-1.0038,-1.01,-1.0258,-1.0475,-1.0679,0.0,0.0,0.0,0.0,0.0,0.0,0.0,0.0,0.0,0.0,0.0,0.0,0.0,0.0,0.0,0.0,0.0,0.0,0.0,0.0,0.0,0.0,0.0,-1.7326,-1.7326,-1.7326,-1.7326,-1.7326,-1.7326,-1.7326,-1.7326,-1.7326,-1.7326,-1.7333,-1.7628,-1.7721,-1.7721,-1.7721,-1.7721,-1.7721,0.0,0.0,-1.7815,-1.8094,-1.8179,-1.8179,-1.8179,-1.8179,-1.8179,-1.8179,-1.8179,-1.8179,0.0,0.0,0.0,0.0,0.0,0.0,0.0,0.0,0.0,0.0,0.0,0.0,0.0,0.0,0.0,0.0,0.0,0.0,0.0,0.0,0.0,0.0,0.0,0.0,0.0,0.0,0.0,0.0,0.0,0.0,-1.2367,-1.2367,-1.2305,0.0,0.0,0.0,-1.2796,-1.1894,-1.1404,-1.1186,-1.0887,0.0,0.0,0.0,0.0,0.0,0.0,0.0,0.0,-0.9256,-0.9469,-0.9682,-0.9889,0.0,0.0,0.0,0.0,0.0,-1.0038,-1.0038,-1.0133,-1.0433,-1.0688,-1.0901,0.0,0.0,0.0,0.0,0.0,0.0,0.0,0.0,0.0,0.0,0.0,0.0,0.0,0.0,0.0,0.0,0.0,0.0,0.0,0.0,0.0,0.0,0.0,-1.7326,-1.7326,-1.7326,-1.7326,-1.7326,-1.7326,-1.7326,-1.7326,-1.7326,-1.7426,-1.7628,-1.7721,-1.7815,-1.7994,-1.7994,-1.7994,-1.7994,0.0,-1.7994,-1.8087,-1.8288,-1.8481,-1.8473,-1.8651,-1.8735,-1.8735,-1.8735,-1.8735,-1.8735,0.0,0.0,0.0,0.0,0.0,0.0,0.0,0.0,0.0,0.0,0.0,0.0,0.0,0.0,0.0,0.0,0.0,0.0,0.0,0.0,0.0,0.0,0.0,0.0,0.0,0.0,0.0,0.0,0.0,-1.2367,-1.2182,-1.2182,-1.2182,-1.2065,0.0,0.0,-1.2743,-1.2358,-1.1761,-1.1111,0.0,0.0,0.0,0.0,0.0,0.0,0.0,0.0,0.0,0.0,-0.9639,-0.9828,-0.9923,0.0,0.0,0.0,0.0,0.0,-1.0038,-1.0548,-1.122,-1.1339,-1.1472,-1.164,0.0,0.0,0.0,0.0,0.0,0.0,0.0,0.0,0.0,0.0,0.0,0.0,0.0,0.0,0.0,0.0,0.0,0.0,0.0,0.0,0.0,0.0,0.0,0.0,-1.7326,-1.7326,-1.7326,-1.7326,-1.7326,-1.7333,-1.7527,-1.7527,-1.7621,-1.7721,-1.8009,-1.8195,-1.8288,-1.8288,-1.8288,-1.8288,0.0,-1.8288,-1.8288,-1.8558,-1.8651,-1.8658,-1.8735,-1.8827,-1.8827,-1.8827,-1.8827,-1.8827,0.0,0.0,0.0,0.0,0.0,0.0,0.0,0.0,0.0,0.0,0.0,0.0,0.0,0.0,0.0,0.0,0.0,0.0,0.0,0.0,0.0,0.0,0.0,0.0,0.0,0.0,-1.2127,-1.2127,-1.2182,-1.2182,-1.2058,-1.1996,-1.2041,0.0,0.0,0.0,-1.2862,-1.276,-1.2175,-1.1335,0.0,0.0,0.0,0.0,0.0,0.0,0.0,0.0,0.0,0.0,0.0,0.0,0.0,0.0,0.0,-1.0038,-1.0038,-1.0047,-1.01,-1.0875,-1.1699,0.0,0.0,0.0,0.0,0.0,0.0,0.0,0.0,0.0,0.0,0.0,0.0,0.0,0.0,0.0,0.0,0.0,0.0,0.0,0.0,0.0,0.0,0.0,0.0,0.0,0.0,0.0,-1.7326,-1.7326,-1.7326,-1.7326,-1.7326,-1.7426,-1.7721,-1.7721,-1.7822,-1.7916,-1.8288,-1.8481,-1.8566,-1.8566,-1.8566,-1.8566,-1.8566,-1.8566,-1.8574,-1.8743,-1.8827,-1.8827,-1.8827,-1.8827,-1.8827,-1.8827,-1.8827,-1.8827,0.0,0.0,0.0,0.0,0.0,0.0,0.0,0.0,0.0,0.0,0.0,0.0,0.0,0.0,0.0,0.0,0.0,0.0,0.0,0.0,0.0,0.0,0.0,0.0,0.0,-1.1996,-1.2127,-1.2127,-1.2127,-1.1996,-1.1802,-1.1685,-1.1777,-1.1999,0.0,0.0,-1.2902,-1.2212,-1.2031,-1.215,-1.1409,0.0,0.0,0.0,0.0,0.0,0.0,0.0,0.0,0.0,0.0,0.0,0.0,0.0,-1.0038,-1.0038,-1.0038,-1.0086,-1.0197,-1.0362,-1.0476,-1.0867,0.0,0.0,0.0,0.0,0.0,0.0,0.0,0.0,0.0,0.0,0.0,0.0,0.0,0.0,0.0,0.0,0.0,0.0,0.0,0.0,0.0,0.0,0.0,0.0,0.0,0.0,-1.7326,-1.7326,-1.7326,-1.7326,-1.7326,-1.7426,-1.7721,-1.7908,-1.8187,-1.8481,-1.8481,-1.8566,-1.8735,-1.8735,-1.8735,-1.8735,-1.8735,-1.8735,-1.8735,-1.8827,-1.8827,-1.8827,-1.8827,-1.8827,-1.8827,-1.8827,-1.8827,-1.8827,0.0,0.0,0.0,0.0,0.0,0.0,0.0,0.0,0.0,0.0,0.0,0.0,0.0,0.0,0.0,0.0,0.0,0.0,0.0,0.0,0.0,0.0,0.0,-1.1685,-1.1685,-1.1747,-1.1809,-1.1809,-1.1809,-1.1809,-1.1802,-1.1685,0.0,0.0,0.0,0.0,-1.3023,-1.2928,-1.2642,-1.2305,-1.2003,-1.1335,0.0,0.0,0.0,0.0,0.0,0.0,0.0,0.0,-1.0225,0.0,0.0,0.0,-1.0038,-1.0038,-1.0381,-1.0686,-1.0394,-1.17,0.0,0.0,0.0,0.0,0.0,0.0,0.0,0.0,0.0,0.0,0.0,0.0,0.0,0.0,0.0,0.0,0.0,0.0,0.0,0.0,0.0,0.0,0.0,0.0,0.0,0.0,0.0,0.0,-1.7527,-1.7426,-1.7426,-1.7527,-1.7527,-1.7714,-1.7908,-1.8187,-1.8465,-1.8651,-1.8651,-1.8743,-1.8827,-1.8827,-1.8827,-1.8827,-1.8827,-1.8827,-1.8827,-1.8827,-1.8827,-1.8827,-1.8827,-1.8827,-1.8827,-1.8827,-1.8827,-1.8827,0.0,0.0,0.0,0.0,0.0,0.0,0.0,0.0,0.0,0.0,0.0,0.0,0.0,0.0,0.0,0.0,0.0,0.0,0.0,0.0,0.0,0.0,0.0,-1.1622,-1.1622,-1.1622,-1.1622,-1.1622,-1.1622,-1.1622,-1.1747,0.0,0.0,0.0,0.0,0.0,0.0,-1.3404,-1.32,-1.2673,-1.2673,-1.2003,0.0,0.0,0.0,0.0,0.0,0.0,0.0,0.0,0.0,0.0,0.0,0.0,0.0,0.0,0.0,0.0,-1.1358,-1.2901,0.0,0.0,0.0,0.0,0.0,0.0,0.0,0.0,0.0,0.0,0.0,0.0,0.0,0.0,0.0,0.0,0.0,0.0,0.0,0.0,0.0,0.0,0.0,0.0,0.0,0.0,0.0,0.0,0.0,-1.7527,-1.7527,-1.7815,-1.7815,-1.8001,-1.8187,-1.8381,-1.8566,-1.8827,-1.8827,-1.8827,-1.8827,-1.8827,-1.8827,-1.8827,-1.8827,-1.8827,-1.8827,-1.8827,-1.8827,-1.8827,-1.8827,-1.8827,-1.8827,-1.8827,-1.8827,-1.8827,0.0,0.0,0.0,0.0,0.0,0.0,0.0,0.0,0.0,0.0,0.0,0.0,0.0,0.0,0.0,0.0,0.0,0.0,0.0,0.0,0.0,0.0,0.0,-1.1747,-1.1622,-1.1622,-1.1622,-1.1622,-1.1622,-1.1622,-1.1637,-1.1889,0.0,0.0,0.0,0.0,0.0,0.0,-1.3492,-1.3492,-1.3492,-1.2526,-1.1186,0.0,0.0,0.0,0.0,0.0,0.0,0.0,0.0,0.0,0.0,0.0,0.0,0.0,-1.2674,-1.2795,-1.3338,0.0,0.0,0.0,0.0,0.0,0.0,0.0,0.0,0.0,0.0,0.0,0.0,0.0,0.0,0.0,0.0,0.0,0.0,0.0,0.0,0.0,0.0,0.0,0.0,0.0,0.0,0.0,0.0,0.0,0.0,-1.7721,-1.7815,-1.8087,-1.8087,-1.828,-1.8481,-1.8481,-1.8658,-1.8827,-1.8827,-1.8827,-1.8827,-1.8827,-1.8827,-1.8827,-1.8827,-1.8827,-1.8827,-1.8827,-1.8827,-1.8827,-1.8827,-1.8827,-1.8827,-1.8827,-1.8827,-1.8827,0.0,0.0,0.0,0.0,0.0,0.0,0.0,0.0,0.0,0.0,0.0,0.0,0.0,0.0,0.0,0.0,0.0,0.0,0.0,0.0,0.0,0.0,0.0,0.0,0.0,0.0,-1.1622,-1.1622,-1.1622,-1.1677,0.0,0.0,0.0,-1.287,0.0,0.0,0.0,0.0,-1.3492,-1.3419,-1.29,-1.2378,-1.1948,0.0,0.0,0.0,0.0,0.0,0.0,0.0,0.0,0.0,0.0,0.0,0.0,-1.2674,-1.3328,-1.3915,-1.3572,0.0,0.0,0.0,0.0,0.0,0.0,0.0,0.0,0.0,0.0,0.0,0.0,0.0,0.0,0.0,0.0,0.0,0.0,0.0,0.0,0.0,0.0,0.0,0.0,0.0,0.0,0.0,0.0,0.0,0.0,-1.7994,-1.8094,-1.8381,-1.8381,-1.8743,-1.9455,-1.9629,-2.0175,-2.0799,-2.0799,-2.0529,-1.9803,-1.9096,-1.918,-1.9812,-1.9096,-1.8827,-1.8827,-1.8827,-1.8827,-1.8827,-1.8827,-1.8827,-1.8827,-1.8827,-1.8827,-1.8827,0.0,0.0,0.0,0.0,0.0,0.0,0.0,0.0,0.0,0.0,0.0,0.0,0.0,0.0,0.0,0.0,0.0,0.0,0.0,0.0,0.0,0.0,0.0,0.0,0.0,-1.1622,-1.156,0.0,0.0,0.0,0.0,0.0,0.0,-1.3016,0.0,-1.3309,0.0,0.0,-1.3492,-1.3492,-1.2973,-1.2674,-1.2498,0.0,0.0,0.0,0.0,0.0,0.0,0.0,0.0,0.0,0.0,0.0,0.0,-1.3789,-1.4347,-1.4998,0.0,0.0,0.0,0.0,0.0,0.0,0.0,0.0,0.0,0.0,0.0,0.0,0.0,0.0,0.0,0.0,0.0,0.0,0.0,0.0,0.0,0.0,0.0,0.0,0.0,0.0,0.0,0.0,0.0,0.0,0.0,-1.8179,-1.8381,-1.8566,-1.9012,-1.9455,-2.0068,-2.0619,-2.115,-2.1695,-2.1695,-2.1596,-2.1409,-2.0439,-2.0257,-2.0791,-2.0257,-1.972,-1.9363,-1.9363,-1.9188,-1.8827,-1.8827,-1.8827,-1.8827,-1.8827,-1.8827,-1.8827,0.0,0.0,0.0,0.0,0.0,0.0,0.0,0.0,0.0,0.0,0.0,0.0,0.0,0.0,0.0,0.0,0.0,0.0,0.0,0.0,0.0,0.0,0.0,0.0,0.0,0.0,0.0,0.0,0.0,0.0,0.0,0.0,-1.2738,-1.3067,0.0,-1.3492,0.0,-1.3492,-1.3492,-1.3499,-1.3455,-1.3184,-1.2829,-1.2806,0.0,0.0,0.0,0.0,0.0,0.0,0.0,0.0,0.0,0.0,0.0,-1.5467,-1.5701,-1.6023,0.0,0.0,0.0,0.0,0.0,0.0,0.0,0.0,0.0,0.0,0.0,0.0,0.0,0.0,0.0,0.0,0.0,0.0,0.0,0.0,0.0,0.0,0.0,0.0,0.0,0.0,0.0,0.0,0.0,0.0,0.0,-1.8558,-1.8743,-1.9096,-1.9985,-2.043,-2.052,-2.1418,-2.1872,-2.1961,-2.1961,-2.2403,-2.3193,-2.2138,-2.1695,-2.1695,-2.1695,-2.1159,-2.0339,-2.0339,-1.972,-1.8827,-1.8827,-1.8827,-1.8827,-1.8827,-1.8827,-1.8827,0.0,0.0,0.0,0.0,0.0,0.0,0.0,0.0,0.0,0.0,0.0,0.0,0.0,0.0,0.0,0.0,0.0,0.0,0.0,0.0,0.0,0.0,0.0,0.0,0.0,0.0,0.0,0.0,0.0,0.0,0.0,0.0,0.0,-1.3397,0.0,-1.3492,-1.3492,-1.3492,-1.3492,-1.3441,-1.3091,-1.292,-1.2792,-1.2529,-1.2851,0.0,0.0,0.0,0.0,0.0,0.0,0.0,-1.5431,-1.5431,-1.5474,-1.5738,-1.603,0.0,0.0,0.0,0.0,0.0,0.0,0.0,0.0,0.0,0.0,0.0,0.0,0.0,0.0,0.0,0.0,0.0,0.0,0.0,0.0,0.0,0.0,0.0,0.0,0.0,0.0,0.0,0.0,0.0,0.0,0.0,-1.9438,-1.9812,-2.0257,-2.1069,-2.1248,-2.1774,-2.2473,-2.2746,-2.3193,-2.3917,-2.3917,-2.4003,-2.4176,-2.2492,-2.1695,-2.1695,-2.1695,-2.1159,-2.0339,-2.0339,-1.972,-1.8827,-1.8827,-1.8827,-1.8827,-1.8827,-1.8827,-1.8827,0.0,0.0,0.0,0.0,0.0,0.0,0.0,0.0,0.0,0.0,0.0,0.0,0.0,0.0,0.0,0.0,0.0,0.0,0.0,0.0,0.0,0.0,0.0,0.0,0.0,0.0,0.0,0.0,0.0,0.0,0.0,0.0,0.0,-1.29,0.0,-1.29,-1.2973,-1.3346,-1.3359,-1.3212,-1.3299,-1.3544,-1.3759,-1.3662,-1.3954,-1.4524,-1.4685,0.0,0.0,0.0,0.0,0.0,0.0,0.0,-1.5496,-1.5818,-1.6133,-1.644,0.0,0.0,0.0,0.0,0.0,0.0,0.0,0.0,0.0,0.0,0.0,0.0,0.0,0.0,0.0,0.0,0.0,0.0,0.0,0.0,0.0,0.0,0.0,0.0,0.0,0.0,0.0,0.0,0.0,-1.9438,-2.0503,-2.0782,-2.115,-2.1695,-2.2129,-2.257,-2.3096,-2.3551,-2.4003,-2.454,-2.454,-2.454,-2.4454,-2.3474,-2.3028,-2.3028,-2.3028,-2.2492,-2.1587,-2.115,-2.0439,-1.9446,-1.9004,-1.8827,-1.8827,-1.8827,-1.8827,-1.8827,0.0,0.0,0.0,0.0,0.0,0.0,0.0,0.0,0.0,0.0,0.0,0.0,0.0,0.0,0.0,0.0,0.0,0.0,0.0,0.0,0.0,0.0,0.0,0.0,0.0,0.0,0.0,0.0,0.0,0.0,0.0,0.0,0.0,-1.2305,0.0,0.0,-1.2526,-1.3046,-1.3149,-1.3058,-1.3813,-1.4421,-1.4867,-1.4925,-1.5196,-1.5431,-1.5431,-1.5431,-1.5431,-1.5431,0.0,0.0,0.0,0.0,-1.5577,-1.5899,-1.6213,-1.6521,0.0,0.0,0.0,0.0,0.0,0.0,0.0,0.0,0.0,0.0,0.0,0.0,0.0,0.0,0.0,0.0,0.0,0.0,0.0,0.0,0.0,0.0,0.0,0.0,0.0,0.0,0.0,0.0,0.0,-2.0593,-2.156,-2.1854,-2.205,-2.2138,-2.2931,-2.3367,-2.3367,-2.409,-2.454,-2.454,-2.454,-2.454,-2.454,-2.454,-2.454,-2.454,-2.454,-2.4003,-2.3008,-2.205,-2.1248,-2.0439,-1.9279,-1.892,-1.9004,-1.8827,-1.8827,-1.8827,0.0,0.0,0.0,0.0,0.0,0.0,0.0,0.0,0.0,0.0,0.0,0.0,0.0,0.0,0.0,0.0,0.0,0.0,-0.7521,0.0,0.0,-0.849,-0.9198,0.0,0.0,0.0,0.0,0.0,0.0,0.0,0.0,0.0,0.0,0.0,0.0,0.0,0.0,-1.2673,-1.3,-1.3852,-1.4289,-1.4618,-1.4896,-1.5255,-1.5394,-1.5431,-1.5431,-1.5431,-1.5431,-1.5431,-1.5431,0.0,0.0,0.0,-1.5913,-1.6213,-1.6535,0.0,0.0,0.0,0.0,0.0,0.0,0.0,0.0,0.0,0.0,0.0,0.0,0.0,0.0,0.0,0.0,0.0,0.0,0.0,0.0,0.0,0.0,0.0,0.0,0.0,0.0,0.0,0.0,0.0,-2.1025,-2.1658,-2.2824,-2.2921,-2.328,-2.41,-2.4272,-2.4272,-2.4272,-2.4454,-2.454,-2.454,-2.454,-2.454,-2.454,-2.454,-2.454,-2.454,-2.454,-2.4003,-2.3008,-2.205,-2.1606,-2.1338,-1.9546,-1.9363,-1.9985,-1.9096,-1.8827,-1.8827,0.0,0.0,0.0,0.0,0.0,0.0,0.0,0.0,0.0,0.0,0.0,0.0,0.0,0.0,0.0,-0.8517,-0.8182,-0.7852,-0.7526,-0.7782,-0.7912,-0.7912,-0.8554,-0.9068,0.0,0.0,0.0,0.0,0.0,0.0,0.0,-1.1929,-1.2305,0.0,0.0,0.0,0.0,0.0,0.0,0.0,-1.4446,-1.4926,-1.5233,-1.5372,-1.5431,-1.5431,-1.5431,-1.5431,-1.5431,-1.5431,-1.5431,-1.546,-1.5643,0.0,0.0,0.0,-1.674,0.0,0.0,0.0,0.0,0.0,0.0,0.0,0.0,0.0,0.0,0.0,0.0,0.0,0.0,0.0,0.0,0.0,0.0,0.0,0.0,0.0,0.0,0.0,0.0,0.0,0.0,0.0,0.0,0.0,-2.2189,-2.2736,-2.382,-2.3907,-2.409,-2.4454,-2.454,-2.454,-2.454,-2.454,-2.454,-2.454,-2.454,-2.454,-2.454,-2.454,-2.454,-2.454,-2.454,-2.4272,-2.382,-2.2843,-2.2482,-2.2306,-2.0439,-1.9894,-2.0158,-1.918,-1.8827,-1.8827,0.0,0.0,0.0,0.0,0.0,0.0,0.0,0.0,0.0,0.0,0.0,0.0,0.0,0.0,0.0,0.0,-0.8182,-0.7852,-0.7526,-0.7521,-0.7521,-0.7521,-0.8032,-0.8398,-0.8493,0.0,0.0,0.0,0.0,0.0,-0.9922,-1.1335,-1.1558,0.0,-1.1186,0.0,0.0,0.0,0.0,0.0,0.0,0.0,0.0,0.0,-1.5431,-1.5431,-1.5431,-1.5431,-1.5438,-1.5526,-1.5555,-1.5606,-1.5928,-1.6089,0.0,0.0,0.0,0.0,0.0,0.0,0.0,0.0,0.0,0.0,0.0,0.0,0.0,0.0,0.0,0.0,0.0,0.0,0.0,0.0,0.0,0.0,0.0,0.0,0.0,0.0,0.0,0.0,0.0,0.0,0.0,0.0,-2.3367,-2.3734,-2.4454,-2.454,-2.454,-2.454,-2.454,-2.454,-2.454,-2.454,-2.454,-2.454,-2.454,-2.454,-2.454,-2.454,-2.454,-2.454,-2.454,-2.454,-2.4454,-2.3464,-2.327,-2.328,-2.1418,-2.0791,-2.0872,-1.9903,-1.9546,-1.9455,0.0,0.0,0.0,0.0,0.0,0.0,0.0,0.0,0.0,0.0,0.0,0.0,0.0,-0.9215,-0.8894,-0.8517,-0.8182,-0.7852,-0.7526,-0.7521,-0.7521,-0.7521,-0.7722,0.0,-0.8498,0.0,0.0,0.0,0.0,0.0,-0.9916,-1.0738,-1.0738,-0.9992,-1.1558,-1.2458,-1.2802,0.0,0.0,0.0,0.0,0.0,0.0,0.0,0.0,0.0,0.0,-1.5431,-1.5474,-1.5789,-1.5891,-1.5943,-1.625,-1.6557,-1.6813,0.0,0.0,0.0,0.0,0.0,0.0,0.0,0.0,0.0,0.0,0.0,0.0,0.0,0.0,0.0,0.0,0.0,0.0,0.0,0.0,0.0,0.0,0.0,0.0,0.0,0.0,0.0,0.0,0.0,0.0,0.0,-2.4454,-2.4454,-2.454,-2.454,-2.454,-2.454,-2.454,-2.454,-2.454,-2.454,-2.454,-2.454,-2.454,-2.454,-2.454,-2.454,-2.454,-2.454,-2.454,-2.454,-2.4454,-2.3464,-2.3637,-2.4272,-2.2403,-2.2129,-2.2833,-2.1863,-2.1516,-2.1427,0.0,0.0,0.0,0.0,0.0,0.0,0.0,0.0,0.0,0.0,0.0,0.0,0.0,-0.9402,-0.8894,-0.8517,-0.7987,-0.7652,-0.7521,-0.7655,-0.7664,-0.7664,-0.7862,-0.8108,-0.8241,-0.9037,0.0,0.0,0.0,-0.9539,-0.916,-0.9986,-0.9916,-0.9241,-1.0977,-1.2101,-1.2772,-1.2587,0.0,0.0,0.0,0.0,0.0,0.0,0.0,0.0,0.0,0.0,-1.576,-1.5877,-1.6045,-1.6265,-1.6579,-1.6762,-1.6894,-1.7099,-1.7238,-1.7419,0.0,0.0,0.0,0.0,0.0,0.0,0.0,0.0,0.0,0.0,0.0,0.0,0.0,0.0,0.0,0.0,0.0,0.0,0.0,0.0,0.0,0.0,0.0,0.0,0.0,0.0,0.0,0.0,0.0,-2.454,-2.454,-2.454,-2.454,-2.454,-2.454,-2.454,-2.454,-2.454,-2.454,-2.454,-2.454,-2.454,-2.454,-2.454,-2.454,-2.454,-2.454,-2.454,-2.4454,-2.4176,-2.4186,-2.4368,-2.3105,-2.2833,-2.3008,-2.205,-2.1338,-2.0791,0.0,0.0,0.0,0.0,0.0,0.0,0.0,0.0,0.0,0.0,0.0,0.0,0.0,0.0,-0.8992,-0.8624,-0.7966,-0.766,-0.7726,-0.7801,-0.7881,-0.7881,-0.808,-0.8187,-0.8111,-0.8836,0.0,0.0,0.0,0.0,0.0,0.0,-0.9504,-0.8894,-1.0423,0.0,0.0,0.0,0.0,-1.5042,0.0,0.0,-1.5438,0.0,0.0,0.0,0.0,0.0,0.0,-1.6191,-1.6367,-1.6587,-1.6916,-1.7011,-1.7055,-1.7267,-1.7326,-1.7419,-1.8149,0.0,0.0,0.0,0.0,0.0,0.0,0.0,0.0,0.0,0.0,0.0,0.0,0.0,0.0,0.0,0.0,0.0,0.0,0.0,0.0,0.0,0.0,0.0,0.0,0.0,0.0,0.0,0.0,0.0,-2.454,-2.454,-2.454,-2.454,-2.454,-2.454,-2.454,-2.454,-2.454,-2.454,-2.454,-2.454,-2.454,-2.454,-2.454,-2.454,-2.454,-2.454,-2.454,-2.454,-2.454,-2.4454,-2.382,-2.3551,-2.3464,-2.2853,-2.2217,-2.1596,0.0,0.0,0.0,0.0,0.0,0.0,0.0,0.0,0.0,0.0,0.0,0.0,0.0,0.0,0.0,-0.8912,-0.8263,-0.7941,-0.8136,-0.8155,-0.816,-0.816,-0.837,-0.8415,-0.8194,-0.8411,0.0,0.0,0.0,0.0,0.0,0.0,-0.9597,0.0,-1.0028,-1.1094,-1.2074,0.0,-1.3387,-1.534,0.0,-1.4657,-1.5467,0.0,0.0,0.0,-1.6265,-1.6374,0.0,-1.6748,0.0,0.0,0.0,-1.7326,-1.7326,-1.7326,-1.7326,-1.7326,0.0,0.0,0.0,0.0,0.0,0.0,0.0,0.0,0.0,0.0,0.0,0.0,0.0,0.0,0.0,0.0,0.0,0.0,0.0,0.0,0.0,0.0,0.0,0.0,0.0,0.0,0.0,0.0,-2.454,-2.454,-2.454,-2.454,-2.454,-2.454,-2.454,-2.454,-2.454,-2.454,-2.454,-2.454,-2.454,-2.454,-2.454,-2.454,-2.454,-2.454,-2.454,-2.454,-2.454,-2.454,-2.454,-2.454,-2.454,-2.454,-2.454,-2.454,-2.4454,-2.4186,0.0,0.0,0.0,0.0,0.0,0.0,0.0,0.0,0.0,0.0,0.0,0.0,0.0,0.0,-1.067,-1.0405,-0.9449,-0.9136,-0.9823,-0.9428,-0.9448,-1.0022,-1.0273,-1.0336,-1.0261,-1.0336,-1.0364,0.0,0.0,0.0,0.0,0.0,0.0,0.0,-1.06,-1.1436,-1.228,-1.1798,0.0,0.0,-1.4482,-1.4657,0.0,0.0,0.0,0.0,0.0,-1.6521,-1.6823,0.0,-1.7011,-1.7216,0.0,0.0,0.0,-1.7326,-1.7326,-1.7326,-1.7326,0.0,0.0,0.0,0.0,0.0,0.0,0.0,0.0,0.0,0.0,0.0,0.0,0.0,0.0,0.0,0.0,0.0,0.0,0.0,0.0,0.0,0.0,0.0,0.0,0.0,0.0,0.0,-2.454,-2.454,-2.454,-2.454,-2.454,-2.454,-2.454,-2.454,-2.454,-2.454,-2.454,-2.454,-2.454,-2.454,-2.454,-2.454,-2.454,-2.454,-2.454,-2.454,-2.454,-2.454,-2.454,-2.454,-2.454,-2.454,-2.454,-2.454,-2.409,-2.3367,0.0,0.0,0.0,0.0,0.0,0.0,0.0,0.0,0.0,0.0,0.0,0.0,0.0,0.0,0.0,-1.1368,-1.0266,-0.9959,-1.0848,-1.0132,-1.007,-1.087,-1.073,-1.0594,-1.0594,-1.0187,-1.0187,0.0,0.0,0.0,0.0,0.0,0.0,0.0,0.0,0.0,0.0,0.0,0.0,0.0,-1.388,0.0,0.0,-1.5979,-1.6191,0.0,0.0,0.0,-1.7055,-1.7055,-1.7172,0.0,0.0,0.0,0.0,-1.7326,-1.7326,-1.7326,0.0,0.0,0.0,0.0,0.0,0.0,-2.1033,-2.1667,0.0,0.0,0.0,0.0,0.0,0.0,0.0,0.0,0.0,0.0,0.0,0.0,0.0,0.0,0.0,0.0,0.0,-2.454,-2.454,-2.454,-2.454,-2.454,-2.454,-2.454,-2.454,-2.454,-2.454,-2.454,-2.454,-2.454,-2.454,-2.454,-2.454,-2.454,-2.454,-2.454,-2.454,-2.454,-2.454,-2.454,-2.454,-2.454,-2.454,-2.454,-2.454,-2.454,-2.454,-2.454,-2.4176,-2.3637,0.0,0.0,0.0,0.0,0.0,0.0,0.0,0.0,0.0,0.0,0.0,0.0,0.0,0.0,0.0,0.0,-1.0959,-1.0621,-1.1588,-1.0726,-1.0513,-1.1335,-1.0663,-1.0293,-1.0293,-0.9437,-0.9447,-1.0332,0.0,0.0,0.0,0.0,0.0,0.0,0.0,0.0,0.0,0.0,0.0,-1.4095,-1.3234,-1.4097,0.0,0.0,-1.6601,-1.6901,-1.7216,-1.7326,-1.7326,-1.7326,-1.7326,0.0,0.0,0.0,0.0,0.0,-1.7326,0.0,0.0,0.0,0.0,0.0,0.0,0.0,-2.0305,-2.0935,-2.1658,0.0,0.0,0.0,0.0,0.0,0.0,0.0,0.0,0.0,0.0,0.0,0.0,0.0,0.0,0.0,-2.454,-2.454,-2.454,-2.454,-2.454,-2.454,-2.454,-2.454,-2.454,-2.454,-2.454,-2.454,-2.454,-2.454,-2.454,-2.454,-2.454,-2.454,-2.454,-2.454,-2.454,-2.454,-2.454,-2.454,-2.454,-2.454,-2.454,-2.454,-2.454,-2.454,-2.454,-2.454,-2.454,-2.4368,-1.401,0.0,0.0,0.0,0.0,0.0,0.0,0.0,0.0,0.0,0.0,0.0,0.0,0.0,0.0,0.0,-1.2846,-1.259,-1.3258,-1.2526,-1.2378,-1.2973,-1.29,-1.282,-1.282,-1.2858,-1.2982,-1.3195,0.0,0.0,0.0,0.0,0.0,0.0,0.0,0.0,0.0,0.0,0.0,-1.4733,-1.4309,0.0,-1.6316,-1.6638,-1.6799,-1.6901,-1.7216,-1.7326,-1.7326,-1.7326,-1.7326,-1.7326,0.0,0.0,0.0,-1.7326,0.0,0.0,0.0,0.0,0.0,0.0,0.0,0.0,-2.0051,-2.0962,-2.1952,0.0,0.0,0.0,0.0,0.0,0.0,0.0,0.0,0.0,0.0,0.0,0.0,0.0,0.0,0.0,-2.454,-2.454,-2.454,-2.454,-2.454,-2.454,-2.454,-2.454,-2.454,-2.454,-2.454,-2.454,-2.454,-2.454,-2.454,-2.454,-2.454,-2.454,-2.454,-2.454,-2.454,-2.454,-2.454,-2.454,-2.454,-2.454,-2.454,-2.454,-2.454,-2.454,-2.454,-2.454,-2.454,-2.4454,-1.3761,0.0,0.0,0.0,0.0,0.0,0.0,0.0,0.0,0.0,0.0,0.0,0.0,0.0,0.0,0.0,0.0,0.0,0.0,0.0,-1.3266,-1.3889,-1.3804,-1.3582,-1.3438,-1.3271,-1.3347,-1.3677,0.0,0.0,0.0,0.0,0.0,0.0,0.0,0.0,0.0,0.0,-1.5189,-1.5984,-1.5123,0.0,-1.6982,-1.6973,-1.7143,-1.749,-1.7468,-1.7621,-1.7707,-1.7707,-1.7613,0.0,0.0,-1.7426,-1.7326,0.0,-1.7426,-1.7434,0.0,0.0,0.0,-1.7326,0.0,0.0,0.0,-2.0413,-2.1507,0.0,0.0,0.0,0.0,0.0,0.0,0.0,0.0,0.0,0.0,0.0,0.0,0.0,0.0,0.0,-2.454,-2.454,-2.454,-2.454,-2.454,-2.454,-2.454,-2.454,-2.454,-2.454,-2.454,-2.454,-2.454,-2.454,-2.454,-2.454,-2.454,-2.454,-2.454,-2.454,-2.454,-2.454,-2.454,-2.454,-2.454,-2.454,-2.454,-2.454,-2.454,-2.454,-2.454,-2.454,-2.454,-2.454,-1.3786,0.0,0.0,0.0,0.0,0.0,0.0,0.0,0.0,0.0,0.0,0.0,0.0,0.0,0.0,0.0,0.0,0.0,0.0,0.0,0.0,-1.4456,-1.4227,-1.3967,-1.366,-1.322,-1.3247,-1.375,0.0,0.0,0.0,0.0,0.0,0.0,0.0,0.0,0.0,0.0,0.0,-1.7206,0.0,-1.6335,-1.7493,-1.7219,-1.7482,-1.7994,-1.7815,-1.79,-1.8087,-1.7994,-1.79,-1.7721,-1.7628,-1.7707,0.0,0.0,0.0,0.0,0.0,0.0,0.0,0.0,0.0,-1.8172,0.0,0.0,0.0,0.0,0.0,0.0,0.0,0.0,0.0,0.0,0.0,0.0,0.0,0.0,0.0,0.0,0.0,0.0,-2.454,-2.454,-2.454,-2.454,-2.454,-2.454,-2.454,-2.454,-2.454,-2.454,-2.454,-2.454,-2.454,-2.454,-2.454,-2.454,-2.454,-2.454,-2.454,-2.454,-2.454,-2.454,-2.454,-2.454,-2.454,-2.454,-2.454,-2.454,-2.454,-2.454,-2.454,-2.454,-2.454,-2.454,-1.4504,0.0,0.0,0.0,0.0,0.0,0.0,0.0,0.0,0.0,0.0,0.0,0.0,0.0,0.0,0.0,0.0,0.0,-1.5886,0.0,0.0,-1.5019,-1.4972,-1.4917,-1.4917,-1.5125,-1.5275,-1.5363,0.0,0.0,0.0,0.0,0.0,0.0,-1.7016,0.0,0.0,0.0,-1.8305,0.0,-1.7773,-1.7617,0.0,-1.7569,-1.7692,-1.7815,-1.7994,-1.8087,-1.8087,0.0,-1.7908,-1.7994,0.0,-1.8249,-1.898,-1.7699,0.0,0.0,0.0,0.0,0.0,0.0,-1.7971,0.0,0.0,0.0,-2.1872,-2.2862,0.0,0.0,0.0,0.0,0.0,0.0,0.0,0.0,0.0,0.0,0.0,0.0,0.0,0.0,0.0,-2.454,-2.454,-2.454,-2.454,-2.454,-2.454,-2.454,-2.454,-2.454,-2.454,-2.454,-2.454,-2.454,-2.454,-2.454,-2.454,-2.454,-2.454,-2.454,-2.454,-2.454,-2.454,-2.454,-2.454,-2.454,-2.454,-2.454,-2.454,-2.454,-2.454,-2.454,-2.454,-2.454,-1.4915,0.0,0.0,0.0,0.0,0.0,0.0,0.0,0.0,0.0,0.0,0.0,0.0,0.0,0.0,0.0,0.0,-1.7523,0.0,0.0,0.0,0.0,-1.5872,-1.5901,-1.5667,-1.5959,-1.6029,-1.5881,-1.5928,0.0,0.0,0.0,0.0,0.0,-1.8044,0.0,-1.8997,0.0,0.0,0.0,0.0,0.0,0.0,-1.79,-1.8001,-1.8195,-1.8458,-1.855,-1.8458,0.0,-1.8373,0.0,0.0,0.0,0.0,0.0,0.0,0.0,0.0,0.0,0.0,0.0,0.0,0.0,-2.0413,0.0,-2.1872,0.0,0.0,0.0,0.0,0.0,0.0,0.0,-2.4084,0.0,0.0,0.0,0.0,0.0,0.0,0.0,0.0,0.0,0.0,0.0,-2.454,-2.454,-2.454,-2.454,-2.454,-2.454,-2.454,-2.454,-2.454,-2.454,-2.454,-2.454,-2.454,-2.454,-2.454,-2.454,-2.454,-2.454,-2.454,-2.454,-2.454,-2.454,-2.454,-2.454,-2.454,-2.454,-2.454,-2.454,-2.454,-2.454,-1.5597,0.0,0.0,0.0,0.0,0.0,0.0,0.0,0.0,0.0,0.0,0.0,-1.6032,-1.7177,0.0,0.0,-1.8471,-1.8685,0.0,0.0,-1.79,0.0,0.0,0.0,0.0,-1.6796,-1.664,-1.6252,-1.6252,0.0,0.0,0.0,0.0,0.0,0.0,-1.9609,-2.0412,0.0,0.0,-2.0339,-1.9438,-1.8896,-1.8627,-1.8365,-1.8373,-1.8658,-1.9096,-1.918,-1.9271,-1.9446,-1.9455,0.0,-1.9977,0.0,0.0,0.0,0.0,0.0,-1.8527,0.0,0.0,0.0,0.0,0.0,0.0,0.0,0.0,0.0,0.0,0.0,0.0,0.0,0.0,0.0,0.0,-2.4327,0.0,0.0,0.0,0.0,0.0,0.0,0.0,0.0,0.0,-2.454,-2.454,-2.454,-2.454,-2.454,-2.454,-2.454,-2.454,-2.454,-2.454,-2.454,-2.454,-2.454,-2.454,-2.454,-2.454,-2.454,-2.454,-2.454,-2.454,-2.454,-2.454,-2.454,-2.454,-2.454,-2.454,-2.454,-2.454,-2.454,-2.454,-2.454,-1.6802,-1.6237,0.0,0.0,0.0,0.0,0.0,0.0,0.0,0.0,0.0,0.0,0.0,0.0,0.0,0.0,0.0,-2.0639,-1.9893,0.0,-2.0041,0.0,0.0,-1.8789,0.0,-1.7917,-1.7521,-1.6656,-1.6476,0.0,0.0,0.0,0.0,0.0,0.0,-1.9692,-1.9815,-2.1069,-2.1596,-2.1606,-2.1606,-2.106,-2.0076,0.0,-1.8566,-1.892,-1.9894,0.0,0.0,-2.1033,-2.14,0.0,0.0,0.0,0.0,0.0,0.0,0.0,0.0,0.0,0.0,-1.787,0.0,0.0,0.0,0.0,-1.9513,0.0,0.0,0.0,0.0,0.0,0.0,0.0,0.0,0.0,0.0,0.0,0.0,0.0,0.0,0.0,0.0,0.0,-2.454,-2.454,-2.454,-2.454,-2.454,-2.454,-2.454,-2.454,-2.454,-2.454,-2.454,-2.454,-2.454,-2.454,-2.454,-2.454,-2.454,-2.454,-2.454,-2.454,-2.454,-2.454,-2.454,-2.454,-2.454,-2.454,-2.454,-2.454,-2.454,-2.454,-2.454,-2.454,0.0,0.0,0.0,0.0,0.0,0.0,0.0,-1.6413,0.0,0.0,0.0,0.0,0.0,-1.964,-2.0335,0.0,0.0,-2.1181,-2.0332,-2.0382,0.0,0.0,0.0,-1.9345,0.0,0.0,-1.8338,-1.7421,-1.7328,-1.7391,0.0,0.0,0.0,0.0,0.0,-2.0427,0.0,0.0,0.0,0.0,0.0,-2.1516,-2.1069,0.0,-1.972,-1.9903,-2.0881,-2.1248,0.0,-2.1507,-2.1596,-2.1784,-2.2199,-2.2189,-2.1924,-2.2287,-2.2101,0.0,0.0,0.0,-2.2022,-2.1123,0.0,0.0,0.0,0.0,0.0,0.0,0.0,0.0,0.0,0.0,0.0,0.0,0.0,0.0,0.0,0.0,0.0,0.0,0.0,0.0,0.0,0.0,0.0,-2.5348,-2.5337,-2.5337,-2.5337,-2.5337,-2.5105,-2.454,-2.454,-2.454,-2.454,-2.454,-2.454,-2.454,-2.454,-2.454,-2.454,-2.454,-2.454,-2.454,-2.454,-2.454,-2.454,-2.454,-2.454,-2.454,-2.454,-2.454,-2.454,-2.454,-2.454,-2.454,-1.9926,0.0,0.0,0.0,0.0,0.0,0.0,0.0,0.0,0.0,-1.8889,0.0,-1.9307,0.0,-2.0857,0.0,-2.1328,-2.164,-2.1241,-2.1023,0.0,-2.0437,-2.0707,0.0,0.0,0.0,-1.9554,-1.8284,-1.8284,-1.8175,0.0,0.0,0.0,0.0,0.0,0.0,0.0,0.0,-2.2394,0.0,0.0,-2.2227,0.0,0.0,-2.1051,-2.0881,0.0,-2.2227,-2.2217,-2.258,-2.2677,-2.2765,-2.3377,-2.3096,-2.2551,-2.3367,-2.3008,-2.2375,-2.2129,-2.2755,0.0,-2.2385,-2.2843,0.0,-2.3115,0.0,-2.3018,0.0,0.0,0.0,0.0,0.0,0.0,0.0,0.0,0.0,0.0,-2.454,0.0,0.0,0.0,0.0,0.0,0.0,-2.5105,-2.5348,-2.5913,-2.5997,0.0,-2.5663,-2.5421,-2.454,-2.454,-2.454,-2.454,-2.454,-2.454,-2.454,-2.454,-2.454,-2.454,-2.454,-2.454,-2.454,-2.454,-2.454,-2.454,-2.454,-2.454,-2.454,-2.454,-2.454,-2.454,-2.454,-2.454,-2.454,0.0,0.0,0.0,0.0,-1.7623,0.0,0.0,0.0,-1.9007,0.0,-2.006,-2.0294,-1.9502,-2.0847,-2.1492,-2.0624,-2.1349,-2.2025,-2.247,-2.2108,0.0,0.0,-2.2553,-2.2158,-2.125,0.0,0.0,0.0,-1.9359,0.0,0.0,0.0,0.0,0.0,-1.892,0.0,-2.1784,-2.1784,-2.2853,-2.4454,-2.3551,-2.3183,-2.3183,-2.3183,-2.2658,-2.1961,-2.2833,-2.3183,-2.328,-2.4186,-2.454,-2.454,-2.454,-2.454,-2.454,-2.454,-2.454,-2.4272,-2.3096,-2.3474,-2.3744,-2.1569,-2.1756,0.0,0.0,0.0,-2.1382,0.0,0.0,0.0,0.0,0.0,0.0,0.0,0.0,0.0,0.0,0.0,0.0,0.0,0.0,0.0,0.0,-2.5263,-2.5421,-2.4615,-2.6091,0.0,0.0,0.0,-2.5421,-2.454,-2.454,-2.454,-2.454,-2.454,-2.454,-2.454,-2.454,-2.454,-2.454,-2.454,-2.454,-2.454,-2.454,-2.454,-2.454,-2.454,-2.454,-2.454,-2.454,-2.454,-2.454,-2.454,-2.454,-2.454,-2.0792,-2.0292,-1.9899,0.0,-1.9195,-1.8999,0.0,0.0,0.0,0.0,-2.0934,-2.1405,-2.1165,-2.1558,-2.1731,-2.1492,-2.1963,0.0,0.0,0.0,0.0,-2.3008,-2.3339,-2.3083,-2.2129,-2.2549,-2.2255,-2.1031,0.0,0.0,-2.0829,0.0,0.0,0.0,0.0,0.0,-2.2746,-2.2746,-2.3464,-2.4454,-2.4272,-2.4176,0.0,0.0,-2.4003,-2.3831,-2.409,-2.4176,-2.4176,-2.4454,-2.454,-2.454,-2.454,-2.454,-2.454,-2.454,-2.454,-2.4454,-2.409,-2.4272,-2.4282,-2.3724,-2.3734,-2.3907,0.0,0.0,0.0,0.0,0.0,0.0,0.0,0.0,0.0,0.0,0.0,0.0,0.0,0.0,0.0,-2.454,0.0,0.0,-2.454,-2.4861,-2.5274,-2.5695,-2.6185,0.0,0.0,0.0,-2.5421,-2.454,-2.454,-2.454,-2.454,-2.454,-2.454,-2.454,-2.454,-2.454,-2.454,-2.454,-2.454,-2.454,-2.454,-2.454,-2.454,-2.454,-2.454,-2.454,-2.454,-2.454,-2.454,-2.454,-2.454,-2.454,-2.1563,0.0,0.0,-2.1088,0.0,0.0,-2.1011,0.0,0.0,-2.1379,-2.1788,0.0,-2.2387,-2.2232,-2.219,-2.2387,-2.2646,0.0,-2.3091,0.0,0.0,-2.3484,-2.3743,-2.3606,-2.3072,-2.3503,0.0,-2.2306,0.0,0.0,-2.1695,0.0,0.0,0.0,0.0,-2.1596,0.0,-2.3367,-2.4003,-2.454,-2.454,0.0,0.0,-2.454,-2.454,-2.454,-2.454,-2.454,-2.454,-2.454,-2.454,-2.454,-2.454,-2.454,-2.454,-2.454,-2.454,-2.454,-2.454,-2.454,-2.454,-2.454,-2.454,-2.454,-2.454,-2.454,-2.454,0.0,-2.454,-2.454,0.0,0.0,0.0,0.0,0.0,0.0,0.0,0.0,0.0,0.0,-2.4946,0.0,-2.454,-2.5432,-2.5852,-2.5527,-2.6268,0.0,0.0,0.0,-2.5746,-2.454,-2.4861,-2.4861,-2.454,-2.454,-2.454,-2.454,-2.454,-2.454,-2.454,-2.454,-2.454,-2.454,-2.454,-2.454,-2.454,-2.454,-2.454,-2.454,-2.454,-2.454,-2.454,-2.454,-2.454,-2.454,0.0,0.0,0.0,0.0,0.0,0.0,0.0,-2.2351,0.0,-2.2501,0.0,-2.2739,-2.3143,-2.2832,-2.2749,-2.3153,0.0,-2.3453,-2.3857,-2.3557,-2.3546,-2.395,-2.396,-2.396,-2.396,-2.4343,-2.409,0.0,0.0,0.0,0.0,0.0,0.0,0.0,0.0,0.0,0.0,-2.3831,-2.454,-2.454,-2.454,-2.454,-2.454,-2.454,-2.454,-2.454,-2.454,-2.454,-2.454,-2.454,-2.454,-2.454,-2.454,-2.454,-2.454,-2.454,-2.454,-2.454,-2.454,-2.454,-2.454,-2.454,-2.454,-2.454,-2.454,-2.454,-2.454,-2.454,-2.454,-2.454,0.0,0.0,0.0,0.0,0.0,0.0,0.0,0.0,0.0,0.0,0.0,0.0,-2.454,-2.6091,-2.6412,-2.47,0.0,0.0,0.0,0.0,-2.6091,-2.454,-2.5263,-2.5263,-2.454,-2.454,-2.454,-2.454,-2.454,-2.454,-2.454,-2.454,-2.454,-2.454,-2.454,-2.454,-2.454,-2.454,-2.454,-2.454,-2.454,-2.454,-2.454,-2.454,-2.454,-2.454,0.0,0.0,0.0,0.0,0.0,-2.3026,-2.3175,-2.2924,-2.2726,-2.2501,-2.2832,-2.3101,-2.3184,-2.3111,-2.3101,-2.3184,-2.3536,0.0,0.0,0.0,0.0,-2.4416,-2.4426,-2.4426,-2.4426,-2.4498,-2.4454,0.0,0.0,0.0,0.0,0.0,0.0,0.0,0.0,0.0,-2.4003,-2.4358,0.0,-2.454,-2.454,-2.454,-2.454,-2.454,-2.454,-2.454,-2.454,-2.454,-2.454,-2.454,-2.454,-2.454,-2.454,-2.454,-2.454,-2.454,-2.454,-2.454,-2.454,-2.454,-2.454,-2.454,-2.454,-2.454,-2.454,-2.454,-2.454,-2.454,-2.454,-2.454,-2.454,0.0,0.0,0.0,0.0,0.0,0.0,0.0,0.0,0.0,0.0,-2.5263,-2.454,-2.5031,0.0,0.0,0.0,0.0,0.0,0.0,-2.4786,0.0,-2.4615,0.0,0.0,0.0,-2.454,-2.454,-2.454,-2.454,-2.454,-2.454,-2.454,-2.454,-2.454,-2.454,-2.454,-2.454,-2.454,-2.454,-2.454,-2.454,-2.454,-2.454,-2.454,-2.454,0.0,0.0,0.0,0.0,0.0,0.0,0.0,-2.3737,0.0,-2.3587,-2.3635,-2.3794,-2.4023,-2.3846,-2.3722,-2.3867,-2.4095,-2.4219,-2.4219,-2.4416,-2.454,-2.454,-2.454,-2.454,-2.454,-2.454,-2.454,-2.454,0.0,0.0,0.0,0.0,0.0,0.0,0.0,-2.3724,0.0,0.0,0.0,-2.454,-2.454,-2.454,-2.454,-2.454,-2.454,-2.454,-2.454,-2.454,-2.454,-2.454,-2.454,-2.454,-2.454,-2.454,-2.454,-2.454,-2.454,-2.454,-2.454,-2.454,-2.454,-2.454,-2.454,-2.454,-2.454,-2.454,-2.454,-2.454,-2.454,-2.454,-2.454,-2.454,0.0,0.0,0.0,0.0,0.0,0.0,-2.5348,0.0,0.0,0.0,0.0,0.0,0.0,0.0,0.0,0.0,0.0,0.0,-2.4935,0.0,0.0,0.0,-2.454,0.0,-2.454,-2.454,-2.454,-2.454,-2.454,-2.454,-2.454,-2.454,-2.454,-2.454,-2.454,-2.454,-2.454,-2.454,-2.454,-2.454,-2.454,-2.454,-2.454,-2.454,0.0,-2.3892,0.0,0.0,-2.403,0.0,-2.4164,-2.4566,-2.477,-2.4498,-2.4428,-2.4472,-2.4904,-2.4556,-2.4325,-2.4594,-2.454,-2.454,-2.454,-2.454,-2.454,-2.454,-2.454,-2.454,-2.454,-2.454,-2.454,0.0,0.0,0.0,0.0,0.0,0.0,0.0,0.0,0.0,0.0,0.0,-2.454,-2.454,-2.454,-2.454,-2.454,-2.454,-2.454,-2.454,-2.454,-2.454,-2.454,-2.454,-2.454,-2.454,-2.454,-2.454,-2.454,-2.454,-2.454,-2.454,-2.454,-2.454,-2.454,-2.454,-2.454,-2.454,-2.454,-2.454,-2.454,-2.454,-2.454,-2.454,-2.454,-2.454,0.0,0.0,0.0,0.0,0.0,0.0,-2.5913,0.0,0.0,0.0,-2.6069,0.0,0.0,0.0,0.0,0.0,-2.454,0.0,0.0,0.0,0.0,-2.5179,-2.454,0.0,-2.454,-2.454,-2.454,-2.454,-2.454,-2.454,-2.454,-2.454,-2.454,-2.454,-2.454,-2.454,-2.454,-2.454,-2.454,-2.454,-2.454,-2.454,-2.454,-2.454,0.0,0.0,0.0,0.0,0.0,0.0,-2.5419,-2.5284,-2.4977,-2.4551,-2.4703,-2.4893,-2.5115,-2.4744,-2.4573,-2.4861,-2.4615,-2.454,-2.454,-2.454,-2.454,-2.454,-2.454,-2.454,-2.454,-2.454,-2.454,0.0,0.0,-2.4333,0.0,0.0,0.0,0.0,0.0,0.0,0.0,-2.4454,-2.454,-2.454,-2.454,-2.454,-2.454,-2.454,-2.454,-2.454,-2.454,-2.454,-2.454,-2.454,-2.454,-2.454,-2.454,-2.454,-2.454,-2.454,-2.454,-2.454,-2.454,-2.454,-2.454,-2.454,-2.454,-2.454,-2.454,-2.454,-2.454,-2.454,-2.454,-2.454,-2.454,-2.454,-2.454,0.0,0.0,0.0,0.0,0.0,-2.5274,-2.6905,0.0,0.0,-2.6823,-2.5443,0.0,0.0,-2.4935,0.0,0.0,0.0,0.0,-2.454,-2.4625,-2.4625,-2.454,-2.454,-2.454,-2.454,-2.454,-2.454,-2.454,-2.454,-2.454,-2.454,-2.454,-2.454,-2.454,-2.454,-2.454,-2.454,-2.454,-2.454,-2.454,-2.454,-2.454,-2.454,0.0,0.0,0.0,0.0,0.0,0.0,0.0,-2.5728,-2.5568,-2.5373,-2.5346,-2.538,-2.5475,-2.5306,-2.5137,-2.5115,-2.4871,-2.47,-2.47,-2.4625,-2.454,-2.454,-2.454,-2.454,-2.454,-2.454,-2.454,0.0,0.0,0.0,0.0,0.0,0.0,0.0,0.0,-2.454,-2.454,-2.454,-2.454,-2.454,-2.454,-2.454,-2.454,-2.454,-2.454,-2.454,-2.454,-2.454,-2.454,-2.454,-2.454,-2.454,-2.454,-2.454,-2.454,-2.454,-2.454,-2.454,-2.454,-2.454,-2.454,-2.454,-2.454,-2.454,-2.454,-2.454,-2.454,-2.454,-2.454,-2.454,-2.454,-2.454,-2.454,-2.454,0.0,0.0,0.0,0.0,0.0,-2.7891,0.0,-2.6329,-2.7069,0.0,0.0,0.0,0.0,0.0,0.0,0.0,0.0,-2.454,0.0,-2.454,-2.454,-2.454,-2.454,-2.454,-2.454,-2.454,-2.454,-2.454,-2.454,-2.454,-2.454,-2.454,-2.454,-2.454,-2.454,-2.454,-2.454,-2.454,-2.454,-2.454,-2.454,-2.454,-2.5986,0.0,-2.5728,0.0,-2.5812,-2.5738,-2.5895,-2.5895,-2.5895,-2.5895,-2.5812,-2.5644,-2.5644,-2.5559,-2.5464,-2.5295,-2.5115,-2.5031,-2.5031,-2.4786,-2.4615,-2.4615,-2.454,0.0,-2.454,-2.4625,-2.4625,-2.454,-2.4625,0.0,0.0,0.0,0.0,0.0,-2.454,-2.454,-2.454,-2.454,-2.454,-2.454,-2.454,-2.454,-2.454,-2.454,-2.454,-2.454,-2.454,-2.454,-2.454,-2.454,-2.454,-2.454,-2.454,-2.454,-2.454,-2.454,-2.454,-2.454,-2.454,-2.454,-2.454,-2.454,-2.454,-2.454,-2.454,-2.454,-2.454,-2.454,-2.454,-2.454,-2.454,-2.454,-2.454,-2.454,0.0,0.0,0.0,-2.7058,0.0,-2.8462,-2.7476,-2.6905,-2.7476,-2.5924,0.0,0.0,0.0,0.0,0.0,0.0,0.0,0.0,0.0,0.0,-2.454,-2.454,-2.454,-2.454,-2.454,-2.454,-2.454,-2.454,-2.454,-2.454,-2.454,-2.454,-2.454,-2.454,-2.454,-2.454,-2.454,-2.454,-2.454,-2.454,-2.454,-2.454,-2.5895,-2.5895,-2.5895,-2.5895,-2.5895,-2.5895,-2.5895,-2.5895,-2.5895,-2.5895,-2.5895,-2.5895,-2.5895,-2.5464,-2.5285,-2.5559,-2.538,-2.52,-2.52,-2.5031,-2.4861,0.0,0.0,-2.454,-2.454,-2.4786,-2.4786,-2.454,0.0,0.0,-2.3888,0.0,-2.4115,-2.454,-2.454,-2.454,-2.454,-2.454,-2.454,-2.454,-2.454,-2.454,-2.454,-2.454,-2.454,-2.454,-2.454,-2.454,-2.454,-2.454,-2.454,-2.454,-2.454,-2.454,-2.454,-2.454,-2.454,-2.454,-2.454,-2.454,-2.454,-2.454,-2.454,-2.454,-2.454,-2.454,-2.454,-2.454,-2.454,-2.454,-2.454,-2.454,-2.454,-2.454,0.0,0.0,0.0,-2.6318,0.0,-2.8291,-2.6894,-2.6483,-2.8291,-2.6812,0.0,0.0,0.0,0.0,0.0,0.0,0.0,-2.454,-2.454,0.0,-2.454,-2.454,-2.454,-2.454,-2.454,-2.454,-2.454,-2.454,-2.454,-2.454,-2.454,-2.454,-2.454,-2.454,-2.454,-2.454,-2.454,-2.454,-2.454,-2.454,-2.454,-2.454,-2.5979,-2.5895,-2.5895,-2.5895,-2.5895,-2.5895,-2.5895,-2.5895,-2.5895,-2.5895,-2.5895,-2.5895,-2.5895,-2.5728,-2.5728,0.0,-2.5559,-2.5464,0.0,-2.52,-2.5115,-2.5115,-2.5031,-2.4956,-2.4956,-2.5031,-2.5031,-2.4956,0.0,0.0,0.0,-2.4492,-2.4565,-2.454,-2.454,-2.454,-2.454,-2.454,-2.454,-2.454,-2.454,-2.454,-2.454,-2.454,-2.454,-2.454,-2.454,-2.454,-2.454,-2.454,-2.454,-2.454,-2.454,-2.454,-2.454,-2.454,-2.454,-2.454,-2.454,-2.454,-2.454,-2.454,-2.454,-2.454,-2.454,-2.454,-2.454,-2.454,-2.454,-2.454,-2.454,-2.5031,-2.5421,-2.5421,-2.6412,0.0,-2.6318,0.0,-2.7395,-2.673,-2.6152,-2.6069,-2.6565,-2.5589,0.0,0.0,0.0,0.0,0.0,0.0,0.0,0.0,-2.454,0.0,-2.454,-2.454,-2.454,-2.454,-2.454,-2.454,-2.454,-2.454,-2.454,-2.454,-2.454,-2.454,-2.454,-2.454,-2.454,-2.454,-2.454,-2.454,-2.454,-2.454,-2.454,-2.4592,-2.6928,-2.6622,-2.6385,-2.6385,-2.6146,-2.5895,-2.5895,-2.5895,-2.5895,-2.5895,-2.5895,-2.5895,-2.5895,-2.5895,0.0,-2.5895,-2.5822,-2.5728,-2.5728,-2.5464,-2.538,-2.538,-2.5285,-2.52,-2.52,-2.56,0.0,-2.5611,-2.5348,-2.4935,-2.454,-2.47,-2.4615,-2.454,-2.454,-2.454,-2.454,-2.454,-2.454,-2.454,-2.454,-2.454,-2.454,-2.454,-2.454,-2.454,-2.454,-2.454,-2.454,-2.454,-2.454,-2.454,-2.454,-2.454,-2.454,-2.454,-2.454,-2.454,-2.454,-2.454,-2.454,-2.454,-2.4786,-2.5105,-2.5443,-2.5189,-2.502,-2.502,-2.502,-2.502,-2.502,-2.5421,-2.5819,-2.5819,-2.6483,-2.6823,-2.6329,0.0,-2.7718,-2.6894,0.0,0.0,0.0,-2.5841,-2.5359,0.0,0.0,0.0,0.0,0.0,0.0,-2.454,-2.454,-2.454,-2.454,-2.454,-2.454,-2.454,-2.454,-2.454,-2.454,-2.454,-2.454,-2.454,-2.454,-2.454,-2.454,-2.454,-2.454,-2.454,-2.454,-2.454,-2.454,-2.454,-2.4567,-2.484,-2.8426,-2.7799,-2.7255,0.0,-2.6539,0.0,-2.5979,-2.5895,-2.5895,-2.5895,-2.5895,-2.5895,-2.5895,-2.5895,-2.5895,-2.5895,0.0,0.0,0.0,-2.5728,-2.5654,-2.5654,-2.538,-2.5285,-2.5285,-2.6246,-2.6659,-2.6185,-2.5913,-2.5348,-2.454,-2.454,-2.454,-2.454,-2.454,-2.454,-2.454,-2.454,-2.454,-2.454,-2.454,-2.454,-2.454,-2.454,-2.454,-2.454,-2.454,-2.454,-2.4625,-2.4625,-2.4615,-2.47,-2.47,-2.47,-2.4625,-2.454,-2.454,-2.4625,-2.4625,-2.4615,-2.47,-2.47,-2.5263,-2.6069,-2.6905,-2.6483,-2.5902,-2.5902,-2.5902,-2.5902,-2.5902,-2.5902,-2.5986,-2.5986,-2.5348,-2.5359,-2.6905,-2.7069,-2.7395,0.0,0.0,0.0,-2.6987,-2.6905,-2.6565,0.0,0.0,0.0,0.0,0.0,-2.454,-2.454,-2.454,-2.454,-2.454,-2.454,-2.454,-2.454,-2.454,-2.454,-2.454,-2.454,-2.454,-2.454,-2.454,-2.454,-2.454,-2.454,-2.454,-2.454,-2.454,-2.454,-2.4464,-2.4581,-2.4861,-2.5244,0.0,0.0,-2.8119,-2.8119,-2.7406,-2.6857,-2.6857,-2.6302,-2.5895,-2.5895,-2.5895,-2.5895,-2.5895,-2.5895,-2.5895,-2.5895,-2.5895,-2.5895,-2.5895,-2.5822,-2.5822,-2.5822,-2.5728,-2.5717,-2.5717,-2.661,-2.6917,-2.64,-2.5684,-2.502,-2.454,-2.47,-2.47,-2.454,-2.454,-2.454,-2.454,-2.454,-2.454,-2.454,-2.454,-2.454,-2.454,-2.454,-2.454,-2.454,-2.454,-2.4946,-2.5505,-2.5505,-2.5913,-2.6494,-2.6494,-2.6494,-2.6246,-2.4861,-2.4935,-2.5505,-2.5505,-2.5997,-2.6494,-2.6494,-2.6659,-2.6823,-2.7058,-2.6905,-2.6812,-2.6812,-2.6812,-2.6812,-2.6812,-2.7395,-2.7879,-2.7879,-2.8223,-2.8223,-2.7232,-2.7069,-2.6659,0.0,-2.5443,-2.5359,-2.5105,-2.5115,-2.5031,0.0,0.0,0.0,-2.454,-2.454,-2.454,-2.454,-2.454,-2.454,-2.454,-2.454,-2.454,-2.454,-2.454,-2.454,-2.454,-2.454,-2.454,-2.454,-2.454,-2.454,-2.454,-2.454,-2.454,-2.454,-2.454,-2.454,-2.4495,-2.4933,-2.514,-2.5326,-2.9626,-2.9303,-2.8978,-2.8978,-2.8279,-2.773,-2.773,-2.701,-2.6456,-2.6456,-2.6146,-2.5895,-2.5895,-2.5895,-2.5895,-2.5895,-2.5895,-2.5895,-2.5895,-2.5895,-2.5895,-2.5895,-2.6302,-2.6456,-2.6456,-2.773,-2.8187,-2.7844,-2.729,-2.6648,-2.5986,-2.608,-2.608,-2.5997,-2.5757,-2.5768,-2.5841,-2.5757,-2.5684,-2.5684,-2.5684,-2.5684,-2.5684,-2.5684,-2.5684,-2.5684,-2.5684,-2.6008,-2.64,-2.64,-2.673,-2.7069,-2.7069,-2.7069,-2.6905,-2.6008,-2.5997,-2.64,-2.64,-2.673,-2.7232,-2.7637,-2.7718,-2.7799,-2.8211,-2.8051,-2.7718,-2.7718,-2.7718,-2.7718,-2.7718,-2.8131,-2.8462,-2.8462,-2.8542,-2.8383,-2.781,-2.7718,-2.7568,-2.6999,-2.6917,-2.6753,-2.634,-2.5924,-2.5516,-2.5094,-2.47,0.0,-2.454,-2.454,-2.454,-2.454,-2.454,-2.454,-2.454,-2.454,-2.454,-2.454,-2.454,-2.454,-2.454,-2.454,-2.454,-2.454,-2.454,-2.454,-2.454,-2.454,-2.454,-2.454,-2.454,-2.4674,-2.4892,-2.514,-2.5492,-2.5916,-3.0986,-3.0419,-2.9871,-2.9871,-2.9147,-2.8585,-2.8585,-2.7879,-2.7418,-2.7418,-2.6775,-2.6302,-2.6302,-2.6302,-2.6302,-2.6302,-2.6302,-2.6218,-2.6135,-2.6218,-2.6302,-2.6302,-2.7021,-2.7418,-2.7418,-2.8755,-2.9459,-2.9369,-2.9069,-2.8505,-2.7832,-2.7614,-2.7614,-2.7763,-2.7383,-2.7232,-2.7383,-2.7232,-2.7069,-2.7069,-2.7069,-2.7069,-2.7069,-2.7069,-2.7069,-2.7069,-2.7069,-2.7232,-2.7313,-2.7313,-2.7395,-2.7476,-2.7476,-2.7476,-2.7476,-2.7476,-2.7476,-2.7476,-2.7313,-2.7395,-2.773,-2.8462,-2.8712,-2.8882,-2.9624,-2.9209,-2.8712,-2.8712,-2.8712,-2.8712,-2.8712,-2.8712,-2.8712,-2.8712,-2.8051,-2.773,-2.8383,0.0,-2.8712,-2.93,-2.9378,-2.9131,-2.8383,-2.7557,-2.673,-2.5902,-2.5105,-2.4615,-2.454,-2.454,-2.454,-2.454,-2.454,-2.454,-2.454,-2.454,-2.454,-2.454,-2.454,-2.454,-2.454,-2.454,-2.454,-2.454,-2.454,-2.454,-2.454,-2.454,-2.454,-2.455,-2.4623,-2.4892,-2.5254,-2.5388,-2.5916,-2.6579,-3.0986,-3.0898,-3.0823,-3.0823,-3.0101,-2.9471,-2.9471,-2.8743,-2.8187,-2.8187,-2.8119,-2.8028,-2.8028,-2.8028,-2.8028,-2.8028,-2.8028,-2.7718,-2.7021,-2.7637,-2.8028,-2.8028,-2.8108,-2.8187,-2.8187,-2.8335,-2.8652,-2.9369,-2.8481,-2.7924,-2.7832,-2.7763,-2.7695,-2.7545,-2.7464,-2.7313,-2.7151,-2.7151,-2.7069,-2.7069,-2.7069,-2.7069,-2.7069,-2.7069,-2.7069,-2.7069,-2.7069,-2.7637,-2.8303,-2.8303,-2.8791,-2.9378,-2.9378,-2.9378,-2.9378,-2.9378,-2.9378,-2.9209,-2.8462,-2.8791,-2.9378,-2.9546,-2.9624,-2.9624,-2.9792,-2.9714,-2.9624,-2.9624,-2.9624,-2.9624,-2.9624,-2.9624,-2.9624,-2.9624,-2.9468,-2.9209,-2.8542,0.0,-2.8303,-2.7557,-2.7476,-2.7476,-2.7313,-2.7151,-2.673,-2.5902,-2.5663,-2.5263,-2.454,-2.454,-2.454,-2.454,-2.454,-2.454,-2.454,-2.454,-2.454,-2.454,-2.454,-2.454,-2.454,-2.454,-2.454,-2.454,-2.454,-2.454,-2.454,-2.454,-2.454,-2.4581,-2.4974,-2.5171,-2.5326,-2.6082,-2.6444,-2.663,-3.0986,-3.0986,-3.0986,-3.0986,-3.0672,-3.0419,-3.0419,-2.9626,-2.9069,-2.9069,-2.8664,-2.8426,-2.8426,-2.8426,-2.8426,-2.8426,-2.8821,-2.8912,-2.8597,-2.8426,-2.8426,-2.8426,-2.8821,-2.9303,-2.9781,-2.9691,-2.9858,-3.0254,-2.9768,-2.9524,-2.9524,-2.9291,-2.9225,-2.9238,-2.8858,-2.87,-2.8688,-2.8621,-2.8554,-2.8554,-2.8554,-2.8554,-2.8554,-2.8554,-2.8554,-2.8554,-2.8554,-2.8803,-2.9209,-2.9209,-2.9456,-2.9792,-2.9792,-2.9792,-2.9792,-2.9792,-2.9792,-2.9702,-2.93,-2.9456,-2.9792,-2.9792,-2.9792,-2.9792,-2.9792,-2.9792,-2.9792,-2.9792,-2.9792,-2.9792,-2.9792,-2.9792,-2.9792,-2.9792,-2.9792,-2.9624,-2.9287,-2.9209,-2.904,-2.8633,-2.8554,-2.8554,-2.8554,-2.7649,-2.6905,-2.6565,-2.5589,-2.4935,-2.454,-2.454,-2.454,-2.454,-2.454,-2.454,-2.454,-2.454,-2.454,-2.454,-2.454,-2.454,-2.454,-2.454,-2.454,-2.454,-2.454,-2.454,-2.456,-2.4809,-2.4912,-2.4954,-2.5399,-2.573,-2.5999,-2.6413,-2.6724,-2.6972,-3.0986,-3.0986,-3.0986,-3.0986,-3.0986,-3.0986,-3.0986,-3.0419,-3.0024,-3.0024,-2.9381,-2.8978,-2.8978,-2.8978,-2.8978,-2.8978,-2.9626,-3.0024,-3.0024,-2.9381,-2.8978,-2.8978,-2.9626,-3.0343,-3.0986,-3.0986,-3.0986,-3.0986,-3.0986,-3.0986,-3.0986,-3.0672,-3.0609,-3.0698,-3.0254,-3.0088,-3.0152,-2.9934,-2.9869,-2.9869,-2.9792,-2.9792,-2.9792,-2.9792,-2.9792,-2.9792,-2.9792,-2.9792,-2.9792,-2.9792,-2.9792,-2.9792,-2.9792,-2.9792,-2.9792,-2.9792,-2.9792,-2.9792,-2.9792,-2.9792,-2.9792,-2.9792,-2.9792,-2.9792,-2.9792,-2.9792,-2.9792,-2.9792,-2.9792,-2.9792,-2.9792,-2.9792,-2.9792,-2.9792,0.0,-2.9792,-2.9792,-2.9792,-2.9792,-2.9792,-2.9792,-2.9792,-2.9792,-2.8383,-2.7313,-2.7151,-2.5684,-2.47,-2.454,-2.454,-2.454,-2.454,-2.454,-2.454,-2.454,-2.454,-2.454,-2.454,-2.454,-2.454,-2.454,-2.454,-2.4602,-2.4705,-2.4705,-2.4757,-2.4881,-2.5233,-2.5378,-2.543,-2.5865,-2.6258,-2.6579,-2.6693,-2.6951,-2.7262,-3.0986,-3.0986,-3.0986,-3.0986,-3.0986,-3.0986,-3.0986,-3.0986,-3.0898,-3.0898,-3.0823,-3.0823,-3.0823,-3.0823,-3.0823,-3.0823,-3.0898,-3.0898,-3.0898,-3.0823,-3.0823,-3.0823,-3.0898,-3.0898,-3.0986,-3.0986,-3.0986,-3.0986,-3.0986,-3.0986,-3.0986,-3.0986,-3.0836,-3.0698,-3.0622,-3.0533,-3.0368,-3.0152,-3.0075,-3.0088,-2.9869,-2.9792,-2.9792,-2.9792,-2.9792,-2.9792,-2.9792,-2.9792,-2.9792,-2.9792,-2.9792,-2.9792,-2.9792,-2.9792,-2.9792,-2.9792,-2.9792,-2.9792,-2.9792,-2.9792,-2.9792,-2.9792,-2.9792,-2.9792,-2.9792,-2.9792,-2.9792,-2.9792,-2.9792,-2.9792,-2.9792,-2.9792,-2.9792,-2.9792,0.0,0.0,-2.9792,-2.9792,-2.9792,-2.9792,-2.9792,-2.9792,-2.9792,-2.8961,-2.8051,-2.7151,-2.6235,-2.5337,-2.454,-2.454,-2.454,-2.454,-2.454,-2.454,-2.454,-2.454,-2.454,-2.454,-2.454,-2.454,-2.454,-2.454,-2.4778,-2.5181,-2.5181,-2.5409,-2.5782,-2.5813,-2.5834,-2.5875,-2.6341,-2.6537,-2.662,-2.7055,-2.7231,-2.7262,-3.0986,-3.0986,-3.1091,-3.1457,-3.1522,-3.164,-3.1993,-3.2045,-3.2045,-3.2045,-3.2045,-3.2045,-3.2045,-3.2045,-3.1901,-3.1548,-3.1522,-3.1365,-3.1013,-3.0986,-3.0986,-3.0986,-3.0986,-3.0986,-3.0986,-3.0986,-3.0986,-3.0986,-3.0986,-3.0986,-3.0986,-3.0836,-3.0773,-3.0698,-3.0533,-3.0444,-3.0368,-3.0228,-3.0075,-3.0075,-2.9869,-2.9792,-2.9792,-2.9792,-2.9792,-2.9792,-2.9792,-2.9792,-2.9792,-2.9792,-2.9792,-2.9792,-2.9792,-2.9792,-2.9792,-2.9792,-2.9792,-2.9792,-2.9792,-2.9792,-2.9792,-2.9792,-2.9792,-2.9792,-2.9792,-2.9792,-2.9792,-2.9792,-2.9792,-2.9792,-2.9792,-2.9792,-2.9792,-2.9792,0.0,-2.9792,-2.9792,-2.9792,-2.9792,-2.9792,-2.9792,-2.9792,-2.9792,-2.8462,-2.7718,-2.7971,-2.6091,-2.5105,-2.5263,-2.4775,-2.454,-2.454,-2.454,-2.454,-2.454,-2.454,-2.454,-2.4464,-2.483,-2.4964,-2.4974,-2.5244,-2.5471,-2.5627,-2.5627,-2.573,-2.5906,-2.6185,-2.6299,-2.6351,-2.6817,-2.6993,-2.7024,-2.72,-2.7262,-2.7262,-3.1222,-3.1248,-3.1431,-3.2006,-3.211,-3.2241,-3.2633,-3.2685,-3.2685,-3.2685,-3.2685,-3.2685,-3.2685,-3.2685,-3.2529,-3.215,-3.211,-3.194,-3.1548,-3.1522,-3.1365,-3.0999,-3.0986,-3.0986,-3.0986,-3.0986,-3.0986,-3.0986,-3.0986,-3.0986,-3.0986,-3.0836,-3.0773,-3.0773,-3.0672,-3.0596,-3.0596,-3.0381,-3.0228,-3.0152,-3.0011,-2.9869,-2.9792,-2.9792,-2.9792,-2.9792,-2.9792,-2.9792,-2.9792,-2.9792,-2.9792,-2.9792,-2.9869,-2.9934,-3.0011,-2.9934,-2.9869,-2.9869,-2.9792,-2.9792,-2.9792,-2.9792,-2.9792,-2.9792,-2.9792,-2.9792,-2.9792,-2.9792,-2.9792,-2.9792,-2.9792,-2.9792,-2.9792,-2.9792,-2.9792,-2.9792,-2.9792,-2.9792,-2.9792,-2.9792,-2.9792,-2.9792,-2.9792,-2.8462,-2.781,-2.8462,-2.6494,-2.56,-2.6152,-2.5348,-2.4946,-2.4946,-2.476,-2.4757,-2.4757,-2.4757,-2.4757,-2.4767,-2.5223,-2.543,-2.544,-2.574,-2.5958,-2.6092,-2.6092,-2.6175,-2.633,-2.6662,-2.6786,-2.6817,-2.7138,-2.7262,-2.7262,-2.7262,-2.7262,-2.7262,-3.1731,-3.1772,-3.2032,-3.2594,-3.2698,-3.2698,-3.2698,-3.2698,-3.2698,-3.2698,-3.2698,-3.2698,-3.2698,-3.2698,-3.2698,-3.2698,-3.2698,-3.2698,-3.2685,-3.2685,-3.2189,-3.1052,-3.0999,-3.0986,-3.0986,-3.0986,-3.0986,-3.0986,-3.0986,-3.0986,-3.0986,-3.0986,-3.0986,-3.0986,-3.0986,-3.0986,-3.0986,-3.0773,-3.0609,-3.0368,-3.0152,-3.0011,-2.9792,-2.9792,-2.9792,-2.9792,-2.9792,-2.9792,-2.9792,-2.9792,-2.9792,-2.9869,-3.0011,-3.0228,-3.0368,-3.0152,-3.0075,-3.0088,-2.9869,-2.9792,-2.9792,-2.9792,-2.9792,-2.9792,-2.9792,-2.9792,-2.9792,-2.9792,-2.9792,-2.9792,-2.9792,-2.9792,-2.9792,-2.9792,-2.9792,-2.9792,-2.9792,-2.9792,-2.9792,-2.9792,-2.9792,-2.9792,-2.9792,-2.904,-2.8462,-2.8542,-2.7637,-2.7069,-2.7069,-2.6246,-2.583,-2.5841,-2.5409,-2.5244,-2.5244,-2.5244,-2.5244,-2.5244,-2.5678,-2.5885,-2.5885,-2.5885,-2.6144,-2.6579,-2.6579,-2.6837,-2.7262,-2.7262,-2.7262,-2.7262,-2.7262,-2.7262,-2.7262,-2.7262,-2.7262,-2.7262,-3.2333,-3.2437,-3.262,-3.3221,-3.3326,-3.3443,-3.3835,-3.3888,-3.3888,-3.3888,-3.3888,-3.3888,-3.3888,-3.3888,-3.3731,-3.3352,-3.3326,-3.3143,-3.2725,-3.2685,-3.2542,-3.2202,-3.1797,-3.1405,-3.0999,-3.0986,-3.0986,-3.0986,-3.0986,-3.0986,-3.0986,-3.0986,-3.0986,-3.0986,-3.0986,-3.0986,-3.0986,-3.0773,-3.0698,-3.0609,-3.0381,-3.0292,-3.0228,-3.0228,-3.0228,-3.0228,-3.0228,-3.0228,-3.0228,-3.0228,-3.0228,-3.0228,-3.0152,-3.0152,-3.0152,-2.9934,-2.9869,-2.9869,-2.9792,-2.9792,-2.9792,-2.9792,-2.9792,-2.9792,-2.9792,-2.9792,-2.9792,-2.9792,-2.9792,-2.9792,-2.9792,-2.9792,-2.9792,-2.9792,-2.9792,-2.9792,-2.9792,-2.9792,-2.9792,-2.9792,-2.9792,-2.9792,-2.9792,-2.904,-2.8791,-2.9378,-2.8554,-2.7975,-2.7762,-2.6852,-2.6496,-2.6932,-2.6129,-2.5689,-2.5689,-2.5689,-2.5689,-2.5689,-2.6144,-2.6361,-2.6372,-2.6703,-2.692,-2.7055,-2.7055,-2.7138,-2.7262,-2.7262,-2.7262,-2.7262,-2.7262,-2.7262,-2.7262,-2.7262,-2.7262,-2.7262,-3.2934,-3.3051,-3.3234,-3.3809,-3.3914,-3.4018,-3.4345,-3.4397,-3.4397,-3.4397,-3.4397,-3.4397,-3.4397,-3.4397,-3.4267,-3.394,-3.3914,-3.3757,-3.3391,-3.3365,-3.3273,-3.3064,-3.2725,-3.2267,-3.1679,-3.1444,-3.1326,-3.1326,-3.1091,-3.0986,-3.0986,-3.0986,-3.0986,-3.0986,-3.0986,-3.0986,-3.0986,-3.0836,-3.0773,-3.0698,-3.0533,-3.0444,-3.0368,-3.0368,-3.0368,-3.0368,-3.0368,-3.0368,-3.0368,-3.0368,-3.0444,-3.0533,-3.0381,-3.0318,-3.0318,-3.0164,-3.0088,-3.0011,-3.0011,-3.0011,-3.0011,-3.0011,-2.9934,-2.9792,-2.9792,-2.9792,-2.9792,-2.9792,-2.9792,-2.9792,-2.9792,-2.9792,-2.9792,-2.9792,-2.9792,-2.9792,-2.9792,-2.9792,-2.9792,-2.9792,-2.9792,-2.9792,-2.9792,-2.9287,-2.9295,-3.0093,-2.9609,-2.9338,-2.9367,-2.8449,-2.8089,-2.8494,-2.7723,-2.7288,-2.7288,-2.7121,-2.6687,-2.6154,-2.662,-2.6848,-2.6848,-2.7138,-2.7262,-2.7262,-2.7262,-2.7262,-2.7262,-2.7262,-2.7262,-2.7262,-2.7262,-2.7262,-2.7262,-2.7262,-2.7262,-2.7262,-3.3548,-3.3666,-3.3822,-3.4306,-3.4397,-3.4397,-3.4397,-3.4397,-3.4397,-3.4397,-3.4397,-3.4397,-3.4397,-3.4397,-3.4397,-3.4397,-3.4397,-3.4397,-3.4397,-3.4397,-3.4175,-3.3679,-3.3666,-3.3404,-3.2855,-3.2228,-3.1914,-3.1914,-3.1392,-3.1104,-3.1065,-3.1065,-3.1039,-3.0986,-3.0986,-3.0986,-3.0986,-3.0986,-3.0911,-3.0698,-3.0698,-3.0609,-3.0444,-3.0444,-3.0444,-3.0444,-3.0444,-3.0444,-3.0444,-3.0444,-3.0609,-3.0698,-3.0698,-3.0698,-3.0698,-3.0698,-3.0533,-3.0368,-3.0368,-3.0368,-3.0368,-3.0368,-3.0075,-2.9869,-2.9869,-2.9792,-2.9792,-2.9792,-2.9792,-2.9792,-2.9792,-2.9792,-2.9792,-2.9792,-2.9792,-2.9792,-2.9792,-2.9792,-2.9792,-2.9792,-2.9792,-2.9817,-2.9867,-2.9905,-3.0143,-3.0645,-3.0683,-3.0922,-3.1436,-3.0611,-3.0218,-3.0266,-2.9764,-2.9558,-2.9381,-2.8954,-2.8043,-2.6816,-2.7149,-2.7262,-2.7262,-2.7262,-2.7262,-2.7262,-2.7262,-2.7262,-2.7262,-2.7262,-2.7262,-2.7262,-2.7262,-2.7262,-2.7262,-2.7262,-2.7262,-2.7262,-3.411,-3.4228,-3.4254,-3.4384,-3.4397,-3.4397,-3.4397,-3.4397,-3.4397,-3.4397,-3.4397,-3.4397,-3.4397,-3.4397,-3.4397,-3.4397,-3.4397,-3.4397,-3.4397,-3.4397,-3.4345,-3.4228,-3.4228,-3.4162,-3.4031,-3.3025,-3.2502,-3.2502,-3.2385,-3.2097,-3.1653,-3.1653,-3.1418,-3.0986,-3.0986,-3.0986,-3.0986,-3.0986,-3.0986,-3.0911,-3.0911,-3.0911,-3.0911,-3.0911,-3.0911,-3.0911,-3.0911,-3.0911,-3.0911,-3.0911,-3.0911,-3.0911,-3.0773,-3.0698,-3.0698,-3.0533,-3.0444,-3.0368,-3.0368,-3.0368,-3.0368,-3.0368,-3.0228,-3.0011,-3.0011,-2.9934,-2.9792,-2.9792,-2.9792,-2.9792,-2.9792,-2.9792,-2.9792,-2.9792,-2.9792,-2.9792,-2.9792,-2.9792,-2.9792,-2.9792,-2.9792,-2.9967,-3.0394,-3.0809,-3.1097,-3.121,-3.1223,-3.1461,-3.2001,-3.1174,-3.0855,-3.1264,-3.0489,-2.9648,-2.8837,-2.8762,-2.8577,-2.82,-2.7579,-2.7262,-2.7262,-2.7262,-2.7262,-2.7262,-2.7262,-2.7262,-2.7262,-2.7262,-2.7262,-2.7262,-2.7262,-2.7262,-2.7262,-2.7262,-2.7262,-2.7262,-3.4524,-3.4577,-3.4577,-3.4397,-3.4397,-3.4397,-3.4397,-3.4397,-3.4397,-3.4397,-3.4397,-3.4397,-3.4397,-3.4397,-3.4397,-3.4397,-3.4397,-3.4397,-3.4397,-3.4397,-3.4397,-3.4397,-3.4397,-3.4397,-3.4397,-3.3809,-3.3378,-3.3117,-3.2829,-3.2542,-3.2241,-3.2241,-3.194,-3.1392,-3.1392,-3.1248,-3.0986,-3.0986,-3.0986,-3.0986,-3.0986,-3.0986,-3.0986,-3.0986,-3.0986,-3.0986,-3.0986,-3.0986,-3.0986,-3.0986,-3.0986,-3.0986,-3.0911,-3.0773,-3.0698,-3.0685,-3.0609,-3.052,-3.0672,-3.0672,-3.0672,-3.0672,-3.0444,-3.0228,-3.0152,-2.9934,-2.9792,-2.9792,-2.9792,-2.9792,-2.9792,-2.9792,-2.9792,-2.9792,-2.9792,-2.9792,-2.9792,-3.0018,-3.0181,-3.0181,-3.0407,-3.067,-3.0959,-3.1235,-3.1499,-3.1763,-3.1788,-3.2026,-3.2591,-3.219,-3.2056,-3.2339,-3.1801,-3.1347,-3.08,-3.0351,-3.0079,-3.0079,-2.8175,-2.7262,-2.7262,-2.7262,-2.7262,-2.7262,-2.7262,-2.7262,-2.7262,-2.7262,-2.7262,-2.7262,-2.7262,-2.7262,-2.7262,-2.7262,-2.7536,-2.8113,-3.4839,-3.4756,-3.466,-3.4397,-3.4397,-3.4397,-3.4397,-3.4397,-3.4397,-3.4397,-3.4397,-3.4397,-3.4397,-3.4397,-3.4397,-3.4397,-3.4397,-3.4397,-3.4397,-3.4397,-3.4397,-3.4397,-3.4397,-3.4397,-3.4397,-3.4397,-3.4175,-3.3731,-3.3234,-3.2934,-3.2842,-3.2842,-3.2542,-3.198,-3.198,-3.1666,-3.113,-3.113,-3.1065,-3.0986,-3.0986,-3.0986,-3.0986,-3.0986,-3.0986,-3.0986,-3.0986,-3.0986,-3.0986,-3.0986,-3.0986,-3.0986,-3.0986,-3.0911,-3.0773,-3.0911,-3.0911,-3.0773,-3.0911,-3.0986,-3.0986,-3.0986,-3.0748,-3.0394,-3.0343,-3.0074,-2.9869,-2.9869,-2.9869,-2.9856,-2.9856,-3.0022,-3.0007,-3.0007,-3.0161,-3.0224,-3.0224,-3.0615,-3.0826,-3.0826,-3.1372,-3.1606,-3.1524,-3.1694,-3.1946,-3.2328,-3.2353,-3.2566,-3.3056,-3.3081,-3.3081,-3.3081,-3.3081,-3.2982,-3.281,-3.1989,-3.1536,-3.1347,-2.9068,-2.7883,-2.7809,-2.7809,-2.7715,-2.7536,-2.7715,-2.7715,-2.7536,-2.7715,-2.7809,-2.7809,-2.7809,-2.7852,-2.7936,-2.8021,-2.8599,-2.9393,-3.4839,-3.4577,-3.4397,-3.4397,-3.4397,-3.4397,-3.4397,-3.4397,-3.4397,-3.4397,-3.4397,-3.4397,-3.4397,-3.4397,-3.4397,-3.4397,-3.4397,-3.4397,-3.4397,-3.4397,-3.4397,-3.4397,-3.4397,-3.4397,-3.4397,-3.4397,-3.4358,-3.4293,-3.4201,-3.3927,-3.347,-3.347,-3.3156,-3.2581,-3.2581,-3.2267,-3.1718,-3.1718,-3.1431,-3.0986,-3.0986,-3.0986,-3.0986,-3.0986,-3.0986,-3.0986,-3.0986,-3.0986,-3.0986,-3.0986,-3.0986,-3.0986,-3.0986,-3.0986,-3.0986,-3.0986,-3.0986,-3.0986,-3.0986,-3.0986,-3.0986,-3.0986,-3.0836,-3.0738,-3.1203,-3.0637,-3.0088,-3.0088,-3.0228,-3.0292,-3.0292,-3.0688,-3.1021,-3.1021,-3.1417,-3.1816,-3.1816,-3.188,-3.1932,-3.1932,-3.2337,-3.2517,-3.2102,-3.271,-3.3123,-3.2955,-3.2955,-3.2993,-3.3081,-3.3081,-3.3081,-3.3081,-3.3081,-3.2711,-3.1801,-3.1625,-3.1169,-3.0362,-3.0422,-3.0226,-2.9806,-2.9806,-2.9349,-2.8538,-2.9441,-2.936,-2.8538,-2.9441,-2.9806,-2.9806,-2.9806,-3.0067,-3.0591,-3.1024,-3.1278,-3.1384,-3.5003,-3.4908,-3.4743,-3.4481,-3.4397,-3.4397,-3.4397,-3.4397,-3.4397,-3.4397,-3.4397,-3.4397,-3.4397,-3.4397,-3.4397,-3.4397,-3.4397,-3.4397,-3.4397,-3.4397,-3.4397,-3.4397,-3.4397,-3.4397,-3.4397,-3.4397,-3.4397,-3.4397,-3.4397,-3.428,-3.4045,-3.4045,-3.3731,-3.3195,-3.3195,-3.2868,-3.2319,-3.2319,-3.1993,-3.147,-3.147,-3.1274,-3.0986,-3.0986,-3.0986,-3.0986,-3.0986,-3.0986,-3.0986,-3.0986,-3.0986,-3.0986,-3.0986,-3.0986,-3.0986,-3.0986,-3.1209,-3.147,-3.147,-3.1692,-3.194,-3.194,-3.1785,-3.1707,-3.194,-3.1654,-3.1316,-3.1238,-3.1304,-3.1382,-3.1382,-3.1575,-3.1662,-3.1662,-3.196,-3.2114,-3.2114,-3.2384,-3.2623,-3.2931,-3.32,-3.327,-3.3089,-3.3246,-3.3398,-3.324,-3.3154,-3.3081,-3.3081,-3.3081,-3.3081,-3.3081,-3.3081,-3.3046,-3.2894,-3.2894,-3.2852,-3.2696,-3.3107,-3.238,-3.0686,-3.0974,-3.0821,-3.0447,-3.0915,-3.0821,-3.0458,-3.0915,-3.1101,-3.1101,-3.1101,-3.1239,-3.1552,-3.2347,-3.2629,-3.2758]},{"header":{"parameterUnit":"m.s-1","parameterCategory":1,"la1":30.6,"la2":28.766,"lo1":-90.7593,"lo2":-88.6598,"dy":0.0162,"dx":0.0183,"nx":116,"ny":114,"refTime":"2023-07-18T12:00:00:Z","depth":0,"parameterNumber":3,"parameterNumberName":"V-component_of_WINDS"},"data":[0.0,0.0,0.0,0.0,0.0,0.0,0.0,0.0,0.0,0.0,0.0,0.0,0.0,0.0,0.0,0.0,0.0,0.0,0.0,0.0,0.0,0.0,0.0,0.0,0.0,0.0,0.0,0.0,0.0,0.0,0.0,0.0,0.0,0.0,0.0,0.0,0.0,0.0,0.0,0.0,0.0,0.0,0.0,0.0,0.0,0.0,0.0,0.0,0.0,0.0,0.0,0.0,0.0,0.0,0.0,0.0,0.0,0.0,0.0,0.0,0.0,0.0,0.0,0.0,0.0,0.0,0.0,0.0,0.0,0.0,0.0,0.0,0.0,0.0,0.0,0.0,0.0,0.0,0.0,0.0,0.0,0.0,0.0,0.0,0.0,0.0,0.0,0.0,0.0,0.0,0.0,0.0,0.0,0.0,0.0,0.0,0.0,0.0,0.0,0.0,0.0,0.0,0.0,0.0,0.0,0.0,0.0,0.0,0.0,0.0,0.0,0.0,0.0,0.0,0.0,0.0,0.0,0.0,0.0,0.0,0.0,0.0,0.0,0.0,0.0,0.0,0.0,0.0,0.0,0.0,0.0,0.0,0.0,0.0,0.0,0.0,0.0,0.0,0.0,0.0,0.0,0.0,0.0,0.0,0.0,0.0,0.0,0.0,0.0,0.0,0.0,0.0,0.0,0.0,0.0,0.0,0.0,0.0,0.0,0.0,0.0,0.0,0.0,0.0,0.0,0.0,0.0,0.0,0.0,0.0,0.0,0.0,0.0,0.0,0.0,0.0,0.0,0.0,0.0,0.0,0.0,0.0,0.0,0.0,0.0,0.0,0.0,0.0,0.0,0.0,0.0,0.0,0.0,0.0,0.0,0.0,0.0,0.0,0.0,0.0,0.0,0.0,0.0,0.0,0.0,0.0,0.0,0.0,0.0,0.0,0.0,0.0,0.0,0.0,0.0,0.0,0.0,0.0,0.0,0.0,0.0,0.0,0.0,0.0,0.0,0.0,0.0,0.0,0.0,0.0,0.0,0.0,0.0,0.0,0.0,0.0,0.0,0.0,0.0,0.0,0.0,0.0,0.0,0.0,0.0,0.0,0.0,0.0,0.0,0.0,0.0,0.0,0.0,0.0,0.0,0.0,0.0,0.0,0.0,0.0,0.0,0.0,0.0,0.0,0.0,0.0,0.0,0.0,0.0,0.0,0.0,0.0,0.0,0.0,0.0,0.0,0.0,0.0,0.0,0.0,0.0,0.0,0.0,0.0,0.0,0.0,0.0,0.0,0.0,0.0,0.0,0.0,0.0,0.0,0.0,0.0,0.0,0.0,0.0,0.0,0.0,0.0,0.0,0.0,0.0,0.0,0.0,0.0,0.0,0.0,0.0,0.0,0.0,0.0,0.0,0.0,0.0,0.0,0.0,0.0,0.0,0.0,0.0,0.0,0.0,0.0,0.0,0.0,0.0,0.0,0.0,0.0,0.0,0.0,0.0,0.0,0.0,0.0,0.0,0.0,0.0,0.0,0.0,0.0,0.0,0.0,0.0,0.0,0.0,0.0,0.0,0.0,0.0,0.0,0.0,0.0,0.0,0.0,0.0,0.0,0.0,0.0,0.0,0.0,0.0,0.0,0.0,0.0,0.0,0.0,0.0,0.0,0.0,0.0,0.0,0.0,0.0,0.0,0.0,0.0,0.0,0.0,0.0,0.0,0.0,0.0,0.0,0.0,0.0,0.0,0.0,0.0,0.0,0.0,0.0,0.0,0.0,0.0,0.0,0.0,0.0,0.0,0.0,0.0,0.0,0.0,0.0,0.0,0.0,0.0,0.0,0.0,0.0,0.0,0.0,0.0,0.0,0.0,0.0,0.0,0.0,0.0,0.0,0.0,0.0,0.0,0.0,0.0,0.0,0.0,0.0,0.0,0.0,0.0,0.0,0.0,0.0,0.0,0.0,0.0,0.0,0.0,0.0,0.0,0.0,0.0,0.0,0.0,0.0,0.0,0.0,0.0,0.0,0.0,0.0,0.0,0.0,0.0,0.0,0.0,0.0,0.0,0.0,0.0,0.0,0.0,0.0,0.0,0.0,0.0,0.0,0.0,0.0,0.0,0.0,0.0,0.0,0.0,0.0,0.0,0.0,0.0,0.0,0.0,0.0,0.0,0.0,0.0,0.0,0.0,0.0,0.0,0.0,0.0,0.0,0.0,0.0,0.0,0.0,0.0,0.0,0.0,0.0,0.0,0.0,0.0,0.0,0.0,0.0,0.0,0.0,0.0,0.0,0.0,0.0,0.0,0.0,0.0,0.0,0.0,0.0,0.0,0.0,0.0,0.0,0.0,0.0,0.0,0.0,0.0,0.0,0.0,0.0,0.0,0.0,0.0,0.0,0.0,0.0,0.0,0.0,0.0,0.0,0.0,0.0,0.0,0.0,0.0,0.0,0.0,0.0,0.0,0.0,0.0,0.0,0.0,0.0,0.0,0.0,0.0,0.0,0.0,0.0,0.0,0.0,0.0,0.0,0.0,0.0,0.0,0.0,0.0,0.0,0.0,0.0,0.0,0.0,0.0,0.0,0.0,0.0,0.0,0.0,0.0,0.0,0.0,0.0,0.0,0.0,0.0,0.0,0.0,0.0,0.0,0.0,0.0,0.0,0.0,0.0,0.0,0.0,0.0,0.0,0.0,0.0,0.0,0.0,0.0,0.0,0.0,0.0,0.0,0.0,0.0,0.0,0.0,0.0,0.0,0.0,0.0,0.0,0.0,0.0,0.0,0.0,0.0,0.0,0.0,0.0,0.0,0.0,0.0,0.0,0.0,0.0,0.0,0.0,0.0,0.0,0.0,0.0,0.0,0.0,0.0,0.0,0.0,0.0,0.0,0.0,0.0,0.0,0.0,0.0,0.0,0.0,0.0,0.0,0.0,0.0,0.0,0.0,0.0,0.0,0.0,0.0,0.0,0.0,0.0,0.0,0.0,0.0,0.0,0.0,0.0,0.0,0.0,0.0,0.0,0.0,0.0,0.0,0.0,0.0,0.0,0.0,0.0,0.0,0.0,0.0,0.0,0.0,0.0,0.0,0.0,0.0,0.0,0.0,0.0,0.0,0.0,0.0,0.0,0.0,0.0,0.0,0.0,0.0,0.0,0.0,0.0,0.0,0.0,0.0,0.0,0.0,0.0,0.0,0.0,0.0,0.0,0.0,0.0,0.0,0.0,0.0,0.0,0.0,0.0,0.0,0.0,0.0,0.0,0.0,0.0,0.0,0.0,0.0,0.0,0.0,0.0,0.0,0.0,0.0,0.0,0.0,0.0,0.0,0.0,0.0,0.0,0.0,0.0,0.0,0.0,0.0,0.0,0.0,0.0,0.0,0.0,0.0,0.0,0.0,0.0,0.0,0.0,0.0,0.0,0.0,0.0,0.0,0.0,0.0,0.0,0.0,0.0,0.0,0.0,0.0,0.0,0.0,0.0,0.0,0.0,0.0,0.0,0.0,0.0,0.0,0.0,0.0,0.0,0.0,0.0,0.0,0.0,0.0,0.0,0.0,0.0,0.0,0.0,0.0,0.0,0.0,0.0,0.0,0.0,0.0,0.0,0.0,0.0,0.0,0.0,0.0,0.0,0.0,0.0,0.0,0.0,0.0,0.0,0.0,0.0,0.0,0.0,0.0,0.0,0.0,0.0,0.0,0.0,0.0,0.0,0.0,0.0,0.0,0.0,0.0,0.0,0.0,0.0,0.0,0.0,0.0,0.0,0.0,0.0,0.0,0.0,0.0,0.0,0.0,0.0,0.0,0.0,0.0,0.0,0.0,0.0,0.0,0.0,0.0,0.0,0.0,0.0,0.0,0.0,0.0,0.0,0.0,0.0,0.0,0.0,0.0,0.0,0.0,0.0,0.0,0.0,0.0,0.0,0.0,0.0,0.0,0.0,0.0,0.0,0.0,0.0,0.0,0.0,0.0,0.0,0.0,0.0,0.0,0.0,0.0,0.0,0.0,0.0,0.0,0.0,0.0,0.0,0.0,0.0,0.0,0.0,0.0,0.0,0.0,0.0,0.0,0.0,0.0,0.0,0.0,0.0,0.0,0.0,0.0,0.0,0.0,0.0,0.0,0.0,0.0,0.0,0.0,0.0,0.0,0.0,0.0,0.0,0.0,0.0,0.0,0.0,0.0,0.0,0.0,0.0,0.0,0.0,0.0,0.0,0.0,0.0,0.0,0.0,0.0,0.0,0.0,0.0,0.0,0.0,0.0,0.0,0.0,0.0,0.0,0.0,0.0,0.0,0.0,0.0,0.0,0.0,0.0,0.0,0.0,0.0,0.0,0.0,0.0,0.0,0.0,0.0,0.0,0.0,0.0,0.0,0.0,0.0,0.0,0.0,0.0,0.0,0.0,0.0,0.0,0.0,0.0,0.0,0.0,0.0,0.0,0.0,0.0,0.0,0.0,0.0,0.0,0.0,0.0,0.0,0.0,0.0,0.0,0.0,0.0,0.0,0.0,0.0,0.0,0.0,0.0,0.0,0.0,0.0,0.0,0.0,0.0,0.0,0.0,0.0,0.0,0.0,0.0,0.0,0.0,0.0,0.0,0.0,0.0,0.0,0.0,0.0,0.0,0.0,0.0,0.0,0.0,0.0,0.0,0.0,0.0,0.0,0.0,0.0,0.0,0.0,0.0,0.0,0.0,0.0,0.0,0.0,0.0,0.0,0.0,0.0,0.0,0.0,0.0,0.0,0.0,0.0,0.0,0.0,0.0,0.0,0.0,0.0,0.0,0.0,0.0,0.0,0.0,0.0,0.0,0.0,0.0,0.0,0.0,0.0,0.0,0.0,0.0,0.0,0.0,0.0,0.0,0.0,0.0,0.0,0.0,0.0,0.0,0.0,0.0,0.0,0.0,0.0,0.0,0.0,0.0,0.0,0.0,0.0,0.0,0.0,0.0,0.0,0.0,0.0,0.0,0.0,0.0,0.0,0.0,0.0,0.0,0.0,0.0,0.0,0.0,0.0,0.0,0.0,0.0,0.0,0.0,0.0,0.0,0.0,0.0,0.0,0.0,0.0,0.0,0.0,0.0,0.0,0.0,0.0,0.0,0.0,0.0,0.0,0.0,0.0,0.0,0.0,0.0,0.0,0.0,0.0,0.0,0.0,0.0,0.0,0.0,0.0,0.0,0.0,0.0,0.0,0.0,0.0,0.0,0.0,0.0,0.0,0.0,0.0,0.0,0.0,0.0,0.0,0.0,0.0,0.0,0.0,0.0,0.0,0.0,0.0,0.0,0.0,0.0,0.0,0.0,0.0,0.0,0.0,0.0,0.0,0.0,0.0,0.0,0.0,0.0,0.0,0.0,0.0,0.0,0.0,0.0,0.0,0.0,0.0,0.0,0.0,0.0,0.0,0.0,0.0,0.0,0.0,0.0,0.0,0.0,0.0,0.0,0.0,0.0,0.0,0.0,0.0,0.0,0.0,0.0,0.0,0.0,0.0,0.0,0.0,0.0,0.0,0.0,0.0,0.0,0.0,0.0,0.0,0.0,0.0,0.0,0.0,0.0,0.0,0.0,0.0,0.0,0.0,0.0,0.0,0.0,0.0,0.0,0.0,0.0,0.0,0.0,0.0,0.0,0.0,0.0,0.0,0.0,0.0,0.0,0.0,0.0,0.0,0.0,0.0,0.0,0.0,0.0,0.0,0.0,0.0,0.0,0.0,0.0,0.0,0.0,0.0,0.0,0.0,0.0,0.0,0.0,0.0,0.0,0.0,0.0,0.0,0.0,0.0,0.0,0.0,0.0,0.0,0.0,0.0,0.0,0.0,0.0,0.0,0.0,0.0,0.0,0.0,0.0,0.0,0.0,0.0,0.0,0.0,0.0,0.0,0.0,0.0,0.0,0.0,0.0,0.0,0.0,0.0,0.0,0.0,0.0,0.0,0.0,0.0,0.0,0.0,0.0,0.0,0.0,0.0,0.0,0.0,0.0,0.0,0.0,0.0,0.0,0.0,0.0,0.0,0.0,0.0,0.0,0.0,0.0,0.0,0.0,0.0,0.0,0.0,0.0,0.0,0.0,0.0,0.0,0.0,0.0,0.0,0.0,0.0,0.0,0.0,0.0,0.0,-3.2615,0.0,0.0,0.0,0.0,0.0,0.0,0.0,0.0,0.0,0.0,0.0,0.0,0.0,0.0,0.0,0.0,0.0,0.0,0.0,0.0,0.0,0.0,0.0,0.0,0.0,0.0,0.0,0.0,0.0,0.0,0.0,0.0,0.0,0.0,0.0,0.0,0.0,0.0,0.0,0.0,0.0,0.0,0.0,0.0,0.0,0.0,0.0,0.0,0.0,0.0,0.0,0.0,0.0,0.0,0.0,0.0,0.0,0.0,0.0,0.0,0.0,0.0,0.0,0.0,0.0,0.0,0.0,0.0,0.0,0.0,0.0,0.0,0.0,0.0,0.0,0.0,0.0,0.0,0.0,0.0,0.0,0.0,0.0,0.0,0.0,0.0,0.0,0.0,0.0,0.0,0.0,0.0,0.0,0.0,0.0,0.0,0.0,0.0,0.0,0.0,0.0,0.0,0.0,0.0,0.0,0.0,0.0,0.0,0.0,0.0,0.0,0.0,0.0,0.0,0.0,0.0,-3.3164,0.0,0.0,0.0,0.0,0.0,0.0,0.0,0.0,0.0,0.0,0.0,0.0,0.0,0.0,0.0,0.0,0.0,0.0,0.0,0.0,0.0,0.0,0.0,0.0,0.0,0.0,0.0,0.0,0.0,0.0,0.0,0.0,0.0,0.0,0.0,0.0,0.0,0.0,0.0,0.0,0.0,0.0,0.0,0.0,0.0,0.0,0.0,0.0,0.0,0.0,0.0,0.0,0.0,0.0,0.0,0.0,0.0,0.0,0.0,0.0,0.0,0.0,0.0,0.0,0.0,0.0,0.0,0.0,0.0,0.0,0.0,0.0,0.0,0.0,0.0,0.0,0.0,0.0,0.0,0.0,0.0,0.0,0.0,0.0,0.0,0.0,0.0,0.0,0.0,0.0,0.0,0.0,0.0,0.0,0.0,0.0,0.0,0.0,0.0,0.0,0.0,0.0,0.0,0.0,0.0,0.0,0.0,0.0,-3.458,-3.4936,-3.5586,-3.5586,-3.5689,-3.5732,-3.4403,-3.3692,-3.345,-3.352,0.0,0.0,0.0,0.0,0.0,0.0,0.0,0.0,0.0,0.0,0.0,0.0,0.0,0.0,0.0,0.0,0.0,0.0,0.0,0.0,0.0,0.0,0.0,0.0,0.0,0.0,0.0,0.0,0.0,0.0,0.0,0.0,0.0,0.0,0.0,0.0,0.0,0.0,0.0,0.0,0.0,0.0,0.0,0.0,0.0,0.0,0.0,0.0,0.0,0.0,0.0,0.0,0.0,0.0,0.0,0.0,0.0,0.0,0.0,0.0,0.0,0.0,0.0,0.0,0.0,0.0,0.0,0.0,0.0,0.0,0.0,0.0,0.0,0.0,0.0,0.0,0.0,0.0,0.0,0.0,0.0,0.0,0.0,0.0,0.0,0.0,-3.1075,-3.1836,0.0,0.0,0.0,0.0,0.0,0.0,0.0,0.0,0.0,0.0,0.0,0.0,0.0,-3.5174,-3.5161,-3.5174,-3.5232,-3.5347,-3.5361,-3.5412,-3.5515,-3.556,-3.5977,-3.662,-3.6428,0.0,-3.5263,-3.5263,0.0,0.0,0.0,0.0,0.0,0.0,0.0,0.0,0.0,0.0,0.0,0.0,0.0,0.0,0.0,0.0,0.0,0.0,0.0,0.0,0.0,0.0,0.0,0.0,0.0,0.0,0.0,0.0,0.0,0.0,0.0,0.0,0.0,0.0,0.0,0.0,0.0,0.0,0.0,0.0,0.0,0.0,0.0,0.0,0.0,0.0,0.0,0.0,0.0,0.0,0.0,0.0,0.0,0.0,0.0,0.0,0.0,0.0,0.0,0.0,0.0,0.0,0.0,0.0,0.0,0.0,0.0,0.0,0.0,0.0,0.0,0.0,0.0,0.0,0.0,0.0,0.0,0.0,0.0,0.0,0.0,0.0,0.0,0.0,0.0,-3.1916,-3.2358,-3.277,-3.2697,-3.279,0.0,0.0,0.0,0.0,0.0,0.0,0.0,0.0,0.0,-3.493,-3.529,-3.5501,-3.5507,-3.5982,-3.6227,-3.6227,-3.6656,-3.6853,-3.6853,-3.6814,-3.6976,-3.7302,-3.7377,-3.7228,-3.6947,-3.6947,-3.6934,-3.6887,0.0,0.0,0.0,0.0,-3.7049,-3.7116,0.0,0.0,0.0,0.0,0.0,0.0,0.0,0.0,0.0,0.0,0.0,0.0,0.0,0.0,0.0,0.0,0.0,0.0,0.0,0.0,0.0,0.0,0.0,0.0,0.0,0.0,0.0,0.0,0.0,0.0,0.0,0.0,0.0,0.0,0.0,0.0,0.0,0.0,0.0,0.0,0.0,0.0,0.0,0.0,0.0,0.0,0.0,0.0,0.0,0.0,0.0,0.0,0.0,0.0,0.0,0.0,0.0,0.0,0.0,0.0,0.0,0.0,0.0,0.0,0.0,0.0,0.0,0.0,0.0,0.0,0.0,0.0,0.0,0.0,0.0,0.0,0.0,-3.2931,-3.3414,-3.3696,-3.3541,-3.3509,0.0,0.0,0.0,0.0,0.0,0.0,-3.5464,-3.574,-3.5862,-3.5828,-3.6042,-3.6157,-3.6169,-3.6812,-3.7134,-3.7074,-3.7695,-3.7954,-3.7924,-3.7862,-3.7929,-3.8123,-3.8201,-3.8366,-3.8508,-3.8195,-3.8003,-3.7905,-3.7905,-3.7964,-3.8047,-3.8047,-3.8106,-3.8199,0.0,0.0,0.0,0.0,0.0,0.0,0.0,0.0,0.0,0.0,0.0,0.0,0.0,0.0,0.0,0.0,0.0,0.0,0.0,0.0,0.0,0.0,0.0,0.0,0.0,0.0,0.0,0.0,0.0,0.0,0.0,0.0,0.0,0.0,0.0,0.0,0.0,0.0,0.0,0.0,0.0,0.0,0.0,0.0,0.0,0.0,0.0,0.0,0.0,0.0,0.0,0.0,0.0,0.0,0.0,0.0,0.0,0.0,0.0,0.0,0.0,0.0,0.0,0.0,0.0,0.0,0.0,0.0,0.0,0.0,0.0,0.0,0.0,0.0,0.0,0.0,0.0,0.0,0.0,-3.4525,-3.441,0.0,0.0,0.0,0.0,-3.5425,-3.5502,-3.5521,-3.5496,-3.6356,-3.6813,-3.6749,-3.7546,-3.7964,-3.7964,-3.8003,-3.7968,-3.7847,-3.8086,-3.8125,-3.8007,-3.8125,-3.8569,-3.9225,-3.9225,-3.9525,-3.9891,-3.8686,-3.8201,-3.8175,-3.8175,-3.8187,-3.8187,-3.8187,-3.8187,-3.8199,0.0,0.0,0.0,0.0,0.0,0.0,0.0,0.0,0.0,0.0,0.0,0.0,0.0,0.0,0.0,0.0,0.0,0.0,0.0,0.0,0.0,0.0,0.0,0.0,0.0,0.0,0.0,0.0,0.0,0.0,0.0,0.0,0.0,0.0,0.0,0.0,0.0,0.0,0.0,0.0,0.0,0.0,0.0,0.0,0.0,0.0,0.0,0.0,0.0,0.0,0.0,0.0,0.0,0.0,0.0,0.0,0.0,0.0,0.0,0.0,0.0,0.0,0.0,0.0,0.0,0.0,0.0,0.0,0.0,0.0,0.0,0.0,0.0,0.0,0.0,0.0,0.0,0.0,0.0,-3.5305,-3.5173,0.0,-3.5601,-3.5538,-3.572,-3.6292,-3.6363,-3.6607,-3.7134,-3.7482,-3.7656,-3.7635,-3.7932,-3.8099,-3.8092,-3.8653,-3.8903,-3.8863,-3.9417,-3.961,-3.9506,-4.003,-4.0346,-4.0558,-4.1151,-4.1533,-4.1664,-4.1297,-4.0415,-3.9298,-3.9298,-3.9352,-3.9418,-3.9418,-3.9484,-3.9546,0.0,0.0,0.0,0.0,0.0,0.0,0.0,0.0,0.0,0.0,0.0,0.0,0.0,0.0,0.0,0.0,0.0,0.0,0.0,0.0,0.0,0.0,0.0,0.0,0.0,0.0,0.0,0.0,0.0,0.0,0.0,0.0,0.0,0.0,0.0,0.0,0.0,0.0,0.0,0.0,0.0,0.0,-3.168,0.0,0.0,0.0,0.0,0.0,0.0,0.0,0.0,0.0,0.0,0.0,0.0,0.0,0.0,0.0,0.0,0.0,0.0,0.0,0.0,0.0,0.0,0.0,0.0,0.0,0.0,0.0,0.0,0.0,0.0,0.0,0.0,0.0,0.0,0.0,-3.5612,-3.5688,-3.5828,-3.5933,-3.6029,-3.624,-3.6614,-3.7192,-3.7244,-3.7494,-3.8073,-3.8369,-3.8537,-3.8529,-3.8859,-3.9013,-3.9019,-3.985,-4.0256,-4.0216,-4.0988,-4.1316,-4.1182,-4.1667,-4.1796,-4.1705,-4.2326,-4.2576,-4.2552,-4.2638,-4.1907,-4.0745,-4.0834,-4.0939,-4.0998,-4.0998,-4.1073,-4.1144,0.0,0.0,0.0,0.0,0.0,0.0,0.0,0.0,0.0,0.0,0.0,0.0,0.0,0.0,0.0,0.0,0.0,0.0,0.0,0.0,0.0,0.0,0.0,0.0,0.0,0.0,0.0,0.0,0.0,0.0,0.0,0.0,0.0,0.0,0.0,0.0,0.0,0.0,0.0,0.0,0.0,0.0,-3.3395,0.0,0.0,0.0,0.0,0.0,0.0,0.0,0.0,0.0,0.0,0.0,0.0,0.0,0.0,0.0,0.0,0.0,0.0,0.0,0.0,0.0,0.0,0.0,0.0,0.0,0.0,0.0,0.0,0.0,0.0,0.0,0.0,0.0,-3.5716,-3.5681,-3.568,-3.5757,-3.6353,-3.679,-3.6922,-3.7654,-3.8097,-3.8138,-3.8138,-3.8157,-3.8176,-3.8975,-3.9445,-3.9483,-4.0359,-4.0848,-4.0868,-4.1629,-4.1961,-4.1825,-4.2691,-4.303,-4.2889,-4.2833,-4.2757,-4.2635,-4.2654,-4.2607,-4.2488,-4.2488,-4.2488,-4.2492,-4.2717,-4.2776,-4.2776,-4.2776,-4.2776,-4.2776,0.0,0.0,0.0,0.0,0.0,0.0,0.0,0.0,0.0,0.0,0.0,0.0,0.0,0.0,0.0,0.0,0.0,0.0,0.0,0.0,0.0,0.0,0.0,0.0,0.0,0.0,0.0,0.0,0.0,0.0,0.0,0.0,0.0,0.0,0.0,0.0,0.0,0.0,0.0,0.0,0.0,0.0,-3.3395,0.0,0.0,0.0,0.0,0.0,0.0,0.0,0.0,0.0,0.0,0.0,0.0,0.0,0.0,0.0,0.0,0.0,0.0,0.0,0.0,0.0,0.0,0.0,0.0,0.0,0.0,0.0,0.0,0.0,0.0,0.0,0.0,-3.7199,-3.6652,-3.6477,-3.6642,-3.7296,-3.7526,-3.7676,-3.777,-3.7839,-3.8159,-3.8858,-3.8907,-3.9172,-3.9822,-4.0082,-4.053,-4.126,-4.1362,-4.172,-4.2379,-4.2511,-4.2556,-4.2541,-4.2771,-4.2813,-4.2698,-4.3307,-4.3509,-4.343,-4.4018,-4.426,-4.4213,-4.4213,-4.4213,-4.4099,-4.2959,-4.2509,-4.2509,-4.2509,-4.2509,-4.2509,0.0,0.0,0.0,0.0,0.0,0.0,0.0,0.0,0.0,0.0,0.0,0.0,0.0,0.0,0.0,0.0,0.0,0.0,0.0,0.0,0.0,0.0,0.0,0.0,0.0,0.0,0.0,0.0,0.0,0.0,0.0,0.0,0.0,0.0,0.0,0.0,0.0,0.0,0.0,0.0,0.0,-3.4456,-3.4447,-3.4447,-3.4411,-3.438,-3.436,-3.4292,-3.4259,-3.4253,0.0,0.0,0.0,0.0,0.0,0.0,0.0,0.0,0.0,0.0,0.0,0.0,0.0,0.0,0.0,0.0,0.0,0.0,0.0,0.0,0.0,0.0,0.0,0.0,-3.8125,-3.8053,-3.7954,-3.7555,-3.7478,-3.7978,-3.8358,-3.857,-3.857,-3.8785,-3.9157,-3.9704,-4.0085,-4.0519,-4.1094,-4.1397,-4.184,-4.244,-4.2228,-4.2352,-4.2921,-4.3195,-4.3349,-4.3349,-4.3656,-4.3768,-4.3704,-4.4132,-4.4269,-4.4232,-4.4706,-4.4895,-4.4895,-4.4895,-4.4895,0.0,0.0,0.0,0.0,0.0,-4.3455,-4.3455,0.0,0.0,0.0,0.0,0.0,0.0,0.0,0.0,0.0,0.0,0.0,0.0,0.0,0.0,0.0,0.0,0.0,0.0,0.0,0.0,0.0,0.0,0.0,0.0,0.0,0.0,0.0,0.0,0.0,0.0,0.0,0.0,0.0,0.0,0.0,0.0,0.0,0.0,0.0,0.0,0.0,-3.5898,-3.5903,-3.5883,-3.5879,-3.5872,-3.5807,-3.5754,-3.5718,-3.5708,0.0,0.0,0.0,0.0,0.0,0.0,0.0,0.0,0.0,0.0,0.0,0.0,0.0,0.0,0.0,0.0,0.0,0.0,0.0,0.0,0.0,0.0,0.0,0.0,-3.8427,-3.8651,-3.943,-3.8863,-3.8373,-3.8353,-3.9036,-3.9504,-3.9454,-4.0165,-4.0662,-4.0735,-4.147,-4.1959,-4.2058,0.0,0.0,0.0,0.0,-4.2967,-4.3063,-4.3829,-4.4193,-4.4193,-4.4853,-4.517,-4.517,-4.4967,-4.4895,-4.4895,-4.4895,-4.4895,-4.4895,-4.4895,-4.4895,-4.4895,-4.4895,-4.4895,-4.4895,-4.4895,-4.4895,-4.4895,0.0,0.0,0.0,0.0,0.0,0.0,0.0,0.0,0.0,0.0,0.0,0.0,0.0,0.0,0.0,0.0,0.0,0.0,0.0,0.0,0.0,0.0,0.0,0.0,0.0,0.0,0.0,0.0,0.0,0.0,0.0,0.0,0.0,0.0,0.0,0.0,0.0,0.0,0.0,0.0,0.0,-3.5857,-3.5885,-3.5838,-3.5815,-3.5826,-3.5799,-3.5791,-3.5773,-3.5727,-3.5699,-3.5708,-3.5725,0.0,0.0,0.0,0.0,0.0,0.0,0.0,0.0,0.0,0.0,0.0,0.0,0.0,0.0,0.0,0.0,0.0,0.0,0.0,0.0,-4.0101,-4.0204,-4.0249,-4.0351,-4.0183,-4.0008,-3.9957,-4.0092,-4.0425,-4.0994,-4.1243,-4.1608,-4.2144,-4.2488,-4.2639,-4.2489,-4.2603,-4.3063,-4.3884,-4.3666,-4.3919,-4.4739,-4.4741,-4.4744,-4.4744,0.0,0.0,-4.4943,-4.4919,-4.4895,-4.4895,-4.4895,-4.4895,-4.4895,-4.4895,-4.4895,-4.4895,-4.4895,-4.4895,-4.4895,-4.4895,-4.4895,-4.4895,0.0,0.0,0.0,0.0,0.0,0.0,0.0,0.0,0.0,0.0,0.0,0.0,0.0,0.0,0.0,0.0,0.0,0.0,0.0,0.0,0.0,0.0,0.0,0.0,0.0,0.0,0.0,0.0,0.0,0.0,0.0,0.0,0.0,0.0,0.0,0.0,0.0,0.0,0.0,0.0,0.0,-3.563,-3.5717,-3.5763,-3.5782,-3.5745,-3.5745,-3.5747,-3.5737,-3.5718,-3.5707,-3.5707,-3.5695,-3.5704,-3.5704,0.0,0.0,0.0,0.0,0.0,0.0,0.0,0.0,0.0,0.0,0.0,0.0,0.0,0.0,-3.963,0.0,0.0,-4.0243,-4.0688,-4.0673,-4.0733,-4.1138,-4.1104,-4.1058,-4.1056,-4.1088,-4.1349,-4.1991,-4.2183,-4.2336,-4.2579,-4.31,-4.3388,-4.3349,-4.3708,-4.4128,-4.4631,-4.441,-4.4545,-4.5038,-4.4943,-4.4895,-4.4895,-4.4895,-4.4895,-4.4895,-4.4895,-4.4895,-4.4895,-4.4895,-4.4895,-4.4895,-4.4895,-4.4895,-4.4895,-4.4895,-4.4895,-4.4895,-4.4895,-4.4895,-4.4895,0.0,0.0,0.0,0.0,0.0,0.0,0.0,0.0,0.0,0.0,0.0,0.0,0.0,0.0,0.0,0.0,0.0,0.0,0.0,0.0,0.0,0.0,0.0,0.0,0.0,0.0,0.0,0.0,0.0,0.0,0.0,0.0,0.0,0.0,0.0,0.0,0.0,0.0,0.0,0.0,0.0,-3.5399,-3.5469,-3.5649,-3.5699,-3.5689,-3.5689,-3.5707,-3.5704,-3.5704,-3.5704,-3.5704,-3.5704,-3.5704,-3.5723,-3.5897,-3.5936,0.0,0.0,0.0,0.0,0.0,0.0,0.0,0.0,0.0,-3.9758,-3.9758,-4.0307,-4.079,-4.079,-4.0713,-4.0725,-4.0965,-4.0834,-4.1011,-4.1873,-4.1888,-4.1875,-4.2099,-4.2036,-4.2195,-4.2791,-4.3005,-4.3082,-4.3052,-4.3721,-4.4166,-4.4249,-4.4813,-4.5148,-4.5148,-4.4967,-4.4895,-4.4895,-4.4895,-4.4895,-4.4895,-4.4895,-4.4895,-4.4895,-4.4895,-4.4895,-4.4895,-4.4895,-4.4895,-4.4895,-4.4895,-4.4895,-4.4895,-4.4895,-4.4895,-4.4895,-4.4895,-4.4895,-4.4895,0.0,0.0,0.0,0.0,0.0,0.0,0.0,0.0,0.0,0.0,0.0,0.0,0.0,0.0,0.0,0.0,0.0,0.0,0.0,0.0,0.0,0.0,0.0,0.0,0.0,0.0,0.0,0.0,0.0,0.0,0.0,0.0,0.0,0.0,0.0,0.0,0.0,0.0,0.0,0.0,0.0,-3.5311,-3.5326,-3.534,-3.5496,-3.5695,-3.5695,-3.5695,-3.5704,-3.5704,-3.5704,-3.5704,-3.5704,-3.5704,-3.5839,-3.6555,0.0,-3.6961,-3.7831,-3.7986,-3.7947,-3.8025,-3.8702,-3.934,0.0,0.0,-4.0636,-4.0636,-4.0732,-4.079,-4.079,-4.0654,-4.0795,-4.1551,-4.1555,-4.1757,-4.2582,-4.2565,-4.2791,-4.3554,-4.2983,-4.2849,-4.3666,-4.3764,-4.4024,-4.4602,-4.4893,-4.4973,-4.4815,-4.4887,-4.4919,-4.4919,-4.4895,-4.4895,-4.4895,-4.4895,-4.4895,-4.4895,-4.4895,-4.4895,-4.4895,-4.4895,-4.4895,-4.4895,-4.4895,-4.4895,-4.4895,-4.4895,-4.4895,-4.4895,-4.4895,-4.4895,-4.4895,-4.4895,-4.4895,-4.4895,0.0,0.0,0.0,0.0,0.0,0.0,0.0,0.0,0.0,0.0,0.0,0.0,0.0,0.0,0.0,0.0,0.0,0.0,0.0,0.0,0.0,0.0,0.0,0.0,0.0,0.0,0.0,0.0,0.0,0.0,0.0,0.0,0.0,0.0,0.0,0.0,0.0,0.0,0.0,0.0,0.0,-3.5122,-3.5187,-3.5187,-3.5296,-3.5476,-3.5476,-3.5476,0.0,0.0,-3.5515,-3.5584,-3.5584,-3.5948,-3.6447,-3.6716,-3.7204,0.0,-3.8102,-3.8934,0.0,0.0,-3.9611,-4.0249,-4.0249,-4.0539,-4.0778,-4.0654,-4.0621,-4.0747,-4.1193,-4.1187,-4.1404,0.0,-4.2278,-4.2488,-4.3329,-4.3316,-4.3574,-4.4541,-4.4246,-4.4083,-4.4444,-4.4573,-4.4725,-4.49,-4.4986,-4.501,-4.4895,-4.4895,-4.4895,-4.4895,-4.4895,-4.4895,-4.4895,-4.4895,-4.4895,-4.4895,-4.4895,-4.4895,-4.4895,-4.4895,-4.4895,-4.4895,-4.4895,-4.4895,-4.4895,-4.4895,-4.4895,-4.4895,-4.4895,-4.4895,-4.4895,-4.4895,-4.4895,-4.4895,0.0,0.0,0.0,0.0,0.0,0.0,0.0,0.0,0.0,0.0,0.0,0.0,0.0,0.0,0.0,0.0,0.0,0.0,0.0,0.0,0.0,0.0,0.0,0.0,0.0,0.0,0.0,0.0,0.0,0.0,0.0,0.0,0.0,0.0,0.0,0.0,0.0,0.0,0.0,0.0,0.0,-3.4945,-3.5053,-3.5053,-3.5105,-3.5203,-3.5266,-3.5315,0.0,0.0,-3.5686,-3.5828,-3.6045,-3.66,-3.718,-3.731,-3.8026,-3.8788,-3.8788,0.0,0.0,-3.9882,-4.021,-4.0654,-4.0654,-4.0654,-4.0626,-4.0481,-4.0642,-4.0976,-4.1508,-4.1742,-4.2145,-4.2967,-4.2981,-4.32,-4.4056,-4.4075,-4.4298,-4.5026,-4.501,-4.4895,-4.4895,-4.5014,-4.5057,-4.4895,-4.4895,-4.4895,-4.4895,-4.4895,-4.4895,-4.4895,-4.4895,-4.4895,-4.4895,-4.4895,-4.4895,-4.4895,-4.4895,-4.4895,-4.4895,-4.4895,-4.4895,-4.4895,-4.4895,-4.4895,-4.4895,-4.4895,-4.4895,-4.4895,-4.4895,-4.4895,-4.4895,-4.4895,-4.4895,-4.4895,0.0,0.0,0.0,0.0,0.0,0.0,0.0,0.0,0.0,0.0,0.0,0.0,0.0,0.0,0.0,0.0,0.0,0.0,0.0,0.0,0.0,0.0,0.0,0.0,0.0,0.0,0.0,0.0,0.0,0.0,0.0,0.0,0.0,0.0,0.0,0.0,0.0,0.0,0.0,0.0,-3.4889,-3.4889,-3.4908,-3.4908,-3.4927,-3.4964,-3.5203,0.0,0.0,0.0,-3.6469,-3.6623,-3.7466,-3.7753,0.0,-3.8769,-3.9591,0.0,0.0,0.0,-4.0317,-4.0279,-4.0298,-4.0317,-4.0317,-4.0317,-4.0317,-4.0317,-4.0991,-4.1567,-4.1605,-4.2145,-4.2846,-4.3743,-4.3741,-4.3947,-4.4743,-4.4876,-4.4876,-4.4895,-4.4895,-4.4895,0.0,-4.4914,-4.4895,-4.4895,-4.4895,-4.4895,-4.4895,-4.4895,-4.4895,-4.4895,-4.4895,-4.4895,-4.4895,-4.4895,-4.4895,-4.4895,-4.4895,-4.4895,-4.4895,-4.4895,-4.4895,-4.4895,-4.4895,-4.4895,-4.4895,-4.4895,-4.4895,-4.4895,-4.4895,-4.4895,-4.4895,-4.4895,-4.4895,-4.4895,0.0,0.0,0.0,0.0,0.0,0.0,0.0,0.0,0.0,0.0,0.0,0.0,0.0,0.0,0.0,0.0,0.0,0.0,0.0,0.0,0.0,0.0,0.0,0.0,0.0,0.0,0.0,0.0,0.0,0.0,0.0,0.0,0.0,0.0,0.0,0.0,0.0,0.0,0.0,0.0,-3.4749,-3.4751,-3.481,-3.473,-3.471,-3.471,0.0,0.0,0.0,0.0,0.0,0.0,-3.7408,0.0,0.0,-3.9648,-4.002,-4.0176,0.0,0.0,-4.03,-4.03,-4.03,-4.03,-4.03,-4.03,-4.0436,-4.0921,-4.1266,-4.178,-4.28,-4.3171,-4.3605,-4.444,-4.4545,-4.4592,-4.4857,-4.4895,-4.4895,-4.4895,-4.4895,0.0,0.0,0.0,0.0,-4.4895,-4.4895,-4.4895,-4.4895,-4.4895,-4.4895,-4.4895,-4.4895,-4.4895,-4.4895,-4.4895,-4.4895,-4.4895,-4.4895,-4.4895,-4.4895,-4.4895,-4.4895,-4.4895,-4.4895,-4.4895,-4.487,-4.4655,-4.4584,-4.4557,-4.4299,-4.426,-4.426,-4.426,-4.426,-4.4318,0.0,0.0,0.0,0.0,0.0,0.0,0.0,0.0,0.0,0.0,0.0,0.0,0.0,0.0,0.0,0.0,0.0,0.0,0.0,0.0,0.0,0.0,0.0,0.0,0.0,0.0,0.0,0.0,0.0,0.0,0.0,0.0,0.0,0.0,0.0,0.0,0.0,0.0,0.0,0.0,0.0,-3.4645,-3.4727,-3.4645,-3.4602,0.0,0.0,0.0,0.0,0.0,0.0,0.0,0.0,-3.8823,-3.949,-4.0005,-4.0101,-4.006,0.0,-4.0158,-4.0158,-4.0158,-4.0158,-4.0158,-4.0158,-4.0387,-4.0769,-4.1241,-4.1789,-4.2528,-4.3516,-4.3929,-4.4308,-4.4819,-4.4895,-4.4895,-4.4895,-4.4895,-4.4895,-4.4895,-4.4895,-4.4895,0.0,0.0,0.0,-4.4895,-4.4895,-4.4895,-4.4895,-4.4895,-4.4895,-4.4895,-4.4895,-4.4895,-4.4895,-4.4895,-4.4895,-4.4895,-4.4895,-4.4846,-4.4707,-4.4707,-4.4655,-4.453,-4.453,-4.453,-4.453,-4.4299,-4.4213,-4.4213,-4.3974,-4.3912,-4.3912,-4.3912,-4.3974,-4.4125,0.0,0.0,0.0,0.0,0.0,0.0,0.0,0.0,0.0,0.0,0.0,0.0,0.0,0.0,0.0,0.0,0.0,0.0,0.0,0.0,0.0,0.0,0.0,0.0,-3.1808,-3.1812,-3.2612,-3.4274,0.0,0.0,0.0,0.0,0.0,0.0,0.0,0.0,0.0,0.0,0.0,0.0,0.0,0.0,-3.4602,-3.4583,0.0,0.0,0.0,0.0,0.0,0.0,0.0,0.0,0.0,0.0,-3.9889,-3.9889,-3.9889,-3.9889,-3.9889,-3.9889,-3.9889,-3.9889,-3.9889,-3.9908,-3.9946,-4.0612,-4.1219,-4.1313,-4.2602,-4.3701,0.0,0.0,-4.4895,-4.4895,-4.4895,-4.4895,-4.4895,-4.4895,-4.4895,0.0,0.0,0.0,0.0,0.0,0.0,-4.4895,0.0,-4.4895,-4.4895,-4.4895,-4.4895,-4.4895,-4.487,-4.487,-4.4895,-4.4895,-4.4895,-4.4895,-4.487,-4.4707,-4.4383,-4.4383,-4.4213,-4.3912,-4.3912,-4.3912,-4.3912,-4.3881,-4.3881,-4.3881,-4.3849,-4.3849,-4.3849,-4.3849,-4.4065,-4.427,0.0,0.0,0.0,0.0,0.0,0.0,0.0,0.0,0.0,0.0,0.0,0.0,0.0,0.0,0.0,0.0,0.0,0.0,0.0,0.0,0.0,0.0,0.0,0.0,0.0,-3.0886,-3.1871,0.0,0.0,0.0,0.0,0.0,0.0,0.0,0.0,0.0,0.0,0.0,0.0,0.0,0.0,-3.4363,-3.445,0.0,0.0,0.0,0.0,0.0,0.0,0.0,0.0,0.0,0.0,0.0,-3.9889,-3.9889,-3.9889,-3.9889,-3.9889,-3.9889,-3.9889,-3.9889,-3.9889,-4.006,-4.0726,-4.1048,-4.156,-4.281,-4.3398,-4.3891,0.0,0.0,0.0,-4.4895,-4.4895,0.0,-4.4895,-4.4895,0.0,0.0,0.0,-4.4895,-4.4895,-4.4895,0.0,0.0,-4.4895,-4.4895,-4.4895,-4.4895,-4.4895,-4.4895,-4.4655,-4.4655,-4.4895,-4.4895,-4.4895,-4.4895,-4.4655,-4.4484,-4.4383,-4.4154,-4.3974,-4.3912,-4.3912,-4.3912,-4.3881,-4.3623,-4.3523,-4.349,-4.3231,-4.3142,-4.3142,-4.3142,-4.3213,-4.3266,0.0,0.0,0.0,0.0,0.0,0.0,0.0,0.0,0.0,0.0,0.0,0.0,0.0,0.0,0.0,0.0,0.0,0.0,0.0,0.0,0.0,0.0,0.0,0.0,0.0,0.0,0.0,0.0,0.0,0.0,0.0,0.0,0.0,0.0,0.0,0.0,0.0,0.0,0.0,0.0,0.0,0.0,0.0,0.0,0.0,0.0,0.0,0.0,0.0,0.0,0.0,-3.8508,-3.8575,-3.9186,-3.9889,-3.9889,0.0,-3.9889,-3.9889,-3.9889,-3.9889,-3.9889,-3.9889,-4.0138,-4.101,-4.1484,-4.2109,-4.3436,-4.3985,0.0,0.0,0.0,0.0,0.0,0.0,0.0,-4.4895,-4.4895,-4.4895,0.0,-4.4895,0.0,-4.4681,-4.4802,-4.4846,0.0,-4.4802,-4.4895,-4.4895,-4.4777,-4.4681,-4.4681,-4.4374,-4.4327,-4.4681,-4.4681,-4.4681,-4.4681,-4.4327,-4.4106,-4.3955,-4.3786,-4.359,-4.3474,0.0,-4.3474,-4.344,-4.3249,-4.3178,-4.3178,-4.2976,-4.2882,-4.2882,-4.2882,-4.2976,-4.3105,0.0,0.0,0.0,0.0,0.0,0.0,0.0,0.0,0.0,0.0,0.0,0.0,0.0,0.0,0.0,0.0,0.0,0.0,0.0,0.0,0.0,0.0,0.0,0.0,0.0,0.0,0.0,0.0,0.0,0.0,0.0,0.0,0.0,0.0,0.0,0.0,0.0,0.0,0.0,0.0,0.0,0.0,0.0,0.0,0.0,0.0,0.0,0.0,0.0,0.0,-3.6246,-3.8335,-3.8361,-3.9069,-3.9889,-3.9889,-3.9889,-3.9889,-3.9889,-3.9889,-3.9889,-3.9889,-3.9889,-4.0154,-4.1143,-4.1901,-4.2678,-4.3663,0.0,-4.4895,-4.4895,0.0,-4.4895,-4.4895,0.0,-4.4895,-4.4895,-4.4895,-4.4895,-4.4895,-4.487,-4.4751,-4.4484,-4.4681,-4.4707,-4.4411,-4.4681,-4.4827,-4.4827,-4.4557,-4.4355,-4.427,-4.4035,-4.4035,-4.427,-4.4299,-4.4327,-4.4327,-4.3986,-4.3689,-4.3406,-4.3336,-4.3178,-4.2882,-4.2882,-4.2882,-4.2882,-4.2882,-4.2882,-4.2882,-4.2882,-4.2882,-4.2882,-4.2882,-4.3087,-4.3336,0.0,0.0,0.0,0.0,0.0,0.0,0.0,0.0,0.0,0.0,0.0,0.0,0.0,0.0,0.0,0.0,0.0,0.0,0.0,0.0,0.0,0.0,0.0,0.0,0.0,0.0,0.0,0.0,0.0,0.0,0.0,0.0,0.0,0.0,0.0,0.0,0.0,0.0,0.0,0.0,0.0,0.0,0.0,0.0,0.0,0.0,0.0,0.0,0.0,0.0,-3.5807,-3.753,-3.7577,-3.8639,-3.9889,-3.9889,-3.9889,-3.9889,-3.9889,-3.9889,-3.9889,-3.9889,-3.9889,-4.0287,-4.1844,-4.2299,0.0,0.0,0.0,-4.4895,-4.4895,-4.4895,0.0,-4.4895,0.0,0.0,0.0,0.0,-4.4895,0.0,0.0,0.0,0.0,0.0,0.0,0.0,0.0,-4.4484,-4.4484,-4.443,-4.4154,-4.359,-4.3786,-4.3786,-4.359,-4.3849,-4.4004,-4.3974,-4.3656,-4.3474,-4.3406,-4.3105,-4.2957,-4.2882,-4.2882,0.0,-4.2882,-4.2882,-4.2882,-4.2882,-4.2882,-4.2882,-4.2882,-4.2882,-4.292,-4.2995,0.0,0.0,0.0,0.0,0.0,0.0,0.0,0.0,0.0,0.0,-2.7373,0.0,0.0,0.0,0.0,0.0,0.0,0.0,0.0,0.0,0.0,0.0,0.0,0.0,0.0,0.0,0.0,0.0,0.0,0.0,0.0,0.0,0.0,0.0,0.0,0.0,0.0,0.0,0.0,0.0,0.0,0.0,0.0,0.0,0.0,0.0,0.0,0.0,0.0,0.0,-3.5691,-3.7322,-3.7345,-3.8523,-3.9889,-3.9889,-3.9889,-3.9889,-3.9889,-3.9889,-3.9889,-3.9889,-3.9889,-4.0325,-4.2033,0.0,0.0,0.0,0.0,-4.4895,-4.4895,0.0,0.0,0.0,0.0,0.0,0.0,0.0,0.0,0.0,0.0,0.0,0.0,0.0,0.0,0.0,0.0,-4.4154,-4.4154,-4.3955,-4.3638,-4.3142,-4.3456,-4.3557,-4.3406,-4.3557,-4.3623,-4.3623,-4.3301,-4.3142,-4.3142,-4.2976,-4.2882,-4.2882,-4.2882,-4.2882,-4.2882,-4.2882,-4.2882,-4.2882,-4.2882,-4.2882,-4.2882,-4.2882,-4.2882,-4.2882,0.0,0.0,0.0,0.0,0.0,0.0,0.0,0.0,-2.7103,-2.7152,-2.7201,-2.7359,-2.76,-2.784,0.0,0.0,0.0,0.0,0.0,0.0,0.0,0.0,0.0,0.0,0.0,0.0,0.0,0.0,0.0,0.0,0.0,0.0,0.0,0.0,0.0,0.0,0.0,0.0,0.0,0.0,0.0,0.0,0.0,0.0,0.0,0.0,0.0,0.0,0.0,0.0,-3.5623,-3.713,-3.7175,-3.8436,-3.9889,-3.9826,-3.9848,-3.9889,-3.9889,-3.9889,-3.9889,-3.9889,-3.9889,-4.0325,-4.2033,-4.2412,0.0,0.0,-4.4895,-4.4895,-4.4895,0.0,0.0,0.0,0.0,0.0,0.0,0.0,0.0,0.0,0.0,0.0,0.0,0.0,0.0,0.0,0.0,0.0,-4.3786,-4.3474,-4.3178,-4.292,-4.3142,-4.3301,-4.3301,-4.3301,-4.3301,-4.3301,-4.3014,-4.2882,-4.2882,-4.2882,-4.2882,-4.2882,-4.2882,-4.2882,-4.2882,-4.2882,-4.2882,-4.2882,-4.2882,-4.2882,-4.2882,-4.2882,-4.2882,-4.2882,0.0,0.0,0.0,0.0,0.0,0.0,0.0,0.0,-2.7072,-2.725,-2.7184,-2.7166,-2.7313,-2.7569,0.0,0.0,0.0,0.0,0.0,0.0,0.0,0.0,0.0,0.0,0.0,0.0,0.0,0.0,0.0,0.0,0.0,0.0,0.0,0.0,0.0,0.0,0.0,0.0,0.0,0.0,0.0,0.0,0.0,0.0,0.0,0.0,0.0,0.0,0.0,0.0,0.0,-3.6612,-3.6789,-3.8263,-3.9867,-3.9599,0.0,0.0,-3.9889,-3.9889,-3.9889,-3.9889,-3.9889,-4.0325,-4.2033,0.0,0.0,0.0,-4.4895,-4.4895,-4.4895,-4.4895,0.0,0.0,0.0,0.0,0.0,0.0,0.0,0.0,0.0,0.0,0.0,0.0,0.0,0.0,0.0,0.0,-4.344,-4.3124,-4.292,-4.2882,-4.292,-4.2957,-4.2957,-4.2957,-4.2957,-4.2957,-4.292,-4.2882,-4.2882,-4.2882,-4.2882,-4.2882,-4.2882,-4.2882,0.0,-4.2882,-4.2882,-4.2882,-4.2882,-4.2882,-4.2882,-4.2882,-4.2882,-4.2882,0.0,0.0,0.0,0.0,0.0,0.0,0.0,-2.6808,-2.6842,-2.6973,-2.707,-2.7166,-2.739,-2.7526,0.0,0.0,0.0,0.0,0.0,0.0,0.0,0.0,0.0,0.0,0.0,0.0,0.0,0.0,0.0,0.0,0.0,0.0,0.0,0.0,0.0,0.0,0.0,0.0,0.0,0.0,0.0,0.0,0.0,0.0,0.0,0.0,0.0,0.0,0.0,0.0,0.0,0.0,-3.6408,-3.7877,0.0,0.0,-3.9575,-3.9693,-3.9867,-3.9889,-3.9889,-3.9889,-3.9889,-4.0325,-4.2033,0.0,0.0,-4.4554,-4.4895,-4.4895,-4.4895,-4.4895,-4.4895,0.0,0.0,0.0,0.0,0.0,0.0,0.0,0.0,0.0,0.0,0.0,0.0,0.0,0.0,0.0,-4.3069,-4.2976,-4.2882,-4.2882,-4.2882,-4.2882,-4.2882,-4.2882,-4.2882,-4.2882,-4.2882,-4.2882,-4.2882,-4.2882,-4.2882,-4.2882,-4.2882,-4.2882,0.0,-4.2882,-4.2882,-4.2882,-4.2882,-4.2882,-4.2882,-4.2882,-4.2882,-4.2882,0.0,0.0,0.0,0.0,0.0,0.0,-2.6455,-2.6657,-2.6725,-2.6791,-2.7053,-2.7293,-2.7465,-2.7557,-2.7659,-2.7915,0.0,0.0,0.0,0.0,0.0,0.0,0.0,0.0,0.0,0.0,0.0,0.0,0.0,0.0,0.0,0.0,0.0,0.0,0.0,0.0,0.0,0.0,0.0,0.0,0.0,0.0,0.0,0.0,0.0,0.0,0.0,0.0,0.0,0.0,0.0,0.0,0.0,0.0,0.0,0.0,-3.9483,-3.9647,-3.9845,-3.9889,-3.9889,-3.9889,-3.9889,-4.0325,0.0,0.0,0.0,-4.4554,-4.4895,-4.4895,-4.4895,-4.4895,-4.4895,0.0,0.0,0.0,0.0,0.0,0.0,0.0,0.0,0.0,0.0,0.0,0.0,0.0,0.0,0.0,-4.2882,-4.2882,-4.2882,-4.2882,-4.2882,-4.2882,-4.2882,-4.2882,-4.2882,-4.2882,-4.2882,-4.2882,-4.2882,-4.2882,-4.2882,-4.2882,-4.2882,-4.2882,0.0,-4.2882,-4.2882,-4.2882,-4.2882,-4.2882,-4.2882,-4.2882,-4.2882,-4.2882,0.0,0.0,0.0,0.0,0.0,0.0,0.0,-2.6521,-2.6725,-2.6791,-2.723,-2.7496,-2.7496,-2.763,-2.776,-2.7968,0.0,0.0,0.0,0.0,0.0,0.0,0.0,0.0,0.0,0.0,0.0,0.0,0.0,0.0,0.0,0.0,0.0,0.0,0.0,0.0,0.0,0.0,0.0,0.0,0.0,0.0,0.0,0.0,0.0,0.0,0.0,0.0,0.0,0.0,0.0,0.0,0.0,0.0,0.0,0.0,-3.9439,-3.9889,-3.9889,-3.9889,-3.9889,-3.9889,-3.9889,-4.0325,0.0,0.0,0.0,-4.4554,-4.4895,-4.4895,-4.4895,-4.4895,-4.4895,-4.4895,-4.4895,0.0,-4.4895,0.0,0.0,0.0,0.0,0.0,0.0,0.0,0.0,0.0,0.0,0.0,-4.2882,-4.2882,-4.2882,-4.2882,-4.2882,-4.2882,-4.2882,-4.2882,-4.2882,-4.2882,-4.2882,-4.2882,-4.2882,-4.2882,-4.2882,-4.2882,-4.2882,-4.2882,0.0,-4.2882,-4.2882,-4.2882,-4.2882,-4.2882,-4.2882,-4.2882,-4.2882,-4.2882,0.0,0.0,0.0,0.0,0.0,0.0,0.0,0.0,-2.6725,-2.6725,-2.71,-2.7491,-2.7795,-2.7748,-2.776,-2.7968,0.0,0.0,0.0,0.0,0.0,0.0,0.0,0.0,0.0,0.0,0.0,0.0,0.0,0.0,0.0,0.0,0.0,0.0,0.0,0.0,0.0,0.0,0.0,0.0,0.0,0.0,0.0,0.0,0.0,0.0,0.0,0.0,0.0,0.0,0.0,0.0,0.0,0.0,0.0,0.0,0.0,0.0,-3.9867,-3.9889,-3.9889,-3.9889,-4.0366,-4.1086,-4.2166,0.0,0.0,-4.4687,-4.4895,-4.4895,-4.4895,-4.4895,-4.4895,-4.4895,-4.4895,-4.4895,0.0,0.0,0.0,0.0,0.0,0.0,0.0,0.0,0.0,0.0,0.0,0.0,-4.2882,-4.2882,-4.2882,-4.2882,-4.2882,-4.2882,-4.2882,-4.2882,-4.2882,-4.2882,-4.2882,-4.2882,-4.2882,-4.2882,-4.2882,-4.2882,-4.2882,-4.2882,-4.2882,-4.2882,-4.2882,-4.2882,-4.2882,-4.2882,-4.2882,-4.2882,-4.2882,-4.2882,0.0,0.0,0.0,0.0,0.0,0.0,0.0,0.0,-2.6725,-2.6825,-2.7258,-2.7672,-2.7968,-2.7922,-2.794,-2.8071,0.0,0.0,0.0,0.0,0.0,0.0,0.0,0.0,0.0,0.0,0.0,0.0,0.0,0.0,0.0,0.0,0.0,0.0,0.0,0.0,0.0,0.0,0.0,0.0,0.0,0.0,-3.3419,0.0,0.0,0.0,0.0,0.0,0.0,0.0,0.0,0.0,0.0,0.0,0.0,0.0,-3.9414,0.0,0.0,-3.9889,-3.9889,-3.9889,-4.0574,0.0,0.0,0.0,0.0,0.0,-4.4895,-4.4895,-4.4895,-4.4895,-4.4895,-4.4895,-4.4895,-4.487,0.0,0.0,0.0,0.0,0.0,0.0,0.0,0.0,0.0,0.0,0.0,0.0,-4.2882,-4.2882,-4.2882,-4.2882,-4.2882,-4.2882,-4.2882,-4.2882,-4.2882,-4.2882,-4.2882,-4.2882,-4.2882,-4.2882,-4.2882,-4.2882,-4.2882,-4.2882,0.0,-4.2882,-4.2882,-4.2882,-4.2882,-4.2882,-4.2882,-4.2882,-4.2882,-4.2882,0.0,0.0,0.0,0.0,0.0,0.0,0.0,0.0,0.0,0.0,0.0,-2.7996,-2.7996,-2.8126,0.0,0.0,0.0,0.0,0.0,0.0,0.0,0.0,0.0,0.0,0.0,0.0,0.0,-2.8182,-2.8182,-2.8182,-2.8182,0.0,0.0,0.0,0.0,0.0,0.0,0.0,0.0,0.0,0.0,0.0,0.0,0.0,0.0,0.0,0.0,0.0,0.0,0.0,0.0,0.0,0.0,0.0,0.0,0.0,0.0,0.0,0.0,0.0,0.0,0.0,0.0,0.0,0.0,0.0,0.0,0.0,0.0,0.0,0.0,-4.4895,-4.4895,-4.4895,-4.4895,-4.4777,0.0,0.0,0.0,0.0,0.0,0.0,0.0,0.0,0.0,0.0,0.0,0.0,-4.2882,-4.2882,-4.2882,-4.2882,-4.2882,-4.2882,-4.2882,-4.2882,-4.2882,-4.2882,-4.2882,-4.2882,-4.2882,-4.2882,-4.2882,0.0,-4.2882,-4.2882,-4.2882,-4.2882,-4.2882,-4.2882,-4.2882,-4.29,-4.29,-4.29,-4.29,-4.29,0.0,0.0,0.0,0.0,0.0,0.0,0.0,0.0,0.0,0.0,0.0,-2.8042,-2.8126,-2.8099,0.0,0.0,0.0,0.0,0.0,0.0,0.0,0.0,0.0,0.0,0.0,0.0,0.0,-2.8182,-2.8182,-2.8182,-2.8182,-2.8182,0.0,0.0,0.0,0.0,0.0,0.0,0.0,0.0,0.0,0.0,0.0,0.0,0.0,0.0,-3.4831,-3.487,0.0,0.0,0.0,0.0,0.0,0.0,0.0,0.0,-3.9693,-3.9889,-3.9889,0.0,-4.006,-4.0745,0.0,0.0,0.0,0.0,0.0,0.0,0.0,0.0,0.0,0.0,-4.4895,-4.4895,-4.4895,-4.4777,0.0,0.0,0.0,0.0,0.0,0.0,0.0,0.0,0.0,0.0,0.0,-4.2882,-4.2882,-4.2882,-4.2882,-4.2882,-4.2882,-4.2882,-4.2882,-4.2882,-4.2882,-4.2882,-4.2882,-4.2882,-4.2882,-4.2882,-4.2882,-4.2882,-4.2882,-4.2882,-4.29,-4.2842,-4.2822,-4.2804,-4.2727,-4.267,-4.267,-4.267,-4.267,-4.267,0.0,0.0,0.0,0.0,0.0,0.0,0.0,0.0,0.0,0.0,0.0,0.0,0.0,0.0,0.0,0.0,0.0,0.0,0.0,0.0,0.0,0.0,0.0,0.0,0.0,0.0,0.0,0.0,0.0,-2.8182,0.0,0.0,0.0,0.0,0.0,0.0,0.0,0.0,0.0,0.0,-3.3625,0.0,0.0,0.0,0.0,0.0,-3.4889,-3.5154,0.0,-3.6462,-3.7213,-3.7917,0.0,0.0,0.0,0.0,-3.9781,-3.9889,-3.9889,-3.9889,-4.0097,-4.0991,-4.1806,-4.264,0.0,0.0,0.0,0.0,0.0,0.0,0.0,0.0,0.0,0.0,-4.453,0.0,0.0,0.0,0.0,0.0,0.0,0.0,0.0,0.0,0.0,0.0,0.0,-4.2882,-4.2882,-4.2882,-4.2882,-4.2882,-4.2882,-4.2882,-4.2882,-4.2882,-4.2882,-4.2882,-4.2862,-4.2824,-4.2824,-4.2824,-4.2824,-4.2824,-4.2824,-4.2824,-4.2842,-4.2727,-4.2706,-4.2706,-4.2649,-4.2609,-4.2609,-4.2609,-4.2609,-4.2609,0.0,0.0,0.0,0.0,0.0,0.0,0.0,0.0,0.0,0.0,0.0,0.0,0.0,0.0,0.0,0.0,0.0,0.0,0.0,0.0,0.0,0.0,0.0,0.0,0.0,0.0,0.0,0.0,0.0,0.0,0.0,0.0,-2.8209,0.0,0.0,0.0,0.0,0.0,0.0,0.0,-3.3972,0.0,0.0,0.0,0.0,0.0,0.0,0.0,0.0,-3.7125,-3.7978,-3.8831,-3.9665,0.0,0.0,0.0,0.0,0.0,-3.9889,-3.9889,-4.0135,-4.1143,-4.2014,-4.2829,0.0,0.0,0.0,0.0,0.0,0.0,0.0,0.0,0.0,0.0,0.0,0.0,0.0,0.0,0.0,0.0,0.0,0.0,0.0,0.0,0.0,0.0,0.0,-4.2882,-4.2882,-4.2882,-4.2882,-4.2882,-4.2882,-4.2882,-4.2882,-4.2882,-4.2882,-4.29,-4.2822,-4.2783,-4.2783,-4.2783,-4.2783,-4.2783,0.0,0.0,-4.2745,-4.2627,-4.257,-4.257,-4.257,-4.257,-4.257,-4.257,-4.257,-4.257,0.0,0.0,0.0,0.0,0.0,0.0,0.0,0.0,0.0,0.0,0.0,0.0,0.0,0.0,0.0,0.0,0.0,0.0,0.0,0.0,0.0,0.0,0.0,0.0,0.0,0.0,0.0,0.0,0.0,0.0,-2.8273,-2.8273,-2.83,0.0,0.0,0.0,-3.0892,-3.1188,-3.2428,-3.4173,-3.4269,0.0,0.0,0.0,0.0,0.0,0.0,0.0,0.0,-3.7125,-3.7978,-3.8831,-3.9665,0.0,0.0,0.0,0.0,0.0,-3.9889,-3.9889,-4.0268,-4.1844,-4.2867,-4.372,0.0,0.0,0.0,0.0,0.0,0.0,0.0,0.0,0.0,0.0,0.0,0.0,0.0,0.0,0.0,0.0,0.0,0.0,0.0,0.0,0.0,0.0,0.0,-4.2882,-4.2882,-4.2882,-4.2882,-4.2882,-4.2882,-4.2882,-4.2882,-4.2882,-4.2862,-4.2822,-4.2783,-4.2745,-4.2649,-4.2649,-4.2649,-4.2649,0.0,-4.2649,-4.2609,-4.2566,-4.2503,-4.2486,-4.2387,-4.2328,-4.2328,-4.2328,-4.2328,-4.2328,0.0,0.0,0.0,0.0,0.0,0.0,0.0,0.0,0.0,0.0,0.0,0.0,0.0,0.0,0.0,0.0,0.0,0.0,0.0,0.0,0.0,0.0,0.0,0.0,0.0,0.0,0.0,0.0,0.0,-2.8273,-2.8353,-2.8353,-2.8353,-2.8424,0.0,0.0,-3.0956,-3.1574,-3.2757,-3.4197,0.0,0.0,0.0,0.0,0.0,0.0,0.0,0.0,0.0,0.0,-3.866,-3.9418,-3.9797,0.0,0.0,0.0,0.0,0.0,-3.9889,-4.0424,-4.1154,-4.1952,-4.2442,-4.3064,0.0,0.0,0.0,0.0,0.0,0.0,0.0,0.0,0.0,0.0,0.0,0.0,0.0,0.0,0.0,0.0,0.0,0.0,0.0,0.0,0.0,0.0,0.0,0.0,-4.2882,-4.2882,-4.2882,-4.2882,-4.2882,-4.29,-4.2842,-4.2842,-4.2804,-4.2783,-4.2685,-4.2606,-4.2566,-4.2566,-4.2566,-4.2566,0.0,-4.2566,-4.2566,-4.2427,-4.2387,-4.2405,-4.2328,-4.2287,-4.2287,-4.2287,-4.2287,-4.2287,0.0,0.0,0.0,0.0,0.0,0.0,0.0,0.0,0.0,0.0,0.0,0.0,0.0,0.0,0.0,0.0,0.0,0.0,0.0,0.0,0.0,0.0,0.0,0.0,0.0,0.0,-2.8398,-2.8398,-2.8353,-2.8353,-2.8406,-2.8432,-2.854,0.0,0.0,0.0,-3.1245,-3.1982,-3.3002,-3.4124,0.0,0.0,0.0,0.0,0.0,0.0,0.0,0.0,0.0,0.0,0.0,0.0,0.0,0.0,0.0,-3.9889,-3.9889,-3.9927,-4.0135,-4.0944,-4.1832,0.0,0.0,0.0,0.0,0.0,0.0,0.0,0.0,0.0,0.0,0.0,0.0,0.0,0.0,0.0,0.0,0.0,0.0,0.0,0.0,0.0,0.0,0.0,0.0,0.0,0.0,0.0,-4.2882,-4.2882,-4.2882,-4.2882,-4.2882,-4.2862,-4.2783,-4.2783,-4.2763,-4.2724,-4.2566,-4.2503,-4.2445,-4.2445,-4.2445,-4.2445,-4.2445,-4.2445,-4.2463,-4.2346,-4.2287,-4.2287,-4.2287,-4.2287,-4.2287,-4.2287,-4.2287,-4.2287,0.0,0.0,0.0,0.0,0.0,0.0,0.0,0.0,0.0,0.0,0.0,0.0,0.0,0.0,0.0,0.0,0.0,0.0,0.0,0.0,0.0,0.0,0.0,0.0,0.0,-2.8432,-2.8398,-2.8398,-2.8398,-2.8432,-2.8492,-2.8562,-2.8967,-2.9699,0.0,0.0,-3.2136,-3.2446,-3.3054,-3.3842,-3.4099,0.0,0.0,0.0,0.0,0.0,0.0,0.0,0.0,0.0,0.0,0.0,0.0,0.0,-3.9889,-3.9889,-3.9889,-4.0079,-4.0896,-4.1177,-4.1632,-4.3185,0.0,0.0,0.0,0.0,0.0,0.0,0.0,0.0,0.0,0.0,0.0,0.0,0.0,0.0,0.0,0.0,0.0,0.0,0.0,0.0,0.0,0.0,0.0,0.0,0.0,0.0,-4.2882,-4.2882,-4.2882,-4.2882,-4.2882,-4.2862,-4.2783,-4.2706,-4.2588,-4.2503,-4.2503,-4.2445,-4.2328,-4.2328,-4.2328,-4.2328,-4.2328,-4.2328,-4.2328,-4.2287,-4.2287,-4.2287,-4.2287,-4.2287,-4.2287,-4.2287,-4.2287,-4.2287,0.0,0.0,0.0,0.0,0.0,0.0,0.0,0.0,0.0,0.0,0.0,0.0,0.0,0.0,0.0,0.0,0.0,0.0,0.0,0.0,0.0,0.0,0.0,-2.8562,-2.8562,-2.8536,-2.851,-2.851,-2.851,-2.851,-2.8492,-2.8562,0.0,0.0,0.0,0.0,-3.2234,-3.2819,-3.3369,-3.3807,-3.3895,-3.4124,0.0,0.0,0.0,0.0,0.0,0.0,0.0,0.0,-3.9539,0.0,0.0,0.0,-3.9889,-3.9889,-3.9781,-3.9882,-4.0927,-4.1142,0.0,0.0,0.0,0.0,0.0,0.0,0.0,0.0,0.0,0.0,0.0,0.0,0.0,0.0,0.0,0.0,0.0,0.0,0.0,0.0,0.0,0.0,0.0,0.0,0.0,0.0,0.0,0.0,-4.2842,-4.2862,-4.2862,-4.2842,-4.2842,-4.2765,-4.2706,-4.2588,-4.2468,-4.2387,-4.2387,-4.2346,-4.2287,-4.2287,-4.2287,-4.2287,-4.2287,-4.2287,-4.2287,-4.2287,-4.2287,-4.2287,-4.2287,-4.2287,-4.2287,-4.2287,-4.2287,-4.2287,0.0,0.0,0.0,0.0,0.0,0.0,0.0,0.0,0.0,0.0,0.0,0.0,0.0,0.0,0.0,0.0,0.0,0.0,0.0,0.0,0.0,0.0,0.0,-2.8587,-2.8587,-2.8587,-2.8587,-2.8587,-2.8587,-2.8587,-2.8536,0.0,0.0,0.0,0.0,0.0,0.0,-3.3176,-3.3509,-3.3671,-3.3671,-3.3895,0.0,0.0,0.0,0.0,0.0,0.0,0.0,0.0,0.0,0.0,0.0,0.0,0.0,0.0,0.0,0.0,-4.0954,-4.1232,0.0,0.0,0.0,0.0,0.0,0.0,0.0,0.0,0.0,0.0,0.0,0.0,0.0,0.0,0.0,0.0,0.0,0.0,0.0,0.0,0.0,0.0,0.0,0.0,0.0,0.0,0.0,0.0,0.0,-4.2842,-4.2842,-4.2745,-4.2745,-4.2667,-4.2588,-4.2526,-4.2445,-4.2287,-4.2287,-4.2287,-4.2287,-4.2287,-4.2287,-4.2287,-4.2287,-4.2287,-4.2287,-4.2287,-4.2287,-4.2287,-4.2287,-4.2287,-4.2287,-4.2287,-4.2287,-4.2287,0.0,0.0,0.0,0.0,0.0,0.0,0.0,0.0,0.0,0.0,0.0,0.0,0.0,0.0,0.0,0.0,0.0,0.0,0.0,0.0,0.0,0.0,0.0,-2.8536,-2.8587,-2.8587,-2.8587,-2.8587,-2.8587,-2.8587,-2.8623,-2.9427,0.0,0.0,0.0,0.0,0.0,0.0,-3.3393,-3.3393,-3.3393,-3.3726,-3.4173,0.0,0.0,0.0,0.0,0.0,0.0,0.0,0.0,0.0,0.0,0.0,0.0,0.0,-3.9008,-3.938,-4.1051,0.0,0.0,0.0,0.0,0.0,0.0,0.0,0.0,0.0,0.0,0.0,0.0,0.0,0.0,0.0,0.0,0.0,0.0,0.0,0.0,0.0,0.0,0.0,0.0,0.0,0.0,0.0,0.0,0.0,0.0,-4.2783,-4.2745,-4.2609,-4.2609,-4.2548,-4.2503,-4.2503,-4.2405,-4.2287,-4.2287,-4.2287,-4.2287,-4.2287,-4.2287,-4.2287,-4.2287,-4.2287,-4.2287,-4.2287,-4.2287,-4.2287,-4.2287,-4.2287,-4.2287,-4.2287,-4.2287,-4.2287,0.0,0.0,0.0,0.0,0.0,0.0,0.0,0.0,0.0,0.0,0.0,0.0,0.0,0.0,0.0,0.0,0.0,0.0,0.0,0.0,0.0,0.0,0.0,0.0,0.0,0.0,-2.8587,-2.8587,-2.8587,-2.8902,0.0,0.0,0.0,-3.1854,0.0,0.0,0.0,0.0,-3.3393,-3.3422,-3.3605,-3.378,-3.3976,0.0,0.0,0.0,0.0,0.0,0.0,0.0,0.0,0.0,0.0,0.0,0.0,-3.9008,-3.9264,-3.9847,-4.116,0.0,0.0,0.0,0.0,0.0,0.0,0.0,0.0,0.0,0.0,0.0,0.0,0.0,0.0,0.0,0.0,0.0,0.0,0.0,0.0,0.0,0.0,0.0,0.0,0.0,0.0,0.0,0.0,0.0,0.0,-4.2649,-4.2627,-4.2526,-4.2526,-4.2346,-4.1959,-4.1856,-4.1596,-4.1265,-4.1265,-4.1401,-4.1753,-4.2145,-4.2086,-4.177,-4.2145,-4.2287,-4.2287,-4.2287,-4.2287,-4.2287,-4.2287,-4.2287,-4.2287,-4.2287,-4.2287,-4.2287,0.0,0.0,0.0,0.0,0.0,0.0,0.0,0.0,0.0,0.0,0.0,0.0,0.0,0.0,0.0,0.0,0.0,0.0,0.0,0.0,0.0,0.0,0.0,0.0,0.0,-2.8587,-2.8612,0.0,0.0,0.0,0.0,0.0,0.0,-3.2216,0.0,-3.294,0.0,0.0,-3.3393,-3.3393,-3.3577,-3.3899,-3.4339,0.0,0.0,0.0,0.0,0.0,0.0,0.0,0.0,0.0,0.0,0.0,0.0,-3.867,-3.9153,-3.9849,0.0,0.0,0.0,0.0,0.0,0.0,0.0,0.0,0.0,0.0,0.0,0.0,0.0,0.0,0.0,0.0,0.0,0.0,0.0,0.0,0.0,0.0,0.0,0.0,0.0,0.0,0.0,0.0,0.0,0.0,0.0,-4.257,-4.2526,-4.2445,-4.2205,-4.1959,-4.1604,-4.1356,-4.1065,-4.0802,-4.0802,-4.0832,-4.0908,-4.1445,-4.1534,-4.1248,-4.1534,-4.1813,-4.2002,-4.2002,-4.2103,-4.2287,-4.2287,-4.2287,-4.2287,-4.2287,-4.2287,-4.2287,0.0,0.0,0.0,0.0,0.0,0.0,0.0,0.0,0.0,0.0,0.0,0.0,0.0,0.0,0.0,0.0,0.0,0.0,0.0,0.0,0.0,0.0,0.0,0.0,0.0,0.0,0.0,0.0,0.0,0.0,0.0,0.0,-3.1528,-3.2343,0.0,-3.3393,0.0,-3.3393,-3.3393,-3.3411,-3.3513,-3.4124,-3.5009,-3.5183,0.0,0.0,0.0,0.0,0.0,0.0,0.0,0.0,0.0,0.0,0.0,-3.8282,-3.8862,-3.9659,0.0,0.0,0.0,0.0,0.0,0.0,0.0,0.0,0.0,0.0,0.0,0.0,0.0,0.0,0.0,0.0,0.0,0.0,0.0,0.0,0.0,0.0,0.0,0.0,0.0,0.0,0.0,0.0,0.0,0.0,0.0,-4.2427,-4.2346,-4.2145,-4.1666,-4.1428,-4.1383,-4.0926,-4.0707,-4.0659,-4.0659,-4.0417,-3.9969,-4.0563,-4.0802,-4.0802,-4.0802,-4.1082,-4.1472,-4.1472,-4.1813,-4.2287,-4.2287,-4.2287,-4.2287,-4.2287,-4.2287,-4.2287,0.0,0.0,0.0,0.0,0.0,0.0,0.0,0.0,0.0,0.0,0.0,0.0,0.0,0.0,0.0,0.0,0.0,0.0,0.0,0.0,0.0,0.0,0.0,0.0,0.0,0.0,0.0,0.0,0.0,0.0,0.0,0.0,0.0,-3.3158,0.0,-3.3393,-3.3393,-3.3393,-3.3393,-3.3477,-3.4327,-3.4788,-3.5147,-3.6648,-3.7322,0.0,0.0,0.0,0.0,0.0,0.0,0.0,-3.8192,-3.8192,-3.8301,-3.8952,-3.9677,0.0,0.0,0.0,0.0,0.0,0.0,0.0,0.0,0.0,0.0,0.0,0.0,0.0,0.0,0.0,0.0,0.0,0.0,0.0,0.0,0.0,0.0,0.0,0.0,0.0,0.0,0.0,0.0,0.0,0.0,0.0,-4.1924,-4.177,-4.1534,-4.1128,-4.1036,-4.0737,-4.0334,-4.0203,-3.9969,-3.9609,-3.9609,-3.9556,-3.9451,-4.0368,-4.0802,-4.0802,-4.0802,-4.1082,-4.1472,-4.1472,-4.1813,-4.2287,-4.2287,-4.2287,-4.2287,-4.2287,-4.2287,-4.2287,0.0,0.0,0.0,0.0,0.0,0.0,0.0,0.0,0.0,0.0,0.0,0.0,0.0,0.0,0.0,0.0,0.0,0.0,0.0,0.0,0.0,0.0,0.0,0.0,0.0,0.0,0.0,0.0,0.0,0.0,0.0,0.0,0.0,-3.3605,0.0,-3.3605,-3.3577,-3.3452,-3.3698,-3.4196,-3.4645,-3.5283,-3.6079,-3.7033,-3.7571,-3.7835,-3.8255,0.0,0.0,0.0,0.0,0.0,0.0,0.0,-3.8355,-3.9152,-3.993,-4.0691,0.0,0.0,0.0,0.0,0.0,0.0,0.0,0.0,0.0,0.0,0.0,0.0,0.0,0.0,0.0,0.0,0.0,0.0,0.0,0.0,0.0,0.0,0.0,0.0,0.0,0.0,0.0,0.0,0.0,-4.1924,-4.1348,-4.123,-4.1065,-4.0802,-4.0546,-4.0302,-4.0003,-3.9782,-3.9556,-3.9272,-3.9272,-3.9272,-3.9325,-3.985,-4.0087,-4.0087,-4.0087,-4.0368,-4.0814,-4.1065,-4.1445,-4.1941,-4.2187,-4.2287,-4.2287,-4.2287,-4.2287,-4.2287,0.0,0.0,0.0,0.0,0.0,0.0,0.0,0.0,0.0,0.0,0.0,0.0,0.0,0.0,0.0,0.0,0.0,0.0,0.0,0.0,0.0,0.0,0.0,0.0,0.0,0.0,0.0,0.0,0.0,0.0,0.0,0.0,0.0,-3.3807,0.0,0.0,-3.3726,-3.3549,-3.4032,-3.4924,-3.4842,-3.5693,-3.7029,-3.7174,-3.7612,-3.8192,-3.8192,-3.8192,-3.8192,-3.8192,0.0,0.0,0.0,0.0,-3.8554,-3.9351,-4.013,-4.089,0.0,0.0,0.0,0.0,0.0,0.0,0.0,0.0,0.0,0.0,0.0,0.0,0.0,0.0,0.0,0.0,0.0,0.0,0.0,0.0,0.0,0.0,0.0,0.0,0.0,0.0,0.0,0.0,0.0,-4.1303,-4.0763,-4.0672,-4.0611,-4.0563,-4.012,-3.9868,-3.9868,-3.9504,-3.9272,-3.9272,-3.9272,-3.9272,-3.9272,-3.9272,-3.9272,-3.9272,-3.9272,-3.9556,-4.0053,-4.0611,-4.1036,-4.1445,-4.2061,-4.2246,-4.2187,-4.2287,-4.2287,-4.2287,0.0,0.0,0.0,0.0,0.0,0.0,0.0,0.0,0.0,0.0,0.0,0.0,0.0,0.0,0.0,0.0,0.0,0.0,-2.9888,0.0,0.0,-2.9608,-2.9395,0.0,0.0,0.0,0.0,0.0,0.0,0.0,0.0,0.0,0.0,0.0,0.0,0.0,0.0,-3.3671,-3.4089,-3.4721,-3.5367,-3.6182,-3.7102,-3.7757,-3.8101,-3.8192,-3.8192,-3.8192,-3.8192,-3.8192,-3.8192,0.0,0.0,0.0,-3.9387,-4.013,-4.0926,0.0,0.0,0.0,0.0,0.0,0.0,0.0,0.0,0.0,0.0,0.0,0.0,0.0,0.0,0.0,0.0,0.0,0.0,0.0,0.0,0.0,0.0,0.0,0.0,0.0,0.0,0.0,0.0,0.0,-4.1041,-4.0733,-4.0136,-4.0103,-3.9919,-3.952,-3.9415,-3.9415,-3.9415,-3.9325,-3.9272,-3.9272,-3.9272,-3.9272,-3.9272,-3.9272,-3.9272,-3.9272,-3.9272,-3.9556,-4.0053,-4.0611,-4.0849,-4.099,-4.1917,-4.2002,-4.1666,-4.2145,-4.2287,-4.2287,0.0,0.0,0.0,0.0,0.0,0.0,0.0,0.0,0.0,0.0,0.0,0.0,0.0,0.0,0.0,-2.9701,-2.9755,-2.9823,-2.9907,-2.9822,-2.9787,-2.9787,-2.9589,-2.966,0.0,0.0,0.0,0.0,0.0,0.0,0.0,-3.3921,-3.3807,0.0,0.0,0.0,0.0,0.0,0.0,0.0,-3.6209,-3.6942,-3.7703,-3.8047,-3.8192,-3.8192,-3.8192,-3.8192,-3.8192,-3.8192,-3.8192,-3.8264,-3.8717,0.0,0.0,0.0,-4.1433,0.0,0.0,0.0,0.0,0.0,0.0,0.0,0.0,0.0,0.0,0.0,0.0,0.0,0.0,0.0,0.0,0.0,0.0,0.0,0.0,0.0,0.0,0.0,0.0,0.0,0.0,0.0,0.0,0.0,-4.0446,-4.0186,-3.9644,-3.9592,-3.9504,-3.9325,-3.9272,-3.9272,-3.9272,-3.9272,-3.9272,-3.9272,-3.9272,-3.9272,-3.9272,-3.9272,-3.9272,-3.9272,-3.9272,-3.9415,-3.9644,-4.017,-4.0351,-4.0449,-4.1445,-4.1709,-4.1561,-4.2086,-4.2287,-4.2287,0.0,0.0,0.0,0.0,0.0,0.0,0.0,0.0,0.0,0.0,0.0,0.0,0.0,0.0,0.0,0.0,-2.9755,-2.9823,-2.9907,-2.9888,-2.9888,-2.9888,-2.9978,-3.0283,-3.0885,0.0,0.0,0.0,0.0,0.0,-3.4602,-3.4124,-3.4049,0.0,-3.4173,0.0,0.0,0.0,0.0,0.0,0.0,0.0,0.0,0.0,-3.8192,-3.8192,-3.8192,-3.8192,-3.821,-3.8427,-3.85,-3.8627,-3.9423,-3.9822,0.0,0.0,0.0,0.0,0.0,0.0,0.0,0.0,0.0,0.0,0.0,0.0,0.0,0.0,0.0,0.0,0.0,0.0,0.0,0.0,0.0,0.0,0.0,0.0,0.0,0.0,0.0,0.0,0.0,0.0,0.0,0.0,-3.9868,-3.9696,-3.9325,-3.9272,-3.9272,-3.9272,-3.9272,-3.9272,-3.9272,-3.9272,-3.9272,-3.9272,-3.9272,-3.9272,-3.9272,-3.9272,-3.9272,-3.9272,-3.9272,-3.9272,-3.9325,-3.9833,-3.9902,-3.9919,-4.0926,-4.1248,-4.1185,-4.1727,-4.1917,-4.1959,0.0,0.0,0.0,0.0,0.0,0.0,0.0,0.0,0.0,0.0,0.0,0.0,0.0,-2.9451,-2.955,-2.9701,-2.9755,-2.9823,-2.9907,-2.9888,-2.9888,-2.9888,-3.0684,0.0,-3.0904,0.0,0.0,0.0,0.0,0.0,-3.4583,-3.4316,-3.4316,-3.4561,-3.4049,-3.4229,-3.4935,0.0,0.0,0.0,0.0,0.0,0.0,0.0,0.0,0.0,0.0,-3.8192,-3.8301,-3.9079,-3.9333,-3.946,-4.022,-4.0981,-4.1615,0.0,0.0,0.0,0.0,0.0,0.0,0.0,0.0,0.0,0.0,0.0,0.0,0.0,0.0,0.0,0.0,0.0,0.0,0.0,0.0,0.0,0.0,0.0,0.0,0.0,0.0,0.0,0.0,0.0,0.0,0.0,-3.9325,-3.9325,-3.9272,-3.9272,-3.9272,-3.9272,-3.9272,-3.9272,-3.9272,-3.9272,-3.9272,-3.9272,-3.9272,-3.9272,-3.9272,-3.9272,-3.9272,-3.9272,-3.9272,-3.9272,-3.9325,-3.9833,-3.9731,-3.9415,-4.0417,-4.0546,-4.0153,-4.0689,-4.0896,-4.0943,0.0,0.0,0.0,0.0,0.0,0.0,0.0,0.0,0.0,0.0,0.0,0.0,0.0,-2.9372,-2.955,-2.9701,-2.9808,-2.9855,-2.9888,-3.0419,-3.0739,-3.0739,-3.1535,-3.2218,-3.2748,-3.3146,0.0,0.0,0.0,-3.4689,-3.4791,-3.4542,-3.4583,-3.479,-3.4814,-3.4895,-3.5092,-3.6297,0.0,0.0,0.0,0.0,0.0,0.0,0.0,0.0,0.0,0.0,-3.9007,-3.9297,-3.9713,-4.0256,-4.1035,-4.1488,-4.1814,-4.2321,-4.2665,-4.2844,0.0,0.0,0.0,0.0,0.0,0.0,0.0,0.0,0.0,0.0,0.0,0.0,0.0,0.0,0.0,0.0,0.0,0.0,0.0,0.0,0.0,0.0,0.0,0.0,0.0,0.0,0.0,0.0,0.0,-3.9272,-3.9272,-3.9272,-3.9272,-3.9272,-3.9272,-3.9272,-3.9272,-3.9272,-3.9272,-3.9272,-3.9272,-3.9272,-3.9272,-3.9272,-3.9272,-3.9272,-3.9272,-3.9272,-3.9325,-3.9451,-3.9468,-3.9379,-4.002,-4.0153,-4.0053,-4.0611,-4.099,-4.1248,0.0,0.0,0.0,0.0,0.0,0.0,0.0,0.0,0.0,0.0,0.0,0.0,0.0,0.0,-2.9643,-3.0077,-3.0258,-3.0438,-3.0703,-3.1288,-3.161,-3.161,-3.2406,-3.3144,-3.3786,-3.3563,0.0,0.0,0.0,0.0,0.0,0.0,-3.486,-3.5343,-3.5758,0.0,0.0,0.0,0.0,-3.7464,0.0,0.0,-3.821,0.0,0.0,0.0,0.0,0.0,0.0,-4.0075,-4.051,-4.1053,-4.1868,-4.2103,-4.2212,-4.2737,-4.2882,-4.2844,-4.2498,0.0,0.0,0.0,0.0,0.0,0.0,0.0,0.0,0.0,0.0,0.0,0.0,0.0,0.0,0.0,0.0,0.0,0.0,0.0,0.0,0.0,0.0,0.0,0.0,0.0,0.0,0.0,0.0,0.0,-3.9272,-3.9272,-3.9272,-3.9272,-3.9272,-3.9272,-3.9272,-3.9272,-3.9272,-3.9272,-3.9272,-3.9272,-3.9272,-3.9272,-3.9272,-3.9272,-3.9272,-3.9272,-3.9272,-3.9272,-3.9272,-3.9325,-3.9644,-3.9782,-3.9833,-4.0187,-4.0497,-4.0832,0.0,0.0,0.0,0.0,0.0,0.0,0.0,0.0,0.0,0.0,0.0,0.0,0.0,0.0,0.0,-3.0827,-3.1109,-3.1555,-3.2332,-3.2408,-3.2426,-3.2426,-3.326,-3.3752,-3.3806,-3.3733,0.0,0.0,0.0,0.0,0.0,0.0,-3.52,0.0,-3.6782,-3.6863,-3.6615,0.0,-3.8066,-3.8207,0.0,-3.8433,-3.8282,0.0,0.0,0.0,-4.0256,-4.0528,0.0,-4.1452,0.0,0.0,0.0,-4.2882,-4.2882,-4.2882,-4.2882,-4.2882,0.0,0.0,0.0,0.0,0.0,0.0,0.0,0.0,0.0,0.0,0.0,0.0,0.0,0.0,0.0,0.0,0.0,0.0,0.0,0.0,0.0,0.0,0.0,0.0,0.0,0.0,0.0,0.0,-3.9272,-3.9272,-3.9272,-3.9272,-3.9272,-3.9272,-3.9272,-3.9272,-3.9272,-3.9272,-3.9272,-3.9272,-3.9272,-3.9272,-3.9272,-3.9272,-3.9272,-3.9272,-3.9272,-3.9272,-3.9272,-3.9272,-3.9272,-3.9272,-3.9272,-3.9272,-3.9272,-3.9272,-3.9325,-3.9468,0.0,0.0,0.0,0.0,0.0,0.0,0.0,0.0,0.0,0.0,0.0,0.0,0.0,0.0,-3.0988,-3.1325,-3.1647,-3.186,-3.188,-3.261,-3.2949,-3.278,-3.3601,-3.4072,-3.4095,-3.4072,-3.4166,0.0,0.0,0.0,0.0,0.0,0.0,0.0,-3.7272,-3.7698,-3.7514,-3.8588,0.0,0.0,-3.8478,-3.8433,0.0,0.0,0.0,0.0,0.0,-4.089,-4.1379,0.0,-4.2103,-4.2611,0.0,0.0,0.0,-4.2882,-4.2882,-4.2882,-4.2882,0.0,0.0,0.0,0.0,0.0,0.0,0.0,0.0,0.0,0.0,0.0,0.0,0.0,0.0,0.0,0.0,0.0,0.0,0.0,0.0,0.0,0.0,0.0,0.0,0.0,0.0,0.0,-3.9272,-3.9272,-3.9272,-3.9272,-3.9272,-3.9272,-3.9272,-3.9272,-3.9272,-3.9272,-3.9272,-3.9272,-3.9272,-3.9272,-3.9272,-3.9272,-3.9272,-3.9272,-3.9272,-3.9272,-3.9272,-3.9272,-3.9272,-3.9272,-3.9272,-3.9272,-3.9272,-3.9272,-3.9504,-3.9868,0.0,0.0,0.0,0.0,0.0,0.0,0.0,0.0,0.0,0.0,0.0,0.0,0.0,0.0,0.0,-3.1881,-3.2315,-3.2574,-3.2659,-3.3399,-3.3724,-3.3454,-3.4032,-3.4381,-3.4381,-3.4117,-3.4117,0.0,0.0,0.0,0.0,0.0,0.0,0.0,0.0,0.0,0.0,0.0,0.0,0.0,-3.8658,0.0,0.0,-3.955,-4.0075,0.0,0.0,0.0,-4.2212,-4.2212,-4.2502,0.0,0.0,0.0,0.0,-4.2882,-4.2882,-4.2882,0.0,0.0,0.0,0.0,0.0,0.0,-4.1059,-4.075,0.0,0.0,0.0,0.0,0.0,0.0,0.0,0.0,0.0,0.0,0.0,0.0,0.0,0.0,0.0,0.0,0.0,-3.9272,-3.9272,-3.9272,-3.9272,-3.9272,-3.9272,-3.9272,-3.9272,-3.9272,-3.9272,-3.9272,-3.9272,-3.9272,-3.9272,-3.9272,-3.9272,-3.9272,-3.9272,-3.9272,-3.9272,-3.9272,-3.9272,-3.9272,-3.9272,-3.9272,-3.9272,-3.9272,-3.9272,-3.9272,-3.9272,-3.9272,-3.9451,-3.9731,0.0,0.0,0.0,0.0,0.0,0.0,0.0,0.0,0.0,0.0,0.0,0.0,0.0,0.0,0.0,0.0,-3.2993,-3.3431,-3.3894,-3.4279,-3.4386,-3.4124,-3.434,-3.4473,-3.4473,-3.4028,-3.4066,-3.4604,0.0,0.0,0.0,0.0,0.0,0.0,0.0,0.0,0.0,0.0,0.0,-3.8726,-3.8987,-3.9265,0.0,0.0,-4.1089,-4.1832,-4.2611,-4.2882,-4.2882,-4.2882,-4.2882,0.0,0.0,0.0,0.0,0.0,-4.2882,0.0,0.0,0.0,0.0,0.0,0.0,0.0,-4.1402,-4.1087,-4.0733,0.0,0.0,0.0,0.0,0.0,0.0,0.0,0.0,0.0,0.0,0.0,0.0,0.0,0.0,0.0,-3.9272,-3.9272,-3.9272,-3.9272,-3.9272,-3.9272,-3.9272,-3.9272,-3.9272,-3.9272,-3.9272,-3.9272,-3.9272,-3.9272,-3.9272,-3.9272,-3.9272,-3.9272,-3.9272,-3.9272,-3.9272,-3.9272,-3.9272,-3.9272,-3.9272,-3.9272,-3.9272,-3.9272,-3.9272,-3.9272,-3.9272,-3.9272,-3.9272,-3.9379,-2.7496,0.0,0.0,0.0,0.0,0.0,0.0,0.0,0.0,0.0,0.0,0.0,0.0,0.0,0.0,0.0,-3.3249,-3.3451,-3.3444,-3.3726,-3.378,-3.3577,-3.3605,-3.3615,-3.3615,-3.4164,-3.4493,-3.46,0.0,0.0,0.0,0.0,0.0,0.0,0.0,0.0,0.0,0.0,0.0,-3.9406,-3.9583,0.0,-4.0383,-4.118,-4.1578,-4.1832,-4.2611,-4.2882,-4.2882,-4.2882,-4.2882,-4.2882,0.0,0.0,0.0,-4.2882,0.0,0.0,0.0,0.0,0.0,0.0,0.0,0.0,-4.1569,-4.1139,-4.0642,0.0,0.0,0.0,0.0,0.0,0.0,0.0,0.0,0.0,0.0,0.0,0.0,0.0,0.0,0.0,-3.9272,-3.9272,-3.9272,-3.9272,-3.9272,-3.9272,-3.9272,-3.9272,-3.9272,-3.9272,-3.9272,-3.9272,-3.9272,-3.9272,-3.9272,-3.9272,-3.9272,-3.9272,-3.9272,-3.9272,-3.9272,-3.9272,-3.9272,-3.9272,-3.9272,-3.9272,-3.9272,-3.9272,-3.9272,-3.9272,-3.9272,-3.9272,-3.9272,-3.9325,-2.76,0.0,0.0,0.0,0.0,0.0,0.0,0.0,0.0,0.0,0.0,0.0,0.0,0.0,0.0,0.0,0.0,0.0,0.0,0.0,-3.4113,-3.3948,-3.4383,-3.4702,-3.4779,-3.5261,-3.5462,-3.5399,0.0,0.0,0.0,0.0,0.0,0.0,0.0,0.0,0.0,0.0,-4.009,-4.0578,-4.0449,0.0,-4.0997,-4.1487,-4.1902,-4.2224,-4.2698,-4.2804,-4.2747,-4.2747,-4.2786,0.0,0.0,-4.2862,-4.2882,0.0,-4.2862,-4.288,0.0,0.0,0.0,-4.2882,0.0,0.0,0.0,-4.1393,-4.0879,0.0,0.0,0.0,0.0,0.0,0.0,0.0,0.0,0.0,0.0,0.0,0.0,0.0,0.0,0.0,-3.9272,-3.9272,-3.9272,-3.9272,-3.9272,-3.9272,-3.9272,-3.9272,-3.9272,-3.9272,-3.9272,-3.9272,-3.9272,-3.9272,-3.9272,-3.9272,-3.9272,-3.9272,-3.9272,-3.9272,-3.9272,-3.9272,-3.9272,-3.9272,-3.9272,-3.9272,-3.9272,-3.9272,-3.9272,-3.9272,-3.9272,-3.9272,-3.9272,-3.9272,-2.811,0.0,0.0,0.0,0.0,0.0,0.0,0.0,0.0,0.0,0.0,0.0,0.0,0.0,0.0,0.0,0.0,0.0,0.0,0.0,0.0,-3.4686,-3.5434,-3.5915,-3.6054,-3.6321,-3.6395,-3.6291,0.0,0.0,0.0,0.0,0.0,0.0,0.0,0.0,0.0,0.0,0.0,-4.1538,0.0,-4.1469,-4.1715,-4.1829,-4.2206,-4.2649,-4.2745,-4.2688,-4.2609,-4.2649,-4.2688,-4.2783,-4.2822,-4.2747,0.0,0.0,0.0,0.0,0.0,0.0,0.0,0.0,0.0,-4.2552,0.0,0.0,0.0,0.0,0.0,0.0,0.0,0.0,0.0,0.0,0.0,0.0,0.0,0.0,0.0,0.0,0.0,0.0,-3.9272,-3.9272,-3.9272,-3.9272,-3.9272,-3.9272,-3.9272,-3.9272,-3.9272,-3.9272,-3.9272,-3.9272,-3.9272,-3.9272,-3.9272,-3.9272,-3.9272,-3.9272,-3.9272,-3.9272,-3.9272,-3.9272,-3.9272,-3.9272,-3.9272,-3.9272,-3.9272,-3.9272,-3.9272,-3.9272,-3.9272,-3.9272,-3.9272,-3.9272,-2.9737,0.0,0.0,0.0,0.0,0.0,0.0,0.0,0.0,0.0,0.0,0.0,0.0,0.0,0.0,0.0,0.0,0.0,-3.3494,0.0,0.0,-3.5382,-3.5486,-3.5573,-3.5573,-3.6291,-3.6651,-3.6636,0.0,0.0,0.0,0.0,0.0,0.0,-3.8219,0.0,0.0,0.0,-4.0873,0.0,-4.2127,-4.2531,0.0,-4.2678,-4.2711,-4.2745,-4.2649,-4.2609,-4.2609,0.0,-4.2706,-4.2649,0.0,-4.2476,-4.2133,-4.2729,0.0,0.0,0.0,0.0,0.0,0.0,-4.2595,0.0,0.0,0.0,-4.0707,-4.0204,0.0,0.0,0.0,0.0,0.0,0.0,0.0,0.0,0.0,0.0,0.0,0.0,0.0,0.0,0.0,-3.9272,-3.9272,-3.9272,-3.9272,-3.9272,-3.9272,-3.9272,-3.9272,-3.9272,-3.9272,-3.9272,-3.9272,-3.9272,-3.9272,-3.9272,-3.9272,-3.9272,-3.9272,-3.9272,-3.9272,-3.9272,-3.9272,-3.9272,-3.9272,-3.9272,-3.9272,-3.9272,-3.9272,-3.9272,-3.9272,-3.9272,-3.9272,-3.9272,-3.0079,0.0,0.0,0.0,0.0,0.0,0.0,0.0,0.0,0.0,0.0,0.0,0.0,0.0,0.0,0.0,0.0,-3.3661,0.0,0.0,0.0,0.0,-3.6503,-3.6789,-3.691,-3.7146,-3.7308,-3.7413,-3.7754,0.0,0.0,0.0,0.0,0.0,-3.8695,0.0,-3.9605,0.0,0.0,0.0,0.0,0.0,0.0,-4.2688,-4.2667,-4.2606,-4.245,-4.2409,-4.245,0.0,-4.2508,0.0,0.0,0.0,0.0,0.0,0.0,0.0,0.0,0.0,0.0,0.0,0.0,0.0,-4.1393,0.0,-4.0707,0.0,0.0,0.0,0.0,0.0,0.0,0.0,-3.9301,0.0,0.0,0.0,0.0,0.0,0.0,0.0,0.0,0.0,0.0,0.0,-3.9272,-3.9272,-3.9272,-3.9272,-3.9272,-3.9272,-3.9272,-3.9272,-3.9272,-3.9272,-3.9272,-3.9272,-3.9272,-3.9272,-3.9272,-3.9272,-3.9272,-3.9272,-3.9272,-3.9272,-3.9272,-3.9272,-3.9272,-3.9272,-3.9272,-3.9272,-3.9272,-3.9272,-3.9272,-3.9272,-3.0611,0.0,0.0,0.0,0.0,0.0,0.0,0.0,0.0,0.0,0.0,0.0,-3.4977,-3.4451,0.0,0.0,-3.402,-3.4059,0.0,0.0,-3.5902,0.0,0.0,0.0,0.0,-3.7504,-3.7595,-3.7828,-3.7828,0.0,0.0,0.0,0.0,0.0,0.0,-3.9764,-4.006,0.0,0.0,-4.1472,-4.1924,-4.2192,-4.2333,-4.249,-4.2508,-4.2405,-4.2145,-4.2086,-4.2044,-4.1941,-4.1959,0.0,-4.1648,0.0,0.0,0.0,0.0,0.0,-4.2356,0.0,0.0,0.0,0.0,0.0,0.0,0.0,0.0,0.0,0.0,0.0,0.0,0.0,0.0,0.0,0.0,-3.9312,0.0,0.0,0.0,0.0,0.0,0.0,0.0,0.0,0.0,-3.9272,-3.9272,-3.9272,-3.9272,-3.9272,-3.9272,-3.9272,-3.9272,-3.9272,-3.9272,-3.9272,-3.9272,-3.9272,-3.9272,-3.9272,-3.9272,-3.9272,-3.9272,-3.9272,-3.9272,-3.9272,-3.9272,-3.9272,-3.9272,-3.9272,-3.9272,-3.9272,-3.9272,-3.9272,-3.9272,-3.9272,-3.1768,-3.2039,0.0,0.0,0.0,0.0,0.0,0.0,0.0,0.0,0.0,0.0,0.0,0.0,0.0,0.0,0.0,-3.4013,-3.4455,0.0,-3.5786,0.0,0.0,-3.6481,0.0,-3.6939,-3.715,-3.7631,-3.7667,0.0,0.0,0.0,0.0,0.0,0.0,-4.0375,-4.0403,-4.0689,-4.0832,-4.0849,-4.0849,-4.1111,-4.1622,0.0,-4.2445,-4.2246,-4.1709,0.0,0.0,-4.1059,-4.0891,0.0,0.0,0.0,0.0,0.0,0.0,0.0,0.0,0.0,0.0,-4.2616,0.0,0.0,0.0,0.0,-4.1846,0.0,0.0,0.0,0.0,0.0,0.0,0.0,0.0,0.0,0.0,0.0,0.0,0.0,0.0,0.0,0.0,0.0,-3.9272,-3.9272,-3.9272,-3.9272,-3.9272,-3.9272,-3.9272,-3.9272,-3.9272,-3.9272,-3.9272,-3.9272,-3.9272,-3.9272,-3.9272,-3.9272,-3.9272,-3.9272,-3.9272,-3.9272,-3.9272,-3.9272,-3.9272,-3.9272,-3.9272,-3.9272,-3.9272,-3.9272,-3.9272,-3.9272,-3.9272,-3.9272,0.0,0.0,0.0,0.0,0.0,0.0,0.0,-3.4411,0.0,0.0,0.0,0.0,0.0,-3.507,-3.4695,0.0,0.0,-3.4735,-3.5216,-3.548,0.0,0.0,0.0,-3.7161,0.0,0.0,-3.8664,-3.9129,-3.9149,-3.9292,0.0,0.0,0.0,0.0,0.0,-4.0971,0.0,0.0,0.0,0.0,0.0,-4.0896,-4.1128,0.0,-4.1813,-4.1727,-4.1202,-4.1036,0.0,-4.0879,-4.0832,-4.0754,-4.0463,-4.0446,-4.059,-4.0414,-4.0494,0.0,0.0,0.0,-4.0559,-4.1013,0.0,0.0,0.0,0.0,0.0,0.0,0.0,0.0,0.0,0.0,0.0,0.0,0.0,0.0,0.0,0.0,0.0,0.0,0.0,0.0,0.0,0.0,0.0,-3.8662,-3.8645,-3.8645,-3.8645,-3.8645,-3.8843,-3.9272,-3.9272,-3.9272,-3.9272,-3.9272,-3.9272,-3.9272,-3.9272,-3.9272,-3.9272,-3.9272,-3.9272,-3.9272,-3.9272,-3.9272,-3.9272,-3.9272,-3.9272,-3.9272,-3.9272,-3.9272,-3.9272,-3.9272,-3.9272,-3.9272,-3.2044,0.0,0.0,0.0,0.0,0.0,0.0,0.0,0.0,0.0,-3.5525,0.0,-3.6121,0.0,-3.5407,0.0,-3.5148,-3.5141,-3.5702,-3.5513,0.0,-3.6123,-3.6599,0.0,0.0,0.0,-3.9006,-3.966,-3.966,-3.9882,0.0,0.0,0.0,0.0,0.0,0.0,0.0,0.0,-4.04,0.0,0.0,-4.0514,0.0,0.0,-4.1094,-4.1202,0.0,-4.0514,-4.0497,-4.0319,-4.0286,-4.0237,-3.9885,-4.0003,-4.0268,-3.9868,-4.0053,-4.0366,-4.0546,-4.022,0.0,-4.0383,-4.017,0.0,-4.0037,0.0,-4.007,0.0,0.0,0.0,0.0,0.0,0.0,0.0,0.0,0.0,0.0,-3.9272,0.0,0.0,0.0,0.0,0.0,0.0,-3.8843,-3.8662,-3.8238,-3.8181,0.0,-3.8407,-3.859,-3.9272,-3.9272,-3.9272,-3.9272,-3.9272,-3.9272,-3.9272,-3.9272,-3.9272,-3.9272,-3.9272,-3.9272,-3.9272,-3.9272,-3.9272,-3.9272,-3.9272,-3.9272,-3.9272,-3.9272,-3.9272,-3.9272,-3.9272,-3.9272,-3.9272,0.0,0.0,0.0,0.0,-3.4401,0.0,0.0,0.0,-3.5373,0.0,-3.582,-3.5688,-3.6105,-3.5391,-3.5071,-3.5543,-3.5182,-3.5247,-3.5959,-3.5379,0.0,0.0,-3.6092,-3.6336,-3.6806,0.0,0.0,0.0,-3.9256,0.0,0.0,0.0,0.0,0.0,-4.2246,0.0,-4.0754,-4.0754,-4.0187,-3.9325,-3.9782,-3.9952,-3.9952,-3.9952,-4.0252,-4.0659,-4.0153,-3.9952,-3.9919,-3.9468,-3.9272,-3.9272,-3.9272,-3.9272,-3.9272,-3.9272,-3.9272,-3.9415,-4.0003,-3.985,-3.9713,-4.078,-4.0703,0.0,0.0,0.0,-4.0856,0.0,0.0,0.0,0.0,0.0,0.0,0.0,0.0,0.0,0.0,0.0,0.0,0.0,0.0,0.0,0.0,-3.8717,-3.859,-3.9202,-3.8141,0.0,0.0,0.0,-3.859,-3.9272,-3.9272,-3.9272,-3.9272,-3.9272,-3.9272,-3.9272,-3.9272,-3.9272,-3.9272,-3.9272,-3.9272,-3.9272,-3.9272,-3.9272,-3.9272,-3.9272,-3.9272,-3.9272,-3.9272,-3.9272,-3.9272,-3.9272,-3.9272,-3.9272,-3.3599,-3.4448,-3.5171,0.0,-3.5538,-3.5732,0.0,0.0,0.0,0.0,-3.5362,-3.5102,-3.5224,-3.5008,-3.4947,-3.5071,-3.5492,0.0,0.0,0.0,0.0,-3.682,-3.735,-3.7853,-3.8328,-3.9056,-3.9739,-4.04,0.0,0.0,-4.0878,0.0,0.0,0.0,0.0,0.0,-4.0203,-4.0203,-3.9833,-3.9325,-3.9415,-3.9451,0.0,0.0,-3.9556,-3.9661,-3.9504,-3.9451,-3.9451,-3.9325,-3.9272,-3.9272,-3.9272,-3.9272,-3.9272,-3.9272,-3.9272,-3.9325,-3.9504,-3.9415,-3.9432,-3.9679,-3.9696,-3.9592,0.0,0.0,0.0,0.0,0.0,0.0,0.0,0.0,0.0,0.0,0.0,0.0,0.0,0.0,0.0,-3.9272,0.0,0.0,-3.9272,-3.9023,-3.8733,-3.8455,-3.81,0.0,0.0,0.0,-3.859,-3.9272,-3.9272,-3.9272,-3.9272,-3.9272,-3.9272,-3.9272,-3.9272,-3.9272,-3.9272,-3.9272,-3.9272,-3.9272,-3.9272,-3.9272,-3.9272,-3.9272,-3.9272,-3.9272,-3.9272,-3.9272,-3.9272,-3.9272,-3.9272,-3.9272,-3.4176,0.0,0.0,-3.527,0.0,0.0,-3.5316,0.0,0.0,-3.5756,-3.5554,0.0,-3.5827,-3.5578,-3.5512,-3.5827,-3.6241,0.0,-3.6953,0.0,0.0,-3.7582,-3.7996,-3.8334,-3.8589,-3.931,0.0,-4.0449,0.0,0.0,-4.0802,0.0,0.0,0.0,0.0,-4.0832,0.0,-3.9868,-3.9556,-3.9272,-3.9272,0.0,0.0,-3.9272,-3.9272,-3.9272,-3.9272,-3.9272,-3.9272,-3.9272,-3.9272,-3.9272,-3.9272,-3.9272,-3.9272,-3.9272,-3.9272,-3.9272,-3.9272,-3.9272,-3.9272,-3.9272,-3.9272,-3.9272,-3.9272,-3.9272,-3.9272,0.0,-3.9272,-3.9272,0.0,0.0,0.0,0.0,0.0,0.0,0.0,0.0,0.0,0.0,-3.8969,0.0,-3.9272,-3.8606,-3.8327,-3.8567,-3.8042,0.0,0.0,0.0,-3.8351,-3.9272,-3.9023,-3.9023,-3.9272,-3.9272,-3.9272,-3.9272,-3.9272,-3.9272,-3.9272,-3.9272,-3.9272,-3.9272,-3.9272,-3.9272,-3.9272,-3.9272,-3.9272,-3.9272,-3.9272,-3.9272,-3.9272,-3.9272,-3.9272,-3.9272,0.0,0.0,0.0,0.0,0.0,0.0,0.0,-3.5596,0.0,-3.6009,0.0,-3.639,-3.7036,-3.6539,-3.6406,-3.7052,0.0,-3.7533,-3.8179,-3.7698,-3.7682,-3.8328,-3.8344,-3.8344,-3.8344,-3.8957,-3.9504,0.0,0.0,0.0,0.0,0.0,0.0,0.0,0.0,0.0,0.0,-3.9661,-3.9272,-3.9272,-3.9272,-3.9272,-3.9272,-3.9272,-3.9272,-3.9272,-3.9272,-3.9272,-3.9272,-3.9272,-3.9272,-3.9272,-3.9272,-3.9272,-3.9272,-3.9272,-3.9272,-3.9272,-3.9272,-3.9272,-3.9272,-3.9272,-3.9272,-3.9272,-3.9272,-3.9272,-3.9272,-3.9272,-3.9272,-3.9272,0.0,0.0,0.0,0.0,0.0,0.0,0.0,0.0,0.0,0.0,0.0,0.0,-3.9272,-3.8141,-3.7895,-3.9148,0.0,0.0,0.0,0.0,-3.8141,-3.9272,-3.8717,-3.8717,-3.9272,-3.9272,-3.9272,-3.9272,-3.9272,-3.9272,-3.9272,-3.9272,-3.9272,-3.9272,-3.9272,-3.9272,-3.9272,-3.9272,-3.9272,-3.9272,-3.9272,-3.9272,-3.9272,-3.9272,-3.9272,-3.9272,0.0,0.0,0.0,0.0,0.0,-3.6671,-3.6554,-3.6158,-3.5844,-3.6009,-3.6539,-3.697,-3.7102,-3.6986,-3.697,-3.7102,-3.7665,0.0,0.0,0.0,0.0,-3.9073,-3.909,-3.909,-3.909,-3.9206,-3.9325,0.0,0.0,0.0,0.0,0.0,0.0,0.0,0.0,0.0,-3.9556,-3.9362,0.0,-3.9272,-3.9272,-3.9272,-3.9272,-3.9272,-3.9272,-3.9272,-3.9272,-3.9272,-3.9272,-3.9272,-3.9272,-3.9272,-3.9272,-3.9272,-3.9272,-3.9272,-3.9272,-3.9272,-3.9272,-3.9272,-3.9272,-3.9272,-3.9272,-3.9272,-3.9272,-3.9272,-3.9272,-3.9272,-3.9272,-3.9272,-3.9272,0.0,0.0,0.0,0.0,0.0,0.0,0.0,0.0,0.0,0.0,-3.8717,-3.9272,-3.8914,0.0,0.0,0.0,0.0,0.0,0.0,-3.9094,0.0,-3.9202,0.0,0.0,0.0,-3.9272,-3.9272,-3.9272,-3.9272,-3.9272,-3.9272,-3.9272,-3.9272,-3.9272,-3.9272,-3.9272,-3.9272,-3.9272,-3.9272,-3.9272,-3.9272,-3.9272,-3.9272,-3.9272,-3.9272,0.0,0.0,0.0,0.0,0.0,0.0,0.0,-3.6727,0.0,-3.6847,-3.7279,-3.7711,-3.8074,-3.7793,-3.7779,-3.8195,-3.856,-3.8758,-3.8758,-3.9073,-3.9272,-3.9272,-3.9272,-3.9272,-3.9272,-3.9272,-3.9272,-3.9272,0.0,0.0,0.0,0.0,0.0,0.0,0.0,-3.9679,0.0,0.0,0.0,-3.9272,-3.9272,-3.9272,-3.9272,-3.9272,-3.9272,-3.9272,-3.9272,-3.9272,-3.9272,-3.9272,-3.9272,-3.9272,-3.9272,-3.9272,-3.9272,-3.9272,-3.9272,-3.9272,-3.9272,-3.9272,-3.9272,-3.9272,-3.9272,-3.9272,-3.9272,-3.9272,-3.9272,-3.9272,-3.9272,-3.9272,-3.9272,-3.9272,0.0,0.0,0.0,0.0,0.0,0.0,-3.8662,0.0,0.0,0.0,0.0,0.0,0.0,0.0,0.0,0.0,0.0,0.0,-3.8952,0.0,0.0,0.0,-3.9272,0.0,-3.9272,-3.9272,-3.9272,-3.9272,-3.9272,-3.9272,-3.9272,-3.9272,-3.9272,-3.9272,-3.9272,-3.9272,-3.9272,-3.9272,-3.9272,-3.9272,-3.9272,-3.9272,-3.9272,-3.9272,0.0,-3.679,0.0,0.0,-3.7003,0.0,-3.7032,-3.7469,-3.778,-3.7724,-3.7978,-3.8414,-3.8903,-3.8546,-3.8553,-3.9169,-3.9272,-3.9272,-3.9272,-3.9272,-3.9272,-3.9272,-3.9272,-3.9272,-3.9272,-3.9272,-3.9272,0.0,0.0,0.0,0.0,0.0,0.0,0.0,0.0,0.0,0.0,0.0,-3.9272,-3.9272,-3.9272,-3.9272,-3.9272,-3.9272,-3.9272,-3.9272,-3.9272,-3.9272,-3.9272,-3.9272,-3.9272,-3.9272,-3.9272,-3.9272,-3.9272,-3.9272,-3.9272,-3.9272,-3.9272,-3.9272,-3.9272,-3.9272,-3.9272,-3.9272,-3.9272,-3.9272,-3.9272,-3.9272,-3.9272,-3.9272,-3.9272,-3.9272,0.0,0.0,0.0,0.0,0.0,0.0,-3.8238,0.0,0.0,0.0,-3.8108,0.0,0.0,0.0,0.0,0.0,-3.9272,0.0,0.0,0.0,0.0,-3.8772,-3.9272,0.0,-3.9272,-3.9272,-3.9272,-3.9272,-3.9272,-3.9272,-3.9272,-3.9272,-3.9272,-3.9272,-3.9272,-3.9272,-3.9272,-3.9272,-3.9272,-3.9272,-3.9272,-3.9272,-3.9272,-3.9272,0.0,0.0,0.0,0.0,0.0,0.0,-3.8404,-3.8564,-3.8461,-3.7806,-3.8405,-3.8887,-3.886,-3.9028,-3.9135,-3.9023,-3.9202,-3.9272,-3.9272,-3.9272,-3.9272,-3.9272,-3.9272,-3.9272,-3.9272,-3.9272,-3.9272,0.0,0.0,-3.8941,0.0,0.0,0.0,0.0,0.0,0.0,0.0,-3.9325,-3.9272,-3.9272,-3.9272,-3.9272,-3.9272,-3.9272,-3.9272,-3.9272,-3.9272,-3.9272,-3.9272,-3.9272,-3.9272,-3.9272,-3.9272,-3.9272,-3.9272,-3.9272,-3.9272,-3.9272,-3.9272,-3.9272,-3.9272,-3.9272,-3.9272,-3.9272,-3.9272,-3.9272,-3.9272,-3.9272,-3.9272,-3.9272,-3.9272,-3.9272,-3.9272,0.0,0.0,0.0,0.0,0.0,-3.8733,-3.7546,0.0,0.0,-3.7605,-3.8623,0.0,0.0,-3.8952,0.0,0.0,0.0,0.0,-3.9272,-3.9218,-3.9218,-3.9272,-3.9272,-3.9272,-3.9272,-3.9272,-3.9272,-3.9272,-3.9272,-3.9272,-3.9272,-3.9272,-3.9272,-3.9272,-3.9272,-3.9272,-3.9272,-3.9272,-3.9272,-3.9272,-3.9272,-3.9272,-3.9272,0.0,0.0,0.0,0.0,0.0,0.0,0.0,-3.8504,-3.8446,-3.8154,-3.8476,-3.8711,-3.8672,-3.8782,-3.8892,-3.886,-3.904,-3.9148,-3.9148,-3.9218,-3.9272,-3.9272,-3.9272,-3.9272,-3.9272,-3.9272,-3.9272,0.0,0.0,0.0,0.0,0.0,0.0,0.0,0.0,-3.9272,-3.9272,-3.9272,-3.9272,-3.9272,-3.9272,-3.9272,-3.9272,-3.9272,-3.9272,-3.9272,-3.9272,-3.9272,-3.9272,-3.9272,-3.9272,-3.9272,-3.9272,-3.9272,-3.9272,-3.9272,-3.9272,-3.9272,-3.9272,-3.9272,-3.9272,-3.9272,-3.9272,-3.9272,-3.9272,-3.9272,-3.9272,-3.9272,-3.9272,-3.9272,-3.9272,-3.9272,-3.9272,-3.9272,0.0,0.0,0.0,0.0,0.0,-3.6845,0.0,-3.7953,-3.7429,0.0,0.0,0.0,0.0,0.0,0.0,0.0,0.0,-3.9272,0.0,-3.9272,-3.9272,-3.9272,-3.9272,-3.9272,-3.9272,-3.9272,-3.9272,-3.9272,-3.9272,-3.9272,-3.9272,-3.9272,-3.9272,-3.9272,-3.9272,-3.9272,-3.9272,-3.9272,-3.9272,-3.9272,-3.9272,-3.9272,-3.8165,0.0,-3.8504,0.0,-3.8448,-3.852,-3.8391,-3.8391,-3.8391,-3.8391,-3.8448,-3.856,-3.856,-3.8616,-3.8655,-3.8766,-3.886,-3.8914,-3.8914,-3.9094,-3.9202,-3.9202,-3.9272,0.0,-3.9272,-3.9218,-3.9218,-3.9272,-3.9218,0.0,0.0,0.0,0.0,0.0,-3.9272,-3.9272,-3.9272,-3.9272,-3.9272,-3.9272,-3.9272,-3.9272,-3.9272,-3.9272,-3.9272,-3.9272,-3.9272,-3.9272,-3.9272,-3.9272,-3.9272,-3.9272,-3.9272,-3.9272,-3.9272,-3.9272,-3.9272,-3.9272,-3.9272,-3.9272,-3.9272,-3.9272,-3.9272,-3.9272,-3.9272,-3.9272,-3.9272,-3.9272,-3.9272,-3.9272,-3.9272,-3.9272,-3.9272,-3.9272,0.0,0.0,0.0,-3.7413,0.0,-3.643,-3.7131,-3.7546,-3.7131,-3.8254,0.0,0.0,0.0,0.0,0.0,0.0,0.0,0.0,0.0,0.0,-3.9272,-3.9272,-3.9272,-3.9272,-3.9272,-3.9272,-3.9272,-3.9272,-3.9272,-3.9272,-3.9272,-3.9272,-3.9272,-3.9272,-3.9272,-3.9272,-3.9272,-3.9272,-3.9272,-3.9272,-3.9272,-3.9272,-3.8391,-3.8391,-3.8391,-3.8391,-3.8391,-3.8391,-3.8391,-3.8391,-3.8391,-3.8391,-3.8391,-3.8391,-3.8391,-3.8655,-3.875,-3.8616,-3.8711,-3.8805,-3.8805,-3.8914,-3.9023,0.0,0.0,-3.9272,-3.9272,-3.9094,-3.9094,-3.9272,0.0,0.0,-3.8228,0.0,-3.8593,-3.9272,-3.9272,-3.9272,-3.9272,-3.9272,-3.9272,-3.9272,-3.9272,-3.9272,-3.9272,-3.9272,-3.9272,-3.9272,-3.9272,-3.9272,-3.9272,-3.9272,-3.9272,-3.9272,-3.9272,-3.9272,-3.9272,-3.9272,-3.9272,-3.9272,-3.9272,-3.9272,-3.9272,-3.9272,-3.9272,-3.9272,-3.9272,-3.9272,-3.9272,-3.9272,-3.9272,-3.9272,-3.9272,-3.9272,-3.9272,-3.9272,0.0,0.0,0.0,-3.7937,0.0,-3.6538,-3.7531,-3.7822,-3.6538,-3.7589,0.0,0.0,0.0,0.0,0.0,0.0,0.0,-3.9272,-3.9272,0.0,-3.9272,-3.9272,-3.9272,-3.9272,-3.9272,-3.9272,-3.9272,-3.9272,-3.9272,-3.9272,-3.9272,-3.9272,-3.9272,-3.9272,-3.9272,-3.9272,-3.9272,-3.9272,-3.9272,-3.9272,-3.9272,-3.9272,-3.8335,-3.8391,-3.8391,-3.8391,-3.8391,-3.8391,-3.8391,-3.8391,-3.8391,-3.8391,-3.8391,-3.8391,-3.8391,-3.8504,-3.8504,0.0,-3.8616,-3.8655,0.0,-3.8805,-3.886,-3.886,-3.8914,-3.8985,-3.8985,-3.8914,-3.8914,-3.8985,0.0,0.0,0.0,-3.8817,-3.8933,-3.9272,-3.9272,-3.9272,-3.9272,-3.9272,-3.9272,-3.9272,-3.9272,-3.9272,-3.9272,-3.9272,-3.9272,-3.9272,-3.9272,-3.9272,-3.9272,-3.9272,-3.9272,-3.9272,-3.9272,-3.9272,-3.9272,-3.9272,-3.9272,-3.9272,-3.9272,-3.9272,-3.9272,-3.9272,-3.9272,-3.9272,-3.9272,-3.9272,-3.9272,-3.9272,-3.9272,-3.9272,-3.9272,-3.8914,-3.859,-3.859,-3.7895,0.0,-3.7937,0.0,-3.7191,-3.7648,-3.8051,-3.8108,-3.7764,-3.8479,0.0,0.0,0.0,0.0,0.0,0.0,0.0,0.0,-3.9272,0.0,-3.9272,-3.9272,-3.9272,-3.9272,-3.9272,-3.9272,-3.9272,-3.9272,-3.9272,-3.9272,-3.9272,-3.9272,-3.9272,-3.9272,-3.9272,-3.9272,-3.9272,-3.9272,-3.9272,-3.9272,-3.9272,-3.9355,-3.7578,-3.7844,-3.8033,-3.8033,-3.8221,-3.8391,-3.8391,-3.8391,-3.8391,-3.8391,-3.8391,-3.8391,-3.8391,-3.8391,0.0,-3.8391,-3.8464,-3.8504,-3.8504,-3.8655,-3.8711,-3.8711,-3.875,-3.8805,-3.8805,-3.8495,0.0,-3.8511,-3.8662,-3.8952,-3.9272,-3.9148,-3.9202,-3.9272,-3.9272,-3.9272,-3.9272,-3.9272,-3.9272,-3.9272,-3.9272,-3.9272,-3.9272,-3.9272,-3.9272,-3.9272,-3.9272,-3.9272,-3.9272,-3.9272,-3.9272,-3.9272,-3.9272,-3.9272,-3.9272,-3.9272,-3.9272,-3.9272,-3.9272,-3.9272,-3.9272,-3.9272,-3.9094,-3.8843,-3.8623,-3.8788,-3.8898,-3.8898,-3.8898,-3.8898,-3.8898,-3.859,-3.8278,-3.8278,-3.7822,-3.7605,-3.7953,0.0,-3.6951,-3.7531,0.0,0.0,0.0,-3.8311,-3.8678,0.0,0.0,0.0,0.0,0.0,0.0,-3.9272,-3.9272,-3.9272,-3.9272,-3.9272,-3.9272,-3.9272,-3.9272,-3.9272,-3.9272,-3.9272,-3.9272,-3.9272,-3.9272,-3.9272,-3.9272,-3.9272,-3.9272,-3.9272,-3.9272,-3.9272,-3.9272,-3.9272,-3.9508,-3.9752,-3.6384,-3.689,-3.7342,0.0,-3.7902,0.0,-3.8335,-3.8391,-3.8391,-3.8391,-3.8391,-3.8391,-3.8391,-3.8391,-3.8391,-3.8391,0.0,0.0,0.0,-3.8504,-3.8576,-3.8576,-3.8711,-3.875,-3.875,-3.801,-3.7722,-3.81,-3.8238,-3.8662,-3.9272,-3.9272,-3.9272,-3.9272,-3.9272,-3.9272,-3.9272,-3.9272,-3.9272,-3.9272,-3.9272,-3.9272,-3.9272,-3.9272,-3.9272,-3.9272,-3.9272,-3.9272,-3.9218,-3.9218,-3.9202,-3.9148,-3.9148,-3.9148,-3.9218,-3.9272,-3.9272,-3.9218,-3.9218,-3.9202,-3.9148,-3.9148,-3.8717,-3.8108,-3.7546,-3.7822,-3.8222,-3.8222,-3.8222,-3.8222,-3.8222,-3.8222,-3.8165,-3.8165,-3.8662,-3.8678,-3.7546,-3.7429,-3.7191,0.0,0.0,0.0,-3.7488,-3.7546,-3.7764,0.0,0.0,0.0,0.0,0.0,-3.9272,-3.9272,-3.9272,-3.9272,-3.9272,-3.9272,-3.9272,-3.9272,-3.9272,-3.9272,-3.9272,-3.9272,-3.9272,-3.9272,-3.9272,-3.9272,-3.9272,-3.9272,-3.9272,-3.9272,-3.9272,-3.9272,-3.9342,-3.9338,-3.9785,-4.0398,0.0,0.0,-3.6646,-3.6646,-3.7207,-3.7653,-3.7653,-3.8091,-3.8391,-3.8391,-3.8391,-3.8391,-3.8391,-3.8391,-3.8391,-3.8391,-3.8391,-3.8391,-3.8391,-3.8464,-3.8464,-3.8464,-3.8504,-3.8488,-3.8488,-3.7828,-3.7562,-3.7879,-3.8439,-3.8898,-3.9272,-3.9148,-3.9148,-3.9272,-3.9272,-3.9272,-3.9272,-3.9272,-3.9272,-3.9272,-3.9272,-3.9272,-3.9272,-3.9272,-3.9272,-3.9272,-3.9272,-3.8969,-3.8535,-3.8535,-3.8238,-3.7838,-3.7838,-3.7838,-3.801,-3.9023,-3.8952,-3.8535,-3.8535,-3.8181,-3.7838,-3.7838,-3.7722,-3.7605,-3.7413,-3.7546,-3.7589,-3.7589,-3.7589,-3.7589,-3.7589,-3.7191,-3.6829,-3.6829,-3.6616,-3.6616,-3.731,-3.7429,-3.7722,0.0,-3.8623,-3.8678,-3.8843,-3.886,-3.8914,0.0,0.0,0.0,-3.9272,-3.9272,-3.9272,-3.9272,-3.9272,-3.9272,-3.9272,-3.9272,-3.9272,-3.9272,-3.9272,-3.9272,-3.9272,-3.9272,-3.9272,-3.9272,-3.9272,-3.9272,-3.9272,-3.9272,-3.9272,-3.9272,-3.9272,-3.9272,-3.9392,-3.9901,-4.0233,-4.0531,-3.5464,-3.5706,-3.5946,-3.5946,-3.6523,-3.6966,-3.6966,-3.7519,-3.796,-3.796,-3.8221,-3.8391,-3.8391,-3.8391,-3.8391,-3.8391,-3.8391,-3.8391,-3.8391,-3.8391,-3.8391,-3.8391,-3.8091,-3.796,-3.796,-3.6966,-3.6569,-3.6783,-3.7219,-3.7706,-3.8165,-3.8124,-3.8124,-3.8181,-3.8367,-3.8383,-3.8311,-3.8367,-3.8439,-3.8439,-3.8439,-3.8439,-3.8439,-3.8439,-3.8439,-3.8439,-3.8439,-3.8197,-3.7879,-3.7879,-3.7648,-3.7429,-3.7429,-3.7429,-3.7546,-3.8197,-3.8181,-3.7879,-3.7879,-3.7648,-3.731,-3.7011,-3.6951,-3.689,-3.66,-3.6723,-3.6951,-3.6951,-3.6951,-3.6951,-3.6951,-3.6662,-3.643,-3.643,-3.6368,-3.6492,-3.6906,-3.6951,-3.7087,-3.7504,-3.7562,-3.7679,-3.7969,-3.8254,-3.8551,-3.8827,-3.9148,0.0,-3.9272,-3.9272,-3.9272,-3.9272,-3.9272,-3.9272,-3.9272,-3.9272,-3.9272,-3.9272,-3.9272,-3.9272,-3.9272,-3.9272,-3.9272,-3.9272,-3.9272,-3.9272,-3.9272,-3.9272,-3.9272,-3.9272,-3.9272,-3.9487,-3.9835,-4.0233,-4.0796,-4.1475,-3.4414,-3.4839,-3.5285,-3.5285,-3.5834,-3.6259,-3.6259,-3.6829,-3.7222,-3.7222,-3.7711,-3.8091,-3.8091,-3.8091,-3.8091,-3.8091,-3.8091,-3.8148,-3.8205,-3.8148,-3.8091,-3.8091,-3.7535,-3.7222,-3.7222,-3.615,-3.5578,-3.5627,-3.5897,-3.6322,-3.6767,-3.698,-3.698,-3.6843,-3.7175,-3.731,-3.7175,-3.731,-3.7429,-3.7429,-3.7429,-3.7429,-3.7429,-3.7429,-3.7429,-3.7429,-3.7429,-3.731,-3.7251,-3.7251,-3.7191,-3.7131,-3.7131,-3.7131,-3.7131,-3.7131,-3.7131,-3.7131,-3.7251,-3.7191,-3.6966,-3.643,-3.6258,-3.6148,-3.5619,-3.591,-3.6258,-3.6258,-3.6258,-3.6258,-3.6258,-3.6258,-3.6258,-3.6258,-3.6723,-3.6966,-3.6492,0.0,-3.6258,-3.5861,-3.5797,-3.5973,-3.6492,-3.7071,-3.7648,-3.8222,-3.8843,-3.9202,-3.9272,-3.9272,-3.9272,-3.9272,-3.9272,-3.9272,-3.9272,-3.9272,-3.9272,-3.9272,-3.9272,-3.9272,-3.9272,-3.9272,-3.9272,-3.9272,-3.9272,-3.9272,-3.9272,-3.9272,-3.9272,-3.9288,-3.9404,-3.9835,-4.0415,-4.063,-4.1475,-4.2535,-3.4414,-3.4467,-3.4534,-3.4534,-3.5088,-3.5593,-3.5593,-3.6134,-3.6569,-3.6569,-3.6646,-3.6692,-3.6692,-3.6692,-3.6692,-3.6692,-3.6692,-3.6951,-3.7535,-3.7011,-3.6692,-3.6692,-3.6631,-3.6569,-3.6569,-3.643,-3.6182,-3.5627,-3.6291,-3.6722,-3.6767,-3.6843,-3.6919,-3.7055,-3.7115,-3.7251,-3.737,-3.737,-3.7429,-3.7429,-3.7429,-3.7429,-3.7429,-3.7429,-3.7429,-3.7429,-3.7429,-3.7011,-3.6554,-3.6554,-3.6196,-3.5797,-3.5797,-3.5797,-3.5797,-3.5797,-3.5797,-3.591,-3.643,-3.6196,-3.5797,-3.5683,-3.5619,-3.5619,-3.5504,-3.5569,-3.5619,-3.5619,-3.5619,-3.5619,-3.5619,-3.5619,-3.5619,-3.5619,-3.5748,-3.591,-3.6368,0.0,-3.6554,-3.7071,-3.7131,-3.7131,-3.7251,-3.737,-3.7648,-3.8222,-3.8407,-3.8717,-3.9272,-3.9272,-3.9272,-3.9272,-3.9272,-3.9272,-3.9272,-3.9272,-3.9272,-3.9272,-3.9272,-3.9272,-3.9272,-3.9272,-3.9272,-3.9272,-3.9272,-3.9272,-3.9272,-3.9272,-3.9272,-3.9338,-3.9967,-4.0282,-4.0531,-4.174,-4.2319,-4.2618,-3.4414,-3.4414,-3.4414,-3.4414,-3.4668,-3.4839,-3.4839,-3.5464,-3.5897,-3.5897,-3.6197,-3.6384,-3.6384,-3.6384,-3.6384,-3.6384,-3.6072,-3.6024,-3.6275,-3.6384,-3.6384,-3.6384,-3.6072,-3.5706,-3.5335,-3.5385,-3.527,-3.4957,-3.532,-3.5499,-3.5499,-3.5691,-3.577,-3.5785,-3.6117,-3.6243,-3.6228,-3.6305,-3.6383,-3.6383,-3.6383,-3.6383,-3.6383,-3.6383,-3.6383,-3.6383,-3.6383,-3.6211,-3.591,-3.591,-3.5733,-3.5504,-3.5504,-3.5504,-3.5504,-3.5504,-3.5504,-3.5554,-3.5861,-3.5733,-3.5504,-3.5504,-3.5504,-3.5504,-3.5504,-3.5504,-3.5504,-3.5504,-3.5504,-3.5504,-3.5504,-3.5504,-3.5504,-3.5504,-3.5504,-3.5619,-3.5846,-3.591,-3.6022,-3.6321,-3.6383,-3.6383,-3.6383,-3.7027,-3.7546,-3.7764,-3.8479,-3.8952,-3.9272,-3.9272,-3.9272,-3.9272,-3.9272,-3.9272,-3.9272,-3.9272,-3.9272,-3.9272,-3.9272,-3.9272,-3.9272,-3.9272,-3.9272,-3.9272,-3.9272,-3.9272,-3.9305,-3.9702,-3.9868,-3.9934,-4.0647,-4.1177,-4.1607,-4.227,-4.2767,-4.3164,-3.4414,-3.4414,-3.4414,-3.4414,-3.4414,-3.4414,-3.4414,-3.4839,-3.5154,-3.5154,-3.5642,-3.5946,-3.5946,-3.5946,-3.5946,-3.5946,-3.5464,-3.5154,-3.5154,-3.5642,-3.5946,-3.5946,-3.5464,-3.4905,-3.4414,-3.4414,-3.4414,-3.4414,-3.4414,-3.4414,-3.4414,-3.4668,-3.475,-3.4698,-3.5111,-3.5228,-3.5148,-3.5359,-3.5439,-3.5439,-3.5504,-3.5504,-3.5504,-3.5504,-3.5504,-3.5504,-3.5504,-3.5504,-3.5504,-3.5504,-3.5504,-3.5504,-3.5504,-3.5504,-3.5504,-3.5504,-3.5504,-3.5504,-3.5504,-3.5504,-3.5504,-3.5504,-3.5504,-3.5504,-3.5504,-3.5504,-3.5504,-3.5504,-3.5504,-3.5504,-3.5504,-3.5504,-3.5504,-3.5504,0.0,-3.5504,-3.5504,-3.5504,-3.5504,-3.5504,-3.5504,-3.5504,-3.5504,-3.6492,-3.7251,-3.737,-3.8439,-3.9148,-3.9272,-3.9272,-3.9272,-3.9272,-3.9272,-3.9272,-3.9272,-3.9272,-3.9272,-3.9272,-3.9272,-3.9272,-3.9272,-3.9272,-3.9371,-3.9537,-3.9537,-3.962,-3.9818,-4.0382,-4.0613,-4.0696,-4.1392,-4.2021,-4.2535,-4.2717,-4.3131,-4.3628,-3.4414,-3.4414,-3.4414,-3.4414,-3.4414,-3.4414,-3.4414,-3.4414,-3.4467,-3.4467,-3.4534,-3.4534,-3.4534,-3.4534,-3.4534,-3.4534,-3.4467,-3.4467,-3.4467,-3.4534,-3.4534,-3.4534,-3.4467,-3.4467,-3.4414,-3.4414,-3.4414,-3.4414,-3.4414,-3.4414,-3.4414,-3.4414,-3.4549,-3.4698,-3.4765,-3.4817,-3.4935,-3.5148,-3.5213,-3.5228,-3.5439,-3.5504,-3.5504,-3.5504,-3.5504,-3.5504,-3.5504,-3.5504,-3.5504,-3.5504,-3.5504,-3.5504,-3.5504,-3.5504,-3.5504,-3.5504,-3.5504,-3.5504,-3.5504,-3.5504,-3.5504,-3.5504,-3.5504,-3.5504,-3.5504,-3.5504,-3.5504,-3.5504,-3.5504,-3.5504,-3.5504,-3.5504,-3.5504,-3.5504,0.0,0.0,-3.5504,-3.5504,-3.5504,-3.5504,-3.5504,-3.5504,-3.5504,-3.6085,-3.6723,-3.737,-3.7994,-3.8645,-3.9272,-3.9272,-3.9272,-3.9272,-3.9272,-3.9272,-3.9272,-3.9272,-3.9272,-3.9272,-3.9272,-3.9272,-3.9272,-3.9272,-3.9653,-4.0299,-4.0299,-4.0663,-4.1259,-4.1309,-4.1342,-4.1409,-4.2154,-4.2469,-4.2601,-4.3297,-4.3578,-4.3628,-3.4414,-3.4414,-3.453,-3.4936,-3.5009,-3.514,-3.5532,-3.559,-3.559,-3.559,-3.559,-3.559,-3.559,-3.559,-3.543,-3.5038,-3.5009,-3.4835,-3.4443,-3.4414,-3.4414,-3.4414,-3.4414,-3.4414,-3.4414,-3.4414,-3.4414,-3.4414,-3.4414,-3.4414,-3.4414,-3.4549,-3.4631,-3.4698,-3.4817,-3.4868,-3.4935,-3.5082,-3.5213,-3.5213,-3.5439,-3.5504,-3.5504,-3.5504,-3.5504,-3.5504,-3.5504,-3.5504,-3.5504,-3.5504,-3.5504,-3.5504,-3.5504,-3.5504,-3.5504,-3.5504,-3.5504,-3.5504,-3.5504,-3.5504,-3.5504,-3.5504,-3.5504,-3.5504,-3.5504,-3.5504,-3.5504,-3.5504,-3.5504,-3.5504,-3.5504,-3.5504,-3.5504,-3.5504,0.0,-3.5504,-3.5504,-3.5504,-3.5504,-3.5504,-3.5504,-3.5504,-3.5504,-3.643,-3.6951,-3.6784,-3.8141,-3.8843,-3.8717,-3.9077,-3.9272,-3.9272,-3.9272,-3.9272,-3.9272,-3.9272,-3.9272,-3.9342,-3.9736,-3.9951,-3.9967,-4.0398,-4.0763,-4.1011,-4.1011,-4.1177,-4.1458,-4.1905,-4.2088,-4.217,-4.2916,-4.3197,-4.3247,-4.3529,-4.3628,-4.3628,-3.4675,-3.4704,-3.4907,-3.5546,-3.5662,-3.5807,-3.6243,-3.6301,-3.6301,-3.6301,-3.6301,-3.6301,-3.6301,-3.6301,-3.6127,-3.5706,-3.5662,-3.5473,-3.5038,-3.5009,-3.4835,-3.4428,-3.4414,-3.4414,-3.4414,-3.4414,-3.4414,-3.4414,-3.4414,-3.4414,-3.4414,-3.4549,-3.4631,-3.4631,-3.4668,-3.4735,-3.4735,-3.4949,-3.5082,-3.5148,-3.5294,-3.5439,-3.5504,-3.5504,-3.5504,-3.5504,-3.5504,-3.5504,-3.5504,-3.5504,-3.5504,-3.5504,-3.5439,-3.5359,-3.5294,-3.5359,-3.5439,-3.5439,-3.5504,-3.5504,-3.5504,-3.5504,-3.5504,-3.5504,-3.5504,-3.5504,-3.5504,-3.5504,-3.5504,-3.5504,-3.5504,-3.5504,-3.5504,-3.5504,-3.5504,-3.5504,-3.5504,-3.5504,-3.5504,-3.5504,-3.5504,-3.5504,-3.5504,-3.643,-3.6906,-3.643,-3.7838,-3.8495,-3.8051,-3.8662,-3.8969,-3.8969,-3.9433,-3.962,-3.962,-3.962,-3.962,-3.9636,-4.0365,-4.0696,-4.0713,-4.1193,-4.1541,-4.1756,-4.1756,-4.1889,-4.2137,-4.2667,-4.2866,-4.2916,-4.3429,-4.3628,-4.3628,-4.3628,-4.3628,-4.3628,-3.5241,-3.5441,-3.5575,-3.6199,-3.6315,-3.6315,-3.6315,-3.6315,-3.6315,-3.6315,-3.6315,-3.6315,-3.6315,-3.6315,-3.6315,-3.6315,-3.6315,-3.6315,-3.6301,-3.6301,-3.5749,-3.4486,-3.4428,-3.4414,-3.4414,-3.4414,-3.4414,-3.4414,-3.4414,-3.4414,-3.4414,-3.4414,-3.4414,-3.4414,-3.4414,-3.4414,-3.4414,-3.4631,-3.475,-3.4935,-3.5148,-3.5294,-3.5504,-3.5504,-3.5504,-3.5504,-3.5504,-3.5504,-3.5504,-3.5504,-3.5504,-3.5439,-3.5294,-3.5082,-3.4935,-3.5148,-3.5213,-3.5228,-3.5439,-3.5504,-3.5504,-3.5504,-3.5504,-3.5504,-3.5504,-3.5504,-3.5504,-3.5504,-3.5504,-3.5504,-3.5504,-3.5504,-3.5504,-3.5504,-3.5504,-3.5504,-3.5504,-3.5504,-3.5504,-3.5504,-3.5504,-3.5504,-3.5504,-3.6022,-3.643,-3.6368,-3.7011,-3.7429,-3.7429,-3.801,-3.8294,-3.8311,-3.9693,-4.0398,-4.0398,-4.0398,-4.0398,-4.0398,-4.1094,-4.1425,-4.1425,-4.1425,-4.1839,-4.2535,-4.2535,-4.2949,-4.3628,-4.3628,-4.3628,-4.3628,-4.3628,-4.3628,-4.3628,-4.3628,-4.3628,-4.3628,-3.5909,-3.6025,-3.6228,-3.6896,-3.7012,-3.7143,-3.7578,-3.7636,-3.7636,-3.7636,-3.7636,-3.7636,-3.7636,-3.7636,-3.7462,-3.7041,-3.7012,-3.6809,-3.6344,-3.6301,-3.6141,-3.5764,-3.5314,-3.4878,-3.4428,-3.4414,-3.4414,-3.4414,-3.4414,-3.4414,-3.4414,-3.4414,-3.4414,-3.4414,-3.4414,-3.4414,-3.4414,-3.4631,-3.4698,-3.475,-3.4949,-3.5001,-3.5082,-3.5082,-3.5082,-3.5082,-3.5082,-3.5082,-3.5082,-3.5082,-3.5082,-3.5082,-3.5148,-3.5148,-3.5148,-3.5359,-3.5439,-3.5439,-3.5504,-3.5504,-3.5504,-3.5504,-3.5504,-3.5504,-3.5504,-3.5504,-3.5504,-3.5504,-3.5504,-3.5504,-3.5504,-3.5504,-3.5504,-3.5504,-3.5504,-3.5504,-3.5504,-3.5504,-3.5504,-3.5504,-3.5504,-3.5504,-3.5504,-3.6022,-3.6196,-3.5797,-3.6383,-3.7124,-3.8036,-3.8707,-3.9282,-3.9742,-4.0623,-4.111,-4.111,-4.111,-4.111,-4.111,-4.1839,-4.2187,-4.2204,-4.2734,-4.3081,-4.3297,-4.3297,-4.3429,-4.3628,-4.3628,-4.3628,-4.3628,-4.3628,-4.3628,-4.3628,-4.3628,-4.3628,-4.3628,-3.6577,-3.6707,-3.691,-3.7549,-3.7665,-3.7781,-3.8144,-3.8202,-3.8202,-3.8202,-3.8202,-3.8202,-3.8202,-3.8202,-3.8057,-3.7694,-3.7665,-3.7491,-3.7085,-3.7056,-3.6954,-3.6722,-3.6344,-3.5836,-3.5183,-3.4922,-3.4791,-3.4791,-3.453,-3.4414,-3.4414,-3.4414,-3.4414,-3.4414,-3.4414,-3.4414,-3.4414,-3.4549,-3.4631,-3.4698,-3.4817,-3.4868,-3.4935,-3.4935,-3.4935,-3.4935,-3.4935,-3.4935,-3.4935,-3.4935,-3.4868,-3.4817,-3.4949,-3.503,-3.503,-3.5162,-3.5228,-3.5294,-3.5294,-3.5294,-3.5294,-3.5294,-3.5359,-3.5504,-3.5504,-3.5504,-3.5504,-3.5504,-3.5504,-3.5504,-3.5504,-3.5504,-3.5504,-3.5504,-3.5504,-3.5504,-3.5504,-3.5504,-3.5504,-3.5504,-3.5504,-3.5504,-3.5504,-3.5846,-3.6016,-3.5863,-3.6239,-3.6883,-3.7928,-3.8622,-3.9198,-3.958,-4.0526,-4.1032,-4.1032,-4.1563,-4.1889,-4.1856,-4.2601,-4.2965,-4.2965,-4.3429,-4.3628,-4.3628,-4.3628,-4.3628,-4.3628,-4.3628,-4.3628,-4.3628,-4.3628,-4.3628,-4.3628,-4.3628,-4.3628,-4.3628,-3.7259,-3.7389,-3.7564,-3.8101,-3.8202,-3.8202,-3.8202,-3.8202,-3.8202,-3.8202,-3.8202,-3.8202,-3.8202,-3.8202,-3.8202,-3.8202,-3.8202,-3.8202,-3.8202,-3.8202,-3.7955,-3.7404,-3.7389,-3.7099,-3.6489,-3.5793,-3.5444,-3.5444,-3.4864,-3.4545,-3.4501,-3.4501,-3.4472,-3.4414,-3.4414,-3.4414,-3.4414,-3.4414,-3.4481,-3.4698,-3.4698,-3.475,-3.4868,-3.4868,-3.4868,-3.4868,-3.4868,-3.4868,-3.4868,-3.4868,-3.475,-3.4698,-3.4698,-3.4698,-3.4698,-3.4698,-3.4817,-3.4935,-3.4935,-3.4935,-3.4935,-3.4935,-3.5213,-3.5439,-3.5439,-3.5504,-3.5504,-3.5504,-3.5504,-3.5504,-3.5504,-3.5504,-3.5504,-3.5504,-3.5504,-3.5504,-3.5504,-3.5504,-3.5504,-3.5504,-3.5504,-3.5534,-3.5594,-3.5639,-3.5923,-3.6522,-3.6567,-3.6851,-3.7464,-3.8141,-3.8504,-3.8565,-3.9859,-4.0497,-4.0626,-4.1932,-4.257,-4.2501,-4.3238,-4.3628,-4.3628,-4.3628,-4.3628,-4.3628,-4.3628,-4.3628,-4.3628,-4.3628,-4.3628,-4.3628,-4.3628,-4.3628,-4.3628,-4.3628,-4.3628,-4.3628,-3.7883,-3.8014,-3.8043,-3.8188,-3.8202,-3.8202,-3.8202,-3.8202,-3.8202,-3.8202,-3.8202,-3.8202,-3.8202,-3.8202,-3.8202,-3.8202,-3.8202,-3.8202,-3.8202,-3.8202,-3.8144,-3.8014,-3.8014,-3.7941,-3.7796,-3.6678,-3.6098,-3.6098,-3.5967,-3.5648,-3.5154,-3.5154,-3.4893,-3.4414,-3.4414,-3.4414,-3.4414,-3.4414,-3.4414,-3.4481,-3.4481,-3.4481,-3.4481,-3.4481,-3.4481,-3.4481,-3.4481,-3.4481,-3.4481,-3.4481,-3.4481,-3.4481,-3.4631,-3.4698,-3.4698,-3.4817,-3.4868,-3.4935,-3.4935,-3.4935,-3.4935,-3.4935,-3.5082,-3.5294,-3.5294,-3.5359,-3.5504,-3.5504,-3.5504,-3.5504,-3.5504,-3.5504,-3.5504,-3.5504,-3.5504,-3.5504,-3.5504,-3.5504,-3.5504,-3.5504,-3.5504,-3.5714,-3.6222,-3.6716,-3.706,-3.7195,-3.721,-3.7494,-3.8138,-3.8842,-3.9493,-4.0016,-4.0829,-4.1564,-4.2155,-4.2442,-4.2567,-4.2606,-4.329,-4.3628,-4.3628,-4.3628,-4.3628,-4.3628,-4.3628,-4.3628,-4.3628,-4.3628,-4.3628,-4.3628,-4.3628,-4.3628,-4.3628,-4.3628,-4.3628,-4.3628,-3.8008,-3.8066,-3.8066,-3.8202,-3.8202,-3.8202,-3.8202,-3.8202,-3.8202,-3.8202,-3.8202,-3.8202,-3.8202,-3.8202,-3.8202,-3.8202,-3.8202,-3.8202,-3.8202,-3.8202,-3.8202,-3.8202,-3.8202,-3.8202,-3.8202,-3.7549,-3.707,-3.678,-3.646,-3.6141,-3.5807,-3.5807,-3.5473,-3.4864,-3.4864,-3.4704,-3.4414,-3.4414,-3.4414,-3.4414,-3.4414,-3.4414,-3.4414,-3.4414,-3.4414,-3.4414,-3.4414,-3.4414,-3.4414,-3.4414,-3.4414,-3.4414,-3.4481,-3.4631,-3.4698,-3.4683,-3.475,-3.4802,-3.4668,-3.4668,-3.4668,-3.4668,-3.4868,-3.5082,-3.5148,-3.5359,-3.5504,-3.5504,-3.5504,-3.5504,-3.5504,-3.5504,-3.5504,-3.5504,-3.5504,-3.5504,-3.5504,-3.5774,-3.5968,-3.5968,-3.6237,-3.6552,-3.6896,-3.7225,-3.7539,-3.7853,-3.7883,-3.8167,-3.8841,-3.9224,-3.9586,-3.9935,-4.0339,-4.0668,-4.106,-4.1393,-4.1591,-4.1591,-4.2974,-4.3628,-4.3628,-4.3628,-4.3628,-4.3628,-4.3628,-4.3628,-4.3628,-4.3628,-4.3628,-4.3628,-4.3628,-4.3628,-4.3628,-4.3628,-4.3432,-4.3084,-3.7853,-3.7929,-3.7991,-3.8202,-3.8202,-3.8202,-3.8202,-3.8202,-3.8202,-3.8202,-3.8202,-3.8202,-3.8202,-3.8202,-3.8202,-3.8202,-3.8202,-3.8202,-3.8202,-3.8202,-3.8202,-3.8202,-3.8202,-3.8202,-3.8202,-3.8202,-3.7955,-3.7462,-3.691,-3.6577,-3.6475,-3.6475,-3.6141,-3.5517,-3.5517,-3.5169,-3.4574,-3.4574,-3.4501,-3.4414,-3.4414,-3.4414,-3.4414,-3.4414,-3.4414,-3.4414,-3.4414,-3.4414,-3.4414,-3.4414,-3.4414,-3.4414,-3.4414,-3.4481,-3.4631,-3.4481,-3.4481,-3.4631,-3.4481,-3.4414,-3.4414,-3.4414,-3.4601,-3.4964,-3.5215,-3.5368,-3.5439,-3.5439,-3.5439,-3.5424,-3.5424,-3.5463,-3.5603,-3.5603,-3.5627,-3.5702,-3.5702,-3.6164,-3.6574,-3.6574,-3.7058,-3.75,-3.7569,-3.7605,-3.7903,-3.8527,-3.8556,-3.8811,-3.9394,-3.9424,-3.9424,-3.9424,-3.9424,-3.9481,-3.9625,-4.0216,-4.0547,-4.0668,-4.2493,-4.335,-4.3235,-4.3235,-4.3295,-4.3432,-4.3295,-4.3295,-4.3432,-4.3295,-4.3235,-4.3235,-4.3235,-4.33,-4.3432,-4.3563,-4.3209,-4.2768,-3.7853,-3.8066,-3.8202,-3.8202,-3.8202,-3.8202,-3.8202,-3.8202,-3.8202,-3.8202,-3.8202,-3.8202,-3.8202,-3.8202,-3.8202,-3.8202,-3.8202,-3.8202,-3.8202,-3.8202,-3.8202,-3.8202,-3.8202,-3.8202,-3.8202,-3.8202,-3.8159,-3.8086,-3.7984,-3.768,-3.7172,-3.7172,-3.6823,-3.6185,-3.6185,-3.5836,-3.5227,-3.5227,-3.4907,-3.4414,-3.4414,-3.4414,-3.4414,-3.4414,-3.4414,-3.4414,-3.4414,-3.4414,-3.4414,-3.4414,-3.4414,-3.4414,-3.4414,-3.4414,-3.4414,-3.4414,-3.4414,-3.4414,-3.4414,-3.4414,-3.4414,-3.4414,-3.4549,-3.4896,-3.5424,-3.54,-3.5228,-3.5228,-3.5082,-3.5001,-3.5001,-3.5459,-3.5843,-3.5843,-3.63,-3.66,-3.66,-3.6674,-3.6733,-3.6733,-3.7364,-3.7905,-3.8257,-3.8639,-3.8954,-3.9275,-3.9275,-3.932,-3.9424,-3.9424,-3.9424,-3.9424,-3.9424,-3.9681,-4.0339,-4.0478,-4.0805,-4.1409,-4.2259,-4.2375,-4.1787,-4.1787,-4.211,-4.271,-4.2045,-4.2126,-4.271,-4.2045,-4.1787,-4.1787,-4.1787,-4.2153,-4.269,-4.3294,-4.3448,-4.3395,-3.7701,-3.7763,-3.7915,-3.8127,-3.8202,-3.8202,-3.8202,-3.8202,-3.8202,-3.8202,-3.8202,-3.8202,-3.8202,-3.8202,-3.8202,-3.8202,-3.8202,-3.8202,-3.8202,-3.8202,-3.8202,-3.8202,-3.8202,-3.8202,-3.8202,-3.8202,-3.8202,-3.8202,-3.8202,-3.8072,-3.781,-3.781,-3.7462,-3.6867,-3.6867,-3.6504,-3.5894,-3.5894,-3.5532,-3.4951,-3.4951,-3.4733,-3.4414,-3.4414,-3.4414,-3.4414,-3.4414,-3.4414,-3.4414,-3.4414,-3.4414,-3.4414,-3.4414,-3.4414,-3.4414,-3.4414,-3.4661,-3.4951,-3.4951,-3.5198,-3.5473,-3.5473,-3.5613,-3.5839,-3.6102,-3.6094,-3.6026,-3.6094,-3.6011,-3.5942,-3.5942,-3.6163,-3.6423,-3.6423,-3.6604,-3.6781,-3.6781,-3.709,-3.7529,-3.7883,-3.8192,-3.8442,-3.8572,-3.8926,-3.9104,-3.9265,-3.9337,-3.9424,-3.9424,-3.9424,-3.9424,-3.9424,-3.9424,-3.9733,-4.044,-4.044,-4.075,-4.1474,-4.1622,-4.182,-4.2043,-4.2437,-4.2814,-4.3081,-4.2746,-4.2814,-4.3097,-4.2746,-4.2611,-4.2611,-4.2611,-4.28,-4.3031,-4.2927,-4.2909,-4.2885]}]]